[[{"header":{"parameterUnit":"m.s-1","parameterCategory":1,"la1":31.0,"la2":29.5877,"lo1":-88.7671,"lo2":-86.6584,"dy":0.0162,"dx":0.0185,"nx":115,"ny":88,"refTime":"2023-07-19T06:00:00:Z","depth":0,"parameterNumber":2,"parameterNumberName":"U-component_of_WINDS"},"data":[0.0,0.0,0.0,0.0,0.0,0.0,0.0,0.0,0.0,0.0,0.0,0.0,0.0,0.0,0.0,0.0,0.0,0.0,0.0,0.0,0.0,0.0,0.0,0.0,0.0,0.0,0.0,0.0,0.0,0.0,0.0,0.0,0.0,0.0,0.0,0.0,0.0,0.0,0.0,0.0,0.0,0.0,0.0,0.0,0.0,0.0,0.0,0.0,0.0,0.0,0.0,0.0,0.0,0.0,0.0,0.0,0.0,0.0,0.0,0.0,0.0,0.0,0.0,0.0,0.0,0.0,0.0,0.0,0.0,0.0,0.0,0.0,0.0,0.0,0.0,0.0,0.0,0.0,0.0,0.0,0.0,0.0,0.0,0.0,0.0,0.0,0.0,0.0,0.0,0.0,0.0,0.0,0.0,0.0,0.0,0.0,0.0,0.0,0.0,0.0,0.0,0.0,0.0,0.0,0.0,0.0,0.0,0.0,0.0,0.0,0.0,0.0,0.0,0.0,0.0,0.0,0.0,0.0,0.0,0.0,0.0,0.0,0.0,0.0,0.0,0.0,0.0,0.0,0.0,0.0,0.0,0.0,0.0,0.0,0.0,0.0,0.0,0.0,0.0,0.0,0.0,0.0,0.0,0.0,0.0,0.0,0.0,0.0,0.0,0.0,0.0,0.0,0.0,0.0,0.0,0.0,0.0,0.0,0.0,0.0,0.0,0.0,0.0,0.0,0.0,0.0,0.0,0.0,0.0,0.0,0.0,0.0,0.0,0.0,0.0,0.0,0.0,0.0,0.0,0.0,0.0,0.0,0.0,0.0,0.0,0.0,0.0,0.0,0.0,0.0,0.0,0.0,0.0,0.0,0.0,0.0,0.0,0.0,0.0,0.0,0.0,0.0,0.0,0.0,0.0,0.0,0.0,0.0,0.0,0.0,0.0,0.0,0.0,0.0,0.0,0.0,0.0,0.0,0.0,0.0,0.0,0.0,0.0,0.0,0.0,0.0,0.0,0.0,0.0,0.0,0.0,0.0,0.0,0.0,0.0,0.0,0.0,0.0,0.0,0.0,0.0,0.0,0.0,0.0,0.0,0.0,0.0,0.0,0.0,0.0,0.0,0.0,0.0,0.0,0.0,0.0,0.0,0.0,0.0,0.0,0.0,0.0,0.0,0.0,0.0,0.0,0.0,0.0,0.0,0.0,0.0,0.0,0.0,0.0,0.0,0.0,0.0,0.0,0.0,0.0,0.0,0.0,0.0,0.0,0.0,0.0,0.0,0.0,0.0,0.0,0.0,0.0,0.0,0.0,0.0,0.0,0.0,0.0,0.0,0.0,0.0,0.0,0.0,0.0,0.0,0.0,0.0,0.0,0.0,0.0,0.0,0.0,0.0,0.0,0.0,0.0,0.0,0.0,0.0,0.0,0.0,0.0,0.0,0.0,0.0,0.0,0.0,0.0,0.0,0.0,0.0,0.0,0.0,0.0,0.0,0.0,0.0,0.0,0.0,0.0,0.0,0.0,0.0,0.0,0.0,0.0,0.0,0.0,0.0,0.0,0.0,0.0,0.0,0.0,0.0,0.0,0.0,0.0,0.0,0.0,0.0,0.0,0.0,0.0,0.0,0.0,0.0,0.0,0.0,0.0,0.0,0.0,0.0,0.0,0.0,0.0,0.0,0.0,0.0,0.0,0.0,0.0,0.0,0.0,0.0,0.0,0.0,0.0,0.0,0.0,0.0,0.0,0.0,0.0,0.0,0.0,0.0,0.0,0.0,0.0,0.0,0.0,0.0,0.0,0.0,0.0,0.0,0.0,0.0,0.0,0.0,0.0,0.0,0.0,0.0,0.0,0.0,0.0,0.0,0.0,0.0,0.0,0.0,0.0,0.0,0.0,0.0,0.0,0.0,0.0,0.0,0.0,0.0,0.0,0.0,0.0,0.0,0.0,0.0,0.0,0.0,0.0,0.0,0.0,0.0,0.0,0.0,0.0,0.0,0.0,0.0,0.0,0.0,0.0,0.0,0.0,0.0,0.0,0.0,0.0,0.0,0.0,0.0,0.0,0.0,0.0,0.0,0.0,0.0,0.0,0.0,0.0,0.0,0.0,0.0,0.0,0.0,0.0,0.0,0.0,0.0,0.0,0.0,0.0,0.0,0.0,0.0,0.0,0.0,0.0,0.0,0.0,0.0,0.0,0.0,0.0,0.0,0.0,0.0,0.0,0.0,0.0,0.0,0.0,0.0,0.0,0.0,0.0,0.0,0.0,0.0,0.0,0.0,0.0,0.0,0.0,0.0,0.0,0.0,0.0,0.0,0.0,0.0,0.0,0.0,0.0,0.0,0.0,0.0,0.0,0.0,0.0,0.0,0.0,0.0,0.0,0.0,0.0,0.0,0.0,0.0,0.0,0.0,0.0,0.0,0.0,0.0,0.0,0.0,0.0,0.0,0.0,0.0,0.0,0.0,0.0,0.0,0.0,0.0,0.0,0.0,0.0,0.0,0.0,0.0,0.0,0.0,0.0,0.0,0.0,0.0,0.0,0.0,0.0,0.0,0.0,0.0,0.0,0.0,0.0,0.0,0.0,0.0,0.0,0.0,0.0,0.0,0.0,0.0,0.0,0.0,0.0,0.0,0.0,0.0,0.0,0.0,0.0,0.0,0.0,0.0,0.0,0.0,0.0,0.0,0.0,0.0,0.0,0.0,0.0,0.0,0.0,0.0,0.0,0.0,0.0,0.0,0.0,0.0,0.0,0.0,0.0,0.0,0.0,0.0,0.0,0.0,0.0,0.0,0.0,0.0,0.0,0.0,0.0,0.0,0.0,0.0,0.0,0.0,0.0,0.0,0.0,0.0,0.0,0.0,0.0,0.0,0.0,0.0,0.0,0.0,0.0,0.0,0.0,0.0,0.0,0.0,0.0,0.0,0.0,0.0,0.0,0.0,0.0,0.0,0.0,0.0,0.0,0.0,0.0,0.0,0.0,0.0,0.0,0.0,0.0,0.0,0.0,0.0,0.0,0.0,0.0,0.0,0.0,0.0,0.0,0.0,0.0,0.0,0.0,0.0,0.0,0.0,0.0,0.0,0.0,0.0,0.0,0.0,0.0,0.0,0.0,0.0,0.0,0.0,0.0,0.0,0.0,0.0,0.0,0.0,0.0,0.0,0.0,0.0,0.0,0.0,0.0,0.0,0.0,0.0,0.0,0.0,0.0,0.0,0.0,0.0,0.0,0.0,0.0,0.0,0.0,0.0,0.0,0.0,0.0,0.0,0.0,0.0,0.0,0.0,0.0,0.0,0.0,0.0,0.0,0.0,0.0,0.0,0.0,0.0,0.0,0.0,0.0,0.0,0.0,0.0,0.0,0.0,0.0,0.0,0.0,0.0,0.0,0.0,0.0,0.0,0.0,0.0,0.0,0.0,0.0,0.0,0.0,0.0,0.0,0.0,0.0,0.0,0.0,0.0,0.0,0.0,0.0,0.0,0.0,0.0,0.0,0.0,0.0,0.0,0.0,0.0,0.0,0.0,0.0,0.0,0.0,0.0,0.0,0.0,0.0,0.0,0.0,0.0,0.0,0.0,0.0,0.0,0.0,0.0,0.0,0.0,0.0,0.0,0.0,0.0,0.0,0.0,0.0,0.0,0.0,0.0,0.0,0.0,0.0,0.0,0.0,0.0,0.0,0.0,0.0,0.0,0.0,0.0,0.0,0.0,0.0,0.0,0.0,0.0,0.0,0.0,0.0,0.0,0.0,0.0,0.0,0.0,0.0,0.0,0.0,0.0,0.0,0.0,0.0,0.0,0.0,0.0,0.0,0.0,0.0,0.0,0.0,0.0,0.0,0.0,0.0,0.0,0.0,0.0,0.0,0.0,0.0,0.0,0.0,0.0,0.0,0.0,0.0,0.0,0.0,0.0,0.0,0.0,0.0,0.0,0.0,0.0,0.0,0.0,0.0,0.0,0.0,0.0,0.0,0.0,0.0,0.0,0.0,0.0,0.0,0.0,0.0,0.0,0.0,0.0,0.0,0.0,0.0,0.0,0.0,0.0,0.0,0.0,0.0,0.0,0.0,0.0,0.0,0.0,0.0,0.0,0.0,0.0,0.0,0.0,0.0,0.0,0.0,0.0,0.0,0.0,0.0,0.0,0.0,0.0,0.0,0.0,0.0,0.0,0.0,0.0,0.0,0.0,0.0,0.0,0.0,0.0,0.0,0.0,0.0,0.0,0.0,0.0,0.0,0.0,0.0,0.0,0.0,0.0,0.0,0.0,0.0,0.0,0.0,-0.6842,0.0,0.0,0.0,0.0,0.0,0.0,0.0,0.0,0.0,0.0,0.0,0.0,0.0,0.0,0.0,0.0,0.0,0.0,0.0,0.0,0.0,0.0,0.0,0.0,0.0,0.0,0.0,0.0,0.0,0.0,0.0,0.0,0.0,0.0,0.0,0.0,0.0,0.0,0.0,0.0,0.0,0.0,0.0,0.0,0.0,0.0,0.0,0.0,0.0,0.0,0.0,0.0,0.0,0.0,0.0,0.0,0.0,0.0,0.0,0.0,0.0,0.0,0.0,0.0,0.0,0.0,0.0,0.0,0.0,0.0,0.0,0.0,0.0,0.0,0.0,0.0,0.0,0.0,0.0,0.0,0.0,0.0,0.0,0.0,0.0,0.0,0.0,0.0,0.0,0.0,0.0,0.0,0.0,0.0,0.0,0.0,0.0,0.0,0.0,0.0,0.0,0.0,0.0,0.0,0.0,0.0,0.0,0.0,0.0,0.0,-0.6076,-0.6514,-0.5701,-0.5821,-0.701,0.0,0.0,0.0,0.0,0.0,0.0,0.0,0.0,0.0,0.0,0.0,0.0,0.0,0.0,0.0,0.0,0.0,0.0,0.0,0.0,0.0,0.0,0.0,0.0,0.0,0.0,0.0,0.0,0.0,0.0,0.0,0.0,0.0,0.0,0.0,0.0,0.0,0.0,0.0,0.0,0.0,0.0,0.0,0.0,0.0,0.0,0.0,0.0,0.0,0.0,0.0,0.0,0.0,0.0,0.0,0.0,0.0,0.0,0.0,0.0,0.0,0.0,0.0,0.0,0.0,0.0,0.0,0.0,0.0,0.0,0.0,0.0,0.0,0.0,0.0,0.0,0.0,0.0,0.0,0.0,0.0,0.0,0.0,0.0,0.0,0.0,0.0,0.0,0.0,0.0,0.0,0.0,0.0,0.0,0.0,0.0,0.0,0.0,0.0,0.0,0.0,0.0,0.0,0.0,0.0,0.0,0.0,0.0,0.0,0.0,0.0,0.0,-0.5997,-0.5987,-0.6907,0.0,0.0,0.0,0.0,0.0,0.0,0.0,0.0,0.0,0.0,0.0,0.0,0.0,0.0,0.0,0.0,0.0,0.0,0.0,0.0,0.0,0.0,0.0,0.0,0.0,0.0,0.0,0.0,0.0,0.0,0.0,0.0,0.0,0.0,0.0,0.0,0.0,0.0,0.0,0.0,0.0,0.0,0.0,0.0,0.0,0.0,0.0,0.0,0.0,0.0,0.0,0.0,0.0,0.0,0.0,0.0,0.0,0.0,0.0,0.0,0.0,0.0,0.0,0.0,0.0,0.0,0.0,0.0,0.0,0.0,0.0,0.0,0.0,0.0,0.0,0.0,0.0,0.0,0.0,0.0,0.0,0.0,0.0,0.0,0.0,0.0,0.0,0.0,0.0,0.0,0.0,0.0,0.0,0.0,0.0,0.0,0.0,0.0,0.0,0.0,0.0,0.0,0.0,0.0,0.0,0.0,0.0,0.0,0.0,0.0,-0.66,-0.6723,-0.6617,0.0,-0.6552,0.0,0.0,0.0,0.0,0.0,0.0,0.0,0.0,0.0,0.0,0.0,0.0,0.0,0.0,0.0,0.0,0.0,0.0,0.0,0.0,0.0,0.0,0.0,0.0,0.0,0.0,0.0,0.0,0.0,0.0,0.0,0.0,0.0,0.0,0.0,0.0,0.0,0.0,0.0,0.0,0.0,0.0,0.0,0.0,0.0,0.0,0.0,0.0,0.0,0.0,0.0,0.0,0.0,0.0,0.0,0.0,0.0,0.0,0.0,0.0,0.0,0.0,0.0,0.0,0.0,0.0,0.0,0.0,0.0,0.0,0.0,0.0,0.0,0.0,0.0,0.0,0.0,0.0,0.0,0.0,0.0,0.0,0.0,0.0,0.0,0.0,0.0,0.0,0.0,0.0,0.0,0.0,0.0,0.0,0.0,0.0,0.0,0.0,0.0,0.0,0.0,0.0,0.0,0.0,0.0,0.0,0.0,0.0,0.0,0.0,-0.6633,-0.6702,-0.6702,-0.6633,0.0,0.0,0.0,0.0,0.0,0.0,0.0,0.0,0.0,0.0,0.0,0.0,0.0,0.0,0.0,0.0,0.0,0.0,0.0,0.0,0.0,0.0,0.0,0.0,0.0,0.0,0.0,0.0,0.0,0.0,0.0,0.0,0.0,0.0,0.0,0.0,0.0,0.0,0.0,0.0,0.0,0.0,0.0,0.0,0.0,0.0,0.0,0.0,0.0,0.0,0.0,0.0,0.0,0.0,0.0,0.0,0.0,0.0,0.0,0.0,0.0,0.0,0.0,0.0,0.0,0.0,0.0,0.0,0.0,0.0,0.0,0.0,0.0,0.0,0.0,0.0,0.0,0.0,0.0,0.0,0.0,0.0,0.0,0.0,0.0,0.0,0.0,0.0,0.0,0.0,0.0,0.0,0.0,0.0,0.0,0.0,0.0,0.0,0.0,0.0,0.0,0.0,0.0,0.0,0.0,0.0,0.0,0.0,0.0,0.0,-0.6569,-0.6599,-0.6651,-0.6651,-0.6582,-0.6408,0.0,0.0,0.0,0.0,0.0,0.0,0.0,0.0,0.0,0.0,0.0,0.0,0.0,0.0,0.0,0.0,0.0,0.0,0.0,0.0,0.0,0.0,0.0,0.0,0.0,0.0,0.0,0.0,0.0,0.0,0.0,0.0,0.0,0.0,0.0,0.0,0.0,0.0,0.0,0.0,0.0,0.0,0.0,0.0,0.0,0.0,0.0,0.0,0.0,0.0,0.0,0.0,0.0,0.0,0.0,0.0,0.0,0.0,0.0,0.0,0.0,0.0,0.0,0.0,0.0,0.0,0.0,0.0,0.0,0.0,0.0,0.0,0.0,0.0,0.0,0.0,0.0,0.0,0.0,0.0,0.0,0.0,0.0,0.0,0.0,0.0,0.0,0.0,0.0,0.0,0.0,0.0,0.0,0.0,0.0,0.0,0.0,0.0,0.0,0.0,0.0,0.0,0.0,0.0,0.0,0.0,0.0,0.0,-0.6493,-0.6493,-0.6517,-0.6507,-0.6507,-0.6437,0.0,0.0,0.0,0.0,0.0,0.0,0.0,0.0,0.0,0.0,0.0,0.0,0.0,0.0,0.0,0.0,0.0,0.0,0.0,0.0,0.0,0.0,0.0,0.0,0.0,0.0,0.0,0.0,0.0,0.0,0.0,0.0,0.0,0.0,0.0,0.0,0.0,0.0,0.0,0.0,0.0,0.0,0.0,0.0,0.0,0.0,0.0,0.0,0.0,0.0,0.0,0.0,0.0,0.0,0.0,0.0,0.0,0.0,0.0,0.0,0.0,0.0,0.0,0.0,0.0,0.0,0.0,0.0,0.0,0.0,0.0,0.0,0.0,0.0,0.0,0.0,0.0,0.0,0.0,0.0,0.0,0.0,0.0,0.0,0.0,0.0,0.0,0.0,0.0,0.0,0.0,0.0,0.0,0.0,0.0,0.0,0.0,0.0,0.0,0.0,0.0,0.0,0.0,0.0,0.0,0.0,0.0,0.0,0.0,-0.6525,-0.6828,-0.6858,-0.6584,-0.6852,-0.6754,0.0,0.0,0.0,0.0,0.0,0.0,0.0,0.0,0.0,0.0,0.0,0.0,0.0,0.0,0.0,0.0,0.0,0.0,0.0,0.0,0.0,0.0,0.0,0.0,0.0,0.0,0.0,0.0,0.0,0.0,0.0,0.0,0.0,0.0,0.0,0.0,0.0,0.0,0.0,0.0,0.0,0.0,0.0,0.0,0.0,0.0,0.0,0.0,0.0,0.0,0.0,0.0,0.0,0.0,0.0,0.0,0.0,0.0,0.0,0.0,0.0,0.0,0.0,0.0,0.0,0.0,0.0,0.0,0.0,0.0,0.0,0.0,0.0,0.0,0.0,0.0,0.0,0.0,0.0,0.0,0.0,0.0,0.0,0.0,0.0,0.0,0.0,0.0,0.0,0.0,0.0,0.0,0.0,0.0,0.0,0.0,0.0,0.0,0.0,0.0,0.0,0.0,0.0,0.0,0.0,0.0,0.0,0.0,0.0,-0.665,0.0,-0.7047,-0.6754,-0.7068,-0.6996,0.0,0.0,0.0,0.0,0.0,0.0,0.0,0.0,0.0,0.0,0.0,0.0,0.0,0.0,0.0,0.0,0.0,0.0,0.0,0.0,0.0,0.0,0.0,0.0,0.0,0.0,0.0,0.0,0.0,0.0,0.0,0.0,0.0,0.0,0.0,0.0,0.0,0.0,0.0,0.0,0.0,0.0,0.0,0.0,0.0,0.0,0.0,0.0,0.0,0.0,0.0,0.0,0.0,0.0,0.0,0.0,0.0,0.0,0.0,0.0,0.0,0.0,0.0,0.0,0.0,0.0,0.0,0.0,0.0,0.0,0.0,0.0,0.0,0.0,0.0,0.0,0.0,0.0,0.0,0.0,0.0,0.0,0.0,0.0,0.0,0.0,0.0,0.0,0.0,0.0,0.0,0.0,0.0,0.0,0.0,0.0,0.0,0.0,0.0,0.0,0.0,0.0,0.0,0.0,0.0,0.0,0.0,0.0,-0.6921,-0.6921,-0.6994,-0.7078,-0.6999,-0.7115,-0.7115,0.0,0.0,0.0,0.0,0.0,0.0,0.0,0.0,0.0,0.0,0.0,0.0,0.0,0.0,0.0,0.0,0.0,0.0,0.0,0.0,0.0,0.0,0.0,0.0,0.0,0.0,0.0,0.0,0.0,0.0,0.0,0.0,0.0,0.0,0.0,0.0,0.0,0.0,0.0,0.0,0.0,0.0,0.0,0.0,0.0,0.0,0.0,0.0,0.0,0.0,0.0,0.0,0.0,0.0,0.0,0.0,0.0,0.0,0.0,0.0,0.0,0.0,0.0,0.0,0.0,0.0,0.0,0.0,0.0,0.0,0.0,0.0,0.0,0.0,0.0,0.0,0.0,0.0,0.0,0.0,0.0,0.0,0.0,0.0,0.0,0.0,0.0,0.0,0.0,0.0,0.0,0.0,0.0,0.0,0.0,0.0,0.0,0.0,0.0,0.0,0.0,0.0,0.0,0.0,0.0,0.0,0.0,0.0,0.0,-0.7479,-0.7783,-0.7841,-0.7566,-0.784,-0.7772,0.0,0.0,0.0,0.0,0.0,0.0,0.0,0.0,0.0,0.0,0.0,0.0,0.0,0.0,0.0,0.0,0.0,0.0,0.0,0.0,0.0,0.0,0.0,0.0,0.0,0.0,0.0,0.0,0.0,0.0,0.0,0.0,0.0,0.0,0.0,0.0,0.0,0.0,0.0,0.0,0.0,0.0,0.0,0.0,0.0,0.0,0.0,0.0,0.0,0.0,0.0,0.0,0.0,0.0,0.0,0.0,0.0,0.0,0.0,0.0,0.0,0.0,0.0,0.0,0.0,0.0,0.0,0.0,0.0,0.0,0.0,0.0,0.0,0.0,0.0,0.0,0.0,0.0,0.0,0.0,0.0,0.0,0.0,0.0,0.0,0.0,0.0,0.0,0.0,0.0,0.0,0.0,0.0,0.0,0.0,0.0,0.0,0.0,0.0,0.0,0.0,0.0,0.0,0.0,0.0,0.0,0.0,0.0,0.0,-0.8325,-0.8427,-0.8387,-0.8141,-0.8401,-0.8271,-0.771,0.0,0.0,0.0,0.0,0.0,0.0,0.0,0.0,0.0,0.0,0.0,0.0,0.0,0.0,0.0,0.0,0.0,0.0,0.0,0.0,0.0,0.0,0.0,0.0,0.0,0.0,0.0,0.0,0.0,0.0,0.0,0.0,0.0,0.0,0.0,0.0,0.0,0.0,0.0,0.0,0.0,0.0,0.0,0.0,0.0,0.0,0.0,0.0,0.0,0.0,0.0,0.0,0.0,0.0,0.0,0.0,0.0,0.0,0.0,0.0,0.0,0.0,0.0,0.0,0.0,0.0,0.0,0.0,0.0,0.0,0.0,0.0,0.0,0.0,0.0,0.0,0.0,0.0,0.0,0.0,0.0,0.0,0.0,0.0,0.0,0.0,0.0,0.0,0.0,0.0,0.0,0.0,0.0,0.0,0.0,0.0,0.0,0.0,0.0,0.0,0.0,0.0,0.0,0.0,0.0,0.0,0.0,0.0,-0.9321,-0.8978,-0.8816,-0.875,-0.8789,-0.8648,0.0,0.0,0.0,0.0,0.0,0.0,0.0,0.0,0.0,0.0,0.0,0.0,0.0,0.0,0.0,0.0,0.0,0.0,0.0,0.0,0.0,0.0,0.0,0.0,0.0,0.0,0.0,0.0,0.0,0.0,0.0,0.0,0.0,0.0,0.0,0.0,0.0,0.0,0.0,0.0,0.0,0.0,0.0,0.0,0.0,0.0,0.0,0.0,0.0,0.0,0.0,0.0,0.0,0.0,0.0,0.0,0.0,0.0,0.0,0.0,0.0,0.0,0.0,0.0,0.0,0.0,0.0,0.0,0.0,0.0,0.0,0.0,0.0,0.0,0.0,0.0,0.0,0.0,0.0,0.0,0.0,0.0,0.0,0.0,0.0,0.0,0.0,0.0,0.0,0.0,0.0,0.0,0.0,0.0,0.0,0.0,0.0,0.0,0.0,0.0,0.0,0.0,0.0,0.0,0.0,0.0,0.0,0.0,0.0,-0.9606,-0.9908,-0.9888,-0.9436,-0.9197,-0.9009,0.0,0.0,0.0,0.0,0.0,0.0,0.0,0.0,0.0,0.0,0.0,0.0,0.0,0.0,0.0,0.0,0.0,0.0,0.0,0.0,0.0,0.0,0.0,0.0,0.0,0.0,0.0,0.0,0.0,0.0,0.0,0.0,0.0,0.0,0.0,0.0,0.0,0.0,0.0,0.0,0.0,0.0,0.0,0.0,0.0,0.0,0.0,0.0,0.0,0.0,0.0,0.0,0.0,0.0,0.0,0.0,0.0,0.0,0.0,0.0,0.0,0.0,0.0,0.0,0.0,0.0,0.0,0.0,0.0,0.0,0.0,0.0,0.0,0.0,0.0,0.0,0.0,0.0,0.0,0.0,0.0,0.0,0.0,0.0,0.0,0.0,0.0,0.0,0.0,0.0,0.0,0.0,0.0,0.0,0.0,0.0,0.0,0.0,0.0,0.0,0.0,0.0,0.0,0.0,0.0,0.0,0.0,0.0,-0.9914,-1.0197,-1.076,-1.0865,-1.0411,-0.999,-0.9538,0.0,0.0,0.0,0.0,0.0,0.0,0.0,0.0,0.0,0.0,0.0,0.0,0.0,0.0,0.0,0.0,0.0,0.0,0.0,0.0,0.0,0.0,0.0,0.0,0.0,0.0,0.0,0.0,0.0,0.0,0.0,0.0,0.0,0.0,0.0,0.0,0.0,0.0,0.0,0.0,0.0,0.0,0.0,0.0,0.0,0.0,0.0,0.0,0.0,0.0,0.0,0.0,0.0,0.0,0.0,0.0,0.0,0.0,0.0,0.0,0.0,0.0,0.0,0.0,0.0,0.0,0.0,0.0,0.0,0.0,0.0,0.0,0.0,0.0,0.0,0.0,0.0,0.0,0.0,0.0,0.0,0.0,0.0,0.0,0.0,0.0,0.0,0.0,0.0,0.0,0.0,0.0,0.0,0.0,0.0,0.0,0.0,0.0,0.0,0.0,0.0,0.0,0.0,0.0,0.0,0.0,0.0,0.0,-1.0558,-1.085,-1.1424,-1.1675,-1.1441,-1.0855,-1.0067,0.0,0.0,0.0,0.0,0.0,0.0,0.0,0.0,0.0,0.0,0.0,0.0,0.0,0.0,0.0,0.0,0.0,0.0,0.0,0.0,0.0,0.0,0.0,0.0,0.0,0.0,0.0,0.0,0.0,0.0,0.0,0.0,0.0,0.0,0.0,0.0,0.0,0.0,0.0,0.0,0.0,0.0,0.0,0.0,0.0,0.0,0.0,0.0,0.0,0.0,0.0,0.0,0.0,0.0,0.0,0.0,0.0,0.0,0.0,0.0,0.0,0.0,0.0,0.0,0.0,0.0,0.0,0.0,0.0,0.0,0.0,0.0,0.0,0.0,0.0,0.0,0.0,0.0,0.0,0.0,0.0,0.0,0.0,0.0,0.0,0.0,0.0,0.0,0.0,0.0,0.0,0.0,0.0,0.0,0.0,0.0,0.0,0.0,0.0,0.0,0.0,0.0,0.0,0.0,0.0,0.0,0.0,0.0,-1.0795,-1.0613,-1.1551,-1.1924,-1.1572,-1.0635,-0.9949,0.0,0.0,0.0,0.0,0.0,0.0,0.0,0.0,0.0,0.0,0.0,0.0,0.0,0.0,0.0,0.0,0.0,0.0,0.0,0.0,0.0,0.0,0.0,0.0,0.0,0.0,0.0,0.0,0.0,0.0,0.0,0.0,0.0,0.0,0.0,0.0,0.0,0.0,0.0,0.0,0.0,0.0,0.0,0.0,0.0,0.0,0.0,0.0,-0.4042,0.0,0.0,0.0,0.0,0.0,0.0,0.0,0.0,0.0,0.0,0.0,0.0,0.0,0.0,0.0,0.0,0.0,0.0,0.0,0.0,0.0,0.0,0.0,0.0,0.0,0.0,0.0,0.0,0.0,0.0,0.0,0.0,0.0,0.0,0.0,0.0,0.0,0.0,0.0,0.0,0.0,0.0,0.0,0.0,0.0,0.0,0.0,0.0,0.0,0.0,0.0,0.0,0.0,0.0,0.0,0.0,0.0,0.0,0.0,-1.1313,-1.1205,-1.2053,-1.2375,-1.2102,-1.1249,-1.0505,0.0,0.0,0.0,0.0,0.0,0.0,0.0,0.0,0.0,0.0,0.0,0.0,0.0,0.0,0.0,0.0,0.0,0.0,0.0,0.0,0.0,0.0,0.0,0.0,0.0,0.0,0.0,0.0,0.0,0.0,0.0,0.0,0.0,0.0,0.0,0.0,0.0,0.0,0.0,0.0,0.0,0.0,0.0,0.0,0.0,0.0,0.0,0.0,0.0,0.0,0.0,0.0,0.0,0.0,0.0,0.0,0.0,0.0,0.0,0.0,0.0,0.0,0.0,0.0,0.0,0.0,0.0,0.0,0.0,0.0,0.0,0.0,0.0,0.0,0.0,0.0,0.0,0.0,0.0,0.0,0.0,0.0,0.0,0.0,0.0,0.0,0.0,0.0,0.0,0.0,0.0,0.0,0.0,0.0,0.0,0.0,0.0,0.0,0.0,0.0,0.0,0.0,0.0,0.0,0.0,0.0,0.0,-1.1362,-1.183,-1.1864,-1.2525,-1.2832,-1.2715,-1.2145,-1.1313,-1.0237,0.0,0.0,0.0,0.0,0.0,0.0,0.0,0.0,0.0,0.0,0.0,0.0,0.0,0.0,0.0,0.0,0.0,0.0,0.0,0.0,0.0,0.0,0.0,0.0,0.0,0.0,0.0,0.0,0.0,0.0,0.0,0.0,0.0,0.0,0.0,0.0,0.0,0.0,-0.5334,-0.5422,0.0,0.0,0.0,0.0,0.0,0.0,0.0,0.0,-0.4179,0.0,0.0,0.0,0.0,0.0,0.0,0.0,0.0,0.0,0.0,0.0,0.0,0.0,0.0,0.0,0.0,0.0,0.0,0.0,0.0,0.0,0.0,0.0,0.0,0.0,0.0,0.0,0.0,0.0,0.0,0.0,0.0,0.0,0.0,0.0,0.0,0.0,0.0,0.0,0.0,0.0,0.0,0.0,0.0,0.0,0.0,0.0,0.0,0.0,0.0,0.0,0.0,0.0,0.0,0.0,0.0,-1.0453,-1.1609,-1.2011,-1.1669,-1.2469,-1.2881,-1.2861,-1.2523,-1.1943,-1.1095,0.0,0.0,0.0,0.0,0.0,0.0,0.0,0.0,0.0,0.0,0.0,0.0,0.0,0.0,0.0,0.0,0.0,0.0,0.0,0.0,0.0,0.0,0.0,0.0,0.0,0.0,0.0,0.0,0.0,0.0,0.0,0.0,0.0,0.0,0.0,0.0,0.0,0.0,0.0,-0.5533,-0.5568,0.0,0.0,0.0,0.0,0.0,0.0,0.0,0.0,-0.3988,0.0,0.0,0.0,0.0,0.0,0.0,0.0,0.0,0.0,0.0,0.0,0.0,0.0,0.0,0.0,0.0,0.0,0.0,0.0,0.0,0.0,0.0,0.0,0.0,0.0,0.0,0.0,0.0,0.0,0.0,0.0,0.0,0.0,0.0,0.0,0.0,0.0,0.0,0.0,0.0,0.0,0.0,0.0,0.0,0.0,0.0,0.0,0.0,0.0,0.0,0.0,0.0,0.0,0.0,0.0,-1.0772,-1.1675,-1.1953,-1.1626,-1.2469,-1.2891,-1.2929,-1.2639,-1.2238,0.0,0.0,0.0,0.0,0.0,0.0,0.0,0.0,0.0,0.0,0.0,0.0,0.0,0.0,0.0,0.0,0.0,0.0,0.0,0.0,0.0,0.0,0.0,0.0,0.0,0.0,0.0,0.0,0.0,0.0,0.0,0.0,0.0,0.0,0.0,0.0,0.0,0.0,0.0,0.0,-0.5534,-0.5531,-0.5187,0.0,0.0,0.0,0.0,0.0,0.0,-0.4622,-0.4421,0.0,0.0,0.0,0.0,0.0,0.0,0.0,0.0,0.0,0.0,0.0,0.0,0.0,0.0,0.0,0.0,0.0,0.0,0.0,0.0,0.0,0.0,0.0,0.0,0.0,0.0,0.0,0.0,0.0,0.0,0.0,0.0,0.0,0.0,0.0,0.0,0.0,0.0,0.0,0.0,0.0,0.0,0.0,0.0,0.0,0.0,0.0,0.0,0.0,0.0,0.0,0.0,0.0,0.0,0.0,-1.1155,-1.1716,-1.1884,-1.1763,-1.2471,-1.2891,-1.2929,-1.2606,-1.2382,0.0,0.0,0.0,0.0,0.0,0.0,0.0,0.0,0.0,0.0,0.0,0.0,0.0,0.0,0.0,0.0,0.0,0.0,0.0,0.0,0.0,0.0,0.0,0.0,0.0,0.0,0.0,0.0,0.0,0.0,0.0,0.0,0.0,0.0,0.0,0.0,0.0,0.0,0.0,0.0,0.0,-0.5518,-0.5145,-0.5523,0.0,0.0,0.0,0.0,-0.4888,-0.4894,0.0,0.0,0.0,0.0,0.0,0.0,0.0,0.0,0.0,0.0,0.0,0.0,0.0,0.0,0.0,0.0,0.0,0.0,0.0,0.0,0.0,0.0,0.0,0.0,0.0,0.0,0.0,0.0,0.0,0.0,0.0,0.0,0.0,0.0,0.0,0.0,0.0,0.0,0.0,0.0,0.0,0.0,0.0,0.0,0.0,0.0,0.0,0.0,0.0,0.0,0.0,0.0,0.0,0.0,0.0,0.0,-1.1686,-1.1838,-1.1989,-1.2148,-1.2627,-1.2891,-1.292,-1.2453,-1.2154,0.0,0.0,0.0,0.0,0.0,0.0,0.0,0.0,0.0,0.0,0.0,0.0,0.0,0.0,0.0,0.0,0.0,0.0,0.0,0.0,0.0,0.0,0.0,0.0,0.0,0.0,0.0,0.0,0.0,0.0,0.0,0.0,0.0,0.0,0.0,0.0,0.0,0.0,0.0,0.0,0.0,-0.5783,-0.581,-0.5918,-0.5968,0.0,0.0,-0.5235,-0.5515,-0.4924,0.0,0.0,0.0,0.0,0.0,0.0,0.0,0.0,0.0,0.0,0.0,0.0,0.0,0.0,0.0,0.0,0.0,0.0,0.0,0.0,0.0,0.0,0.0,0.0,0.0,0.0,0.0,0.0,0.0,0.0,0.0,0.0,0.0,0.0,0.0,0.0,0.0,0.0,0.0,0.0,0.0,0.0,0.0,0.0,0.0,0.0,0.0,0.0,0.0,0.0,0.0,0.0,0.0,0.0,0.0,-1.1383,-1.1743,-1.195,-1.2132,-1.2236,-1.2656,-1.2891,-1.2881,-1.2448,-1.2189,0.0,0.0,0.0,0.0,0.0,0.0,0.0,0.0,0.0,0.0,0.0,0.0,0.0,0.0,0.0,0.0,0.0,0.0,0.0,0.0,0.0,0.0,0.0,0.0,0.0,0.0,0.0,0.0,0.0,0.0,0.0,0.0,0.0,0.0,0.0,0.0,0.0,0.0,0.0,0.0,0.0,0.0,-0.5809,-0.6073,0.0,0.0,0.0,-0.5747,-0.5653,0.0,0.0,0.0,0.0,0.0,0.0,0.0,0.0,0.0,0.0,0.0,0.0,0.0,0.0,0.0,0.0,0.0,0.0,0.0,0.0,0.0,0.0,0.0,0.0,0.0,0.0,0.0,0.0,0.0,0.0,0.0,0.0,0.0,0.0,0.0,0.0,0.0,0.0,0.0,0.0,0.0,0.0,0.0,0.0,0.0,0.0,0.0,0.0,0.0,0.0,0.0,0.0,0.0,0.0,0.0,0.0,0.0,-1.1932,-1.2192,-1.2368,-1.2476,-1.2801,-1.2958,-1.2949,-1.2549,0.0,0.0,0.0,0.0,0.0,0.0,0.0,0.0,0.0,0.0,0.0,0.0,0.0,0.0,0.0,0.0,0.0,0.0,0.0,0.0,0.0,0.0,0.0,0.0,0.0,0.0,0.0,-0.5224,0.0,0.0,0.0,0.0,0.0,0.0,0.0,0.0,0.0,0.0,0.0,0.0,0.0,0.0,-0.6194,-0.605,-0.6368,-0.6447,0.0,0.0,-0.6254,-0.5797,-0.5548,-0.5414,0.0,0.0,0.0,0.0,0.0,0.0,0.0,0.0,0.0,0.0,0.0,0.0,0.0,0.0,0.0,0.0,0.0,0.0,0.0,0.0,0.0,0.0,0.0,0.0,0.0,0.0,0.0,0.0,0.0,0.0,0.0,0.0,0.0,0.0,0.0,0.0,0.0,0.0,0.0,0.0,0.0,0.0,0.0,0.0,0.0,0.0,0.0,0.0,0.0,0.0,0.0,0.0,0.0,0.0,0.0,-1.2604,-1.259,-1.2775,-1.31,-1.315,-1.317,-1.317,-1.2878,-1.2587,0.0,0.0,0.0,0.0,0.0,0.0,0.0,0.0,0.0,0.0,0.0,0.0,0.0,0.0,0.0,0.0,0.0,0.0,0.0,0.0,0.0,0.0,0.0,0.0,0.0,0.0,0.0,0.0,0.0,0.0,0.0,0.0,0.0,0.0,0.0,0.0,0.0,0.0,0.0,0.0,0.0,-0.6514,-0.6849,-0.6936,-0.6848,0.0,0.0,-0.6625,-0.616,-0.5736,-0.5582,-0.5917,0.0,0.0,0.0,0.0,0.0,0.0,0.0,0.0,0.0,0.0,0.0,0.0,0.0,0.0,0.0,0.0,0.0,0.0,0.0,0.0,0.0,0.0,0.0,0.0,0.0,0.0,0.0,0.0,0.0,0.0,0.0,0.0,0.0,0.0,0.0,0.0,0.0,0.0,0.0,0.0,0.0,0.0,0.0,0.0,0.0,0.0,0.0,0.0,0.0,0.0,0.0,0.0,0.0,-1.2345,-1.2753,-1.3202,-1.342,-1.3502,-1.3821,-1.3899,-1.3736,-1.3272,-1.2888,0.0,0.0,0.0,0.0,0.0,0.0,0.0,0.0,0.0,0.0,0.0,0.0,0.0,0.0,0.0,0.0,0.0,0.0,0.0,0.0,0.0,0.0,0.0,0.0,0.0,0.0,0.0,0.0,-0.4798,-0.4967,-0.5289,0.0,0.0,0.0,0.0,0.0,0.0,0.0,0.0,0.0,0.0,-0.6893,-0.6713,-0.6807,0.0,0.0,-0.6695,-0.674,-0.6342,-0.6175,-0.6102,-0.6195,-0.5825,0.0,0.0,0.0,0.0,0.0,0.0,0.0,0.0,0.0,0.0,0.0,0.0,0.0,0.0,0.0,0.0,0.0,0.0,0.0,0.0,0.0,0.0,0.0,0.0,0.0,0.0,0.0,0.0,0.0,0.0,0.0,0.0,0.0,0.0,0.0,0.0,0.0,0.0,0.0,0.0,0.0,0.0,0.0,0.0,0.0,0.0,0.0,0.0,0.0,0.0,0.0,0.0,-1.2925,-1.326,-1.3782,-1.4064,-1.4113,-1.4425,-1.4523,-1.4334,-1.3861,-1.3427,0.0,0.0,0.0,0.0,0.0,0.0,0.0,0.0,0.0,0.0,0.0,0.0,0.0,0.0,0.0,0.0,0.0,0.0,0.0,0.0,0.0,0.0,0.0,0.0,0.0,0.0,0.0,0.0,-0.5088,-0.5296,-0.5826,0.0,0.0,0.0,0.0,0.0,0.0,0.0,0.0,0.0,0.0,-0.7152,-0.6976,-0.7126,-0.7199,-0.7022,-0.7279,-0.7326,-0.6856,-0.6829,-0.675,-0.6552,0.0,0.0,0.0,0.0,0.0,0.0,0.0,0.0,0.0,0.0,0.0,0.0,0.0,0.0,0.0,0.0,0.0,0.0,0.0,0.0,0.0,0.0,0.0,0.0,0.0,0.0,0.0,0.0,0.0,0.0,-1.0556,0.0,0.0,0.0,0.0,0.0,0.0,0.0,0.0,0.0,0.0,0.0,0.0,0.0,0.0,0.0,0.0,0.0,0.0,0.0,0.0,0.0,0.0,-1.3401,-1.4258,-1.4282,-1.4542,-1.4966,-1.4997,-1.4923,-1.4797,-1.4651,-1.4175,-1.3423,0.0,0.0,0.0,0.0,0.0,0.0,0.0,0.0,0.0,0.0,0.0,0.0,0.0,0.0,0.0,0.0,0.0,0.0,0.0,0.0,0.0,0.0,0.0,0.0,0.0,0.0,-0.6061,-0.5906,-0.5899,0.0,0.0,0.0,0.0,0.0,0.0,0.0,0.0,0.0,0.0,-0.731,-0.7188,-0.7941,-0.7992,-0.798,-0.8016,-0.8435,-0.8495,-0.7747,-0.7794,-0.7664,0.0,0.0,0.0,0.0,0.0,0.0,0.0,0.0,0.0,0.0,0.0,0.0,0.0,0.0,0.0,0.0,0.0,0.0,0.0,0.0,0.0,0.0,0.0,0.0,0.0,0.0,0.0,-1.1763,-1.1644,0.0,0.0,0.0,0.0,0.0,0.0,0.0,0.0,0.0,0.0,0.0,-1.1653,-1.2179,0.0,0.0,0.0,0.0,0.0,0.0,0.0,0.0,0.0,0.0,0.0,0.0,-1.417,-1.4488,-1.4982,-1.5233,-1.527,-1.5577,-1.5675,-1.5517,-1.5124,-1.449,-1.3661,0.0,0.0,0.0,0.0,0.0,0.0,0.0,0.0,0.0,0.0,0.0,0.0,0.0,0.0,0.0,0.0,0.0,0.0,0.0,0.0,0.0,0.0,0.0,0.0,0.0,-0.61,0.0,0.0,0.0,0.0,0.0,0.0,0.0,0.0,0.0,0.0,0.0,-0.7836,-0.7885,-0.8178,-0.8396,-0.8539,-0.8482,-0.8376,0.0,0.0,0.0,0.0,0.0,0.0,0.0,0.0,0.0,0.0,0.0,0.0,0.0,0.0,-0.4982,-0.4329,-0.3841,-0.3461,-0.3207,0.0,0.0,0.0,0.0,0.0,0.0,0.0,0.0,0.0,0.0,0.0,0.0,0.0,0.0,-1.2333,0.0,-1.2291,0.0,0.0,0.0,0.0,0.0,0.0,0.0,0.0,-1.2435,-1.2615,-1.2701,-1.3303,-1.3692,0.0,-1.3947,-1.3398,0.0,0.0,0.0,0.0,0.0,0.0,0.0,0.0,-1.4713,-1.503,-1.551,-1.5708,-1.5741,-1.6038,-1.6124,-1.5951,-1.5359,-1.475,-1.4228,-1.3334,-1.2861,0.0,0.0,0.0,0.0,0.0,0.0,0.0,0.0,0.0,0.0,0.0,0.0,0.0,0.0,0.0,0.0,0.0,0.0,0.0,0.0,0.0,0.0,0.0,-0.6503,0.0,0.0,0.0,0.0,0.0,0.0,0.0,0.0,0.0,-0.7127,-0.7614,-0.7983,-0.8017,-0.851,-0.8982,-0.9124,0.0,0.0,0.0,0.0,0.0,0.0,0.0,-0.8532,-0.8195,-0.7942,-0.7638,-0.713,-0.6776,-0.6508,-0.6348,0.0,0.0,-0.4752,-0.4321,-0.4,-0.3724,-0.35,-0.3364,-0.3318,-0.3361,-0.3429,0.0,0.0,0.0,0.0,0.0,0.0,0.0,0.0,-1.257,-1.2319,0.0,-1.2318,0.0,0.0,0.0,0.0,0.0,-1.2621,0.0,0.0,-1.3621,-1.3957,-1.3809,-1.4324,-1.4595,-1.4563,-1.4536,-1.4521,-1.4466,-1.4082,0.0,0.0,0.0,0.0,0.0,0.0,-1.5067,-1.5855,-1.5796,-1.5929,-1.6353,-1.6363,-1.6316,-1.6104,-1.5405,-1.5018,-1.4998,-1.4385,-1.382,-1.3375,-1.3181,0.0,0.0,0.0,0.0,0.0,0.0,0.0,0.0,0.0,0.0,0.0,0.0,0.0,0.0,0.0,0.0,0.0,0.0,0.0,0.0,-0.7423,0.0,0.0,0.0,0.0,0.0,0.0,0.0,0.0,0.0,0.0,-0.7886,-0.7963,-0.808,-0.833,0.0,0.0,0.0,0.0,-0.9412,-0.9933,-0.9762,-0.9553,-0.9418,-0.9221,-0.8955,-0.8559,0.0,0.0,-0.7568,-0.7444,-0.7239,-0.6887,-0.6496,-0.603,-0.5365,-0.4977,-0.4669,-0.4511,-0.4271,-0.4157,-0.4153,-0.4177,-0.4318,-1.6627,0.0,0.0,0.0,0.0,-1.47,-1.4531,-1.446,-1.444,-1.4339,-1.4183,-1.4272,0.0,0.0,0.0,0.0,0.0,0.0,-1.3979,-1.4264,-1.4543,-1.4765,-1.4901,-1.5098,-1.5324,-1.5622,-1.5287,-1.5227,-1.5342,-1.5216,-1.4844,-1.4198,0.0,0.0,0.0,0.0,-1.5846,-1.6095,-1.6161,-1.6239,-1.6374,-1.6374,-1.6306,-1.6114,-1.5629,-1.5447,-1.5646,-1.4858,-1.4276,-1.395,-1.3585,0.0,0.0,0.0,0.0,0.0,0.0,0.0,0.0,0.0,0.0,0.0,0.0,0.0,0.0,0.0,0.0,0.0,0.0,0.0,-0.7481,-0.7688,-0.7677,0.0,0.0,0.0,0.0,0.0,0.0,0.0,0.0,0.0,-0.8249,-0.8518,-0.8679,0.0,0.0,-0.9993,-1.0265,-0.9999,-0.9811,-1.0009,-0.975,0.0,-0.9531,-0.951,-0.9317,-0.8978,-0.8457,-0.8028,-0.8082,-0.769,-0.74,-0.7208,-0.7035,-0.675,-0.6285,-0.5633,-0.5174,-0.5002,-0.4883,-0.4768,-0.4765,-0.4765,-0.4815,-1.7894,-1.6667,-1.6131,-1.5879,-1.5901,-1.571,-1.5576,-1.5583,-1.5676,-1.5574,-1.5239,-1.5361,-1.5092,-1.4614,-1.4603,0.0,0.0,0.0,-1.477,-1.5265,-1.5404,-1.5572,-1.5706,-1.613,-1.6253,-1.6104,-1.6079,-1.6002,-1.596,-1.5928,-1.5742,-1.5385,0.0,0.0,-1.5563,-1.5947,-1.6166,-1.6202,-1.635,-1.6374,-1.6374,-1.6374,-1.6316,-1.6239,-1.5915,-1.5848,-1.5941,-1.5381,-1.4898,-1.4508,-1.3982,-1.3414,0.0,0.0,0.0,0.0,0.0,0.0,0.0,0.0,0.0,0.0,0.0,-0.9709,0.0,0.0,0.0,0.0,-0.8102,-0.7964,-0.8229,-0.8291,0.0,0.0,0.0,0.0,0.0,0.0,0.0,-0.8351,-0.8265,-0.8322,-0.8714,-0.8991,-0.9118,-0.9141,-0.9825,-1.032,-1.0294,0.0,-0.993,-0.9941,-0.9724,-0.9616,-0.9616,-0.9537,-0.9351,-0.9041,-0.8632,-0.8303,-0.8253,-0.797,-0.7653,-0.7531,-0.7404,-0.7234,-0.6924,-0.6345,-0.5918,-0.573,-0.5514,-0.5453,-0.5453,-0.5393,-0.5393,-1.9073,-1.8532,-1.7687,-1.7258,-1.7121,-1.6611,-1.6419,-1.6535,-1.6477,-1.6234,-1.5785,-1.5813,-1.5583,-1.507,-1.5013,0.0,-1.5801,-1.5268,-1.5362,-1.5866,-1.6291,-1.642,-1.6257,-1.7205,-1.7164,-1.6236,-1.6773,-1.6891,-1.6487,-1.6377,-1.6522,-1.6941,-1.6524,-1.6276,-1.6214,-1.6297,-1.6299,-1.6256,-1.6381,-1.6431,-1.6374,-1.6374,-1.6374,-1.6374,-1.6239,-1.6114,-1.6114,-1.5836,-1.5531,-1.5018,-1.4373,-1.3801,-1.3344,0.0,0.0,0.0,0.0,0.0,0.0,0.0,0.0,0.0,0.0,0.0,0.0,0.0,0.0,0.0,-0.9116,0.0,-0.9183,-0.9098,0.0,0.0,0.0,-0.8312,-0.8062,-0.8336,-0.8512,-0.8564,0.0,0.0,-0.9219,-0.9416,-0.9519,-0.9311,-0.9688,-1.0026,-1.0041,-0.9959,-0.984,-0.9863,-0.9733,-0.9636,-0.9603,-0.9465,-0.9246,-0.8879,-0.877,-0.8613,-0.8355,-0.8221,-0.8042,-0.7842,-0.7657,-0.7451,-0.7265,-0.7046,-0.6841,-0.6555,-0.6302,-0.6172,-0.6128,-0.6079,-0.6022,-2.1058,-2.0279,-2.0084,-1.9068,-1.757,-1.7405,-1.7366,-1.7398,-1.7348,-1.7345,-1.7207,-1.7202,-1.6978,-1.649,-1.6198,-1.629,-1.6712,-1.655,-1.6753,-1.7243,-1.7357,-1.7348,-1.7358,-1.7575,-1.7554,-1.7358,-1.7451,-1.7512,-1.7409,-1.7355,-1.7406,-1.7503,-1.7384,-1.7309,-1.7233,-1.7279,-1.7126,-1.6849,-1.6845,-1.6694,-1.6431,-1.6374,-1.6374,-1.6374,-1.6374,-1.6316,-1.6306,-1.6134,-1.5739,-1.525,-1.4663,-1.4012,-1.3326,-1.2648,0.0,0.0,0.0,0.0,0.0,0.0,0.0,0.0,0.0,-1.0794,-1.0266,0.0,-1.0276,0.0,-0.9848,-0.9614,-0.9228,-0.9072,0.0,0.0,-0.827,-0.8316,-0.8442,-0.8645,-0.8849,-0.9199,-0.9525,-0.9685,-0.9716,-0.9925,-0.9976,-0.9816,-1.0133,-1.0393,-1.0387,-1.0283,-1.0147,-0.9973,-0.982,-0.9725,-0.9593,-0.9397,-0.9197,-0.9005,-0.8894,-0.87,-0.8441,-0.8306,-0.8166,-0.8107,-0.7982,-0.7792,-0.7596,-0.7531,-0.7442,-0.7274,-0.6934,-0.6681,-0.6741,-0.6673,-0.6677,-2.1914,-2.1213,-2.1005,-2.0193,-1.9072,-1.8743,-1.8649,-1.8765,-1.8458,-1.8279,-1.8197,-1.7823,-1.7698,-1.7605,-1.7181,-1.7222,-1.7616,-1.744,-1.742,-1.774,-1.7926,-1.7916,-1.7688,-1.8133,-1.8123,-1.7678,-1.7926,-1.7916,-1.7678,-1.7678,-1.7811,-1.7983,-1.7994,-1.8109,-1.8243,-1.7834,-1.7501,-1.7335,-1.7112,-1.6797,-1.6431,-1.6374,-1.6337,-1.6287,-1.6332,-1.6282,-1.6245,-1.6115,-1.5836,-1.5466,-1.4977,-1.4355,-1.3641,-1.3263,-1.2956,0.0,0.0,0.0,0.0,0.0,0.0,0.0,0.0,0.0,0.0,0.0,-1.0507,-1.0105,-1.0066,-0.997,-0.9644,-0.9528,-0.9358,-0.9112,-0.9051,-0.9097,-0.9289,-0.9408,-0.9517,-0.9797,-0.9893,-1.0002,-1.0186,-1.0168,-1.022,-1.0305,-1.0458,-1.0495,-1.0322,-1.0275,-1.0246,-1.0004,-0.9951,-0.9798,-0.9676,-0.9478,-0.9344,-0.9145,-0.9017,-0.8829,-0.8646,-0.8441,-0.8306,-0.8236,-0.8107,-0.8047,-0.7857,-0.7862,-0.7792,-0.7596,-0.74,-0.7204,-0.7073,-0.6946,-0.6946,-2.2286,-2.1812,-2.1349,-2.1118,-2.0962,-2.0138,-1.9857,-2.0042,-1.9592,-1.927,-1.9116,-1.8354,-1.8239,-1.8508,-1.8134,-1.8112,-1.8433,-1.8081,-1.7905,-1.7926,-1.8288,-1.8268,-1.7947,-1.8702,-1.8661,-1.7947,-1.8288,-1.8278,-1.7905,-1.7905,-1.8071,-1.8499,-1.852,-1.868,-1.9016,-1.8264,-1.779,-1.7722,-1.7224,-1.6853,-1.6477,-1.6482,-1.6409,-1.6267,-1.6245,-1.6166,-1.6131,-1.5968,-1.5815,-1.5742,-1.5235,-1.4715,-1.4121,-1.4034,-1.374,0.0,-1.3345,0.0,0.0,0.0,0.0,0.0,0.0,0.0,0.0,-1.1008,-1.0507,-1.008,-1.0221,-1.0268,-1.0259,-1.0212,-1.022,-1.0177,-1.0217,-1.0187,-1.0179,-1.0235,-1.0256,-1.0263,-1.0175,-1.0241,-1.0611,-1.041,-1.0404,-1.0759,-1.0724,-1.0501,-1.0218,-1.0281,-1.0281,-1.0053,-0.9989,-0.9926,-0.9804,-0.9612,-0.9478,-0.9338,-0.9145,-0.8952,-0.8835,-0.8641,-0.8511,-0.8301,-0.8236,-0.8177,-0.8047,-0.8052,-0.7987,-0.7792,-0.7727,-0.7536,-0.7335,-0.7138,-0.7077,-2.3538,-2.3037,-2.2537,-2.2105,-2.1629,-2.0794,-2.0313,-2.0129,-2.0411,-2.053,-2.0488,-1.9922,-1.9576,-1.9336,-1.9251,-1.9131,-1.893,-1.8858,-1.8806,-1.8816,-1.8899,-1.8899,-1.8827,-1.8992,-1.8982,-1.8827,-1.8909,-1.8899,-1.8816,-1.8816,-1.8877,-1.8977,-1.8977,-1.8951,-1.8978,0.0,0.0,0.0,-1.7234,-1.6955,-1.6888,-1.6852,-1.6815,-1.6769,-1.6339,0.0,-1.6109,-1.5968,-1.5877,-1.5855,-1.5295,0.0,0.0,0.0,0.0,0.0,0.0,0.0,0.0,0.0,0.0,0.0,-1.2619,-1.2357,-1.2529,-1.1956,-1.1343,-1.0807,-1.0851,-1.0905,-1.0853,-1.0977,-1.0981,-1.0781,-1.0748,-1.0576,-1.0257,-1.0359,-1.0506,-1.0513,-1.0845,-1.1015,-1.1002,-1.103,-1.1044,-1.1045,-1.087,-1.0744,-1.0674,-1.0561,-1.0434,-1.0238,-1.0047,-0.9868,-0.9804,-0.9612,-0.9478,-0.9338,-0.9274,-0.9145,-0.8899,-0.877,-0.8705,-0.8506,-0.8447,-0.8376,-0.8172,-0.8172,-0.8112,-0.7987,-0.7792,-0.7666,-0.7461,-0.7391,-0.7396,-2.4195,0.0,-2.3064,-2.2673,0.0,-2.1661,-2.1282,-2.1341,-2.0776,-2.062,-2.0928,-2.0895,-2.0563,-2.0023,-2.0012,-1.9684,-1.9085,-1.938,-1.9292,-1.9085,-1.9303,-1.9292,-1.9131,-1.9131,-1.9131,-1.9131,-1.9131,-1.9131,-1.9131,-1.9131,-1.9093,-1.9124,-1.9124,-1.9051,-1.9061,-1.8824,-1.8354,-1.7709,-1.747,-1.7145,-1.6751,-1.6674,-1.6645,-1.6567,-1.6273,0.0,0.0,0.0,0.0,0.0,0.0,0.0,0.0,0.0,0.0,-1.3609,-1.3677,-1.367,-1.3529,-1.3352,-1.3418,-1.3752,-1.3493,-1.3148,-1.2752,-1.2159,-1.1681,-1.1361,-1.1397,-1.142,-1.1319,-1.1392,-1.1404,-1.1272,-1.1244,-1.1122,-1.0936,-1.0974,-1.1067,-1.1081,-1.121,-1.131,-1.1373,-1.124,-1.1247,-1.1185,-1.1059,-1.0933,-1.0933,-1.0744,-1.0555,-1.0434,-1.0117,-0.9926,-0.9868,-0.9798,-0.9612,-0.9408,-0.9338,-0.921,-0.9087,-0.8894,-0.877,-0.8646,-0.8582,-0.8447,-0.8376,-0.8371,-0.8306,-0.8112,-0.7982,-0.7922,-0.7787,-0.7657,-0.7661,-2.4574,-2.4409,-2.3341,-2.3052,-2.3303,-2.2444,-2.2294,-2.2616,0.0,0.0,0.0,-2.1625,-2.141,-2.0708,-2.0543,-2.0094,-1.9354,-1.9661,-1.9578,-1.9096,-1.9551,-1.963,-1.9266,-1.9256,-1.9199,-1.9189,-1.9189,-1.9147,-1.9131,-1.9131,-1.9131,-1.9131,-1.9142,-1.9142,-1.911,-1.8757,-1.8281,-1.7835,-1.775,-1.7376,-1.667,-1.656,-1.6443,-1.631,-1.6224,-1.6144,-1.612,-1.6098,-1.6058,-1.5906,-1.5917,-1.5571,-1.4906,-1.5039,-1.4873,-1.4266,-1.4445,-1.4547,-1.4354,-1.4363,-1.4327,-1.425,-1.4218,-1.3793,-1.2734,-1.2307,-1.2032,-1.1927,-1.1954,-1.193,-1.1825,-1.189,-1.1863,-1.1794,-1.1765,-1.1752,-1.164,-1.1622,-1.1545,-1.156,-1.1428,-1.1428,-1.156,-1.1373,-1.1185,-1.1303,-1.1247,-1.1122,-1.1059,-1.0807,-1.0618,-1.0561,-1.0308,-1.0047,-1.0047,-0.9932,-0.974,-0.9612,-0.9408,-0.9338,-0.9274,-0.9087,-0.8894,-0.8835,-0.8705,-0.8582,-0.8517,-0.8517,-0.8447,-0.8306,-0.8236,-0.8177,-0.8112,-0.7922,-0.7857,-2.4646,-2.4443,-2.3839,-2.3502,-2.3315,-2.2811,-2.2604,-2.2673,-2.2445,-2.2617,-2.2992,-2.2685,-2.2298,-2.1876,-2.1182,-2.0614,-2.0201,-1.9933,-1.951,-1.9162,-1.9619,-1.9796,-1.9665,-1.9734,-1.9734,-1.9734,-1.9723,-1.9458,-1.9106,-1.9075,-1.9131,-1.9142,-1.9208,-1.9285,-1.9274,-1.9069,-1.8778,-1.8322,-1.7903,-1.7642,-1.7509,-1.7038,-1.6846,-1.6769,-1.6339,-1.6125,-1.6098,-1.6109,-1.6098,-1.6058,-1.5968,-1.575,-1.5421,-1.5233,-1.4814,-1.4165,-1.4045,-1.3988,-1.3987,-1.3673,-1.3599,-1.3919,-1.3965,-1.3759,-1.3322,-1.3086,-1.2867,-1.256,-1.2527,-1.2646,-1.2796,-1.2941,-1.2816,-1.2448,-1.2342,-1.2189,-1.1685,-1.1622,-1.1622,-1.1622,-1.1553,-1.156,-1.156,-1.156,-1.1498,-1.156,-1.1373,-1.1185,-1.0933,-1.0807,-1.0744,-1.0624,-1.0434,-1.0301,-1.0174,-0.9989,-0.9798,-0.9734,-0.9612,-0.9408,-0.9338,-0.9268,-0.9145,-0.9017,-0.8835,-0.8776,-0.8776,-0.8641,-0.8511,-0.8441,-0.8371,-0.8242,-0.8382,-0.8247,-0.8107,-2.4921,-2.4696,-2.405,-2.3804,-2.3976,-2.3674,-2.3511,-2.35,-2.35,-2.3477,-2.3372,-2.3477,-2.314,-2.2587,-2.2154,-2.1611,-2.1025,-2.1015,-2.0667,-2.0197,-2.0498,-2.05,-2.0131,-2.012,-2.012,-2.011,-1.9862,-1.9655,-1.9505,-1.9199,-1.9131,-1.9131,-1.9142,-1.9218,-1.9274,-1.9142,-1.9038,-1.8874,-1.8123,-1.7585,-1.7322,-1.6896,-1.6643,-1.6643,-1.6374,-1.6277,-1.6267,-1.6277,-1.6213,-1.6093,-1.6006,-1.5759,-1.5485,-1.5241,-1.4965,-1.4619,-1.4445,-1.432,-1.432,-1.4105,-1.4038,-1.4203,-1.4231,-1.4163,-1.397,-1.3558,-1.3278,-1.3229,-1.3286,-1.3262,-1.3271,-1.3434,-1.3354,-1.2858,-1.2613,-1.2305,-1.1941,-1.1685,-1.1622,-1.1622,-1.1685,-1.1685,-1.1622,-1.1747,-1.1809,-1.1622,-1.1498,-1.1303,-1.0996,-1.0926,-1.087,-1.0618,-1.0434,-1.0308,-1.0308,-1.018,-0.9989,-0.9804,-0.974,-0.9612,-0.9408,-0.9338,-0.9274,-0.921,-0.9017,-0.8894,-0.8894,-0.8835,-0.877,-0.8641,-0.8571,-0.8576,-0.8511,-0.8441,-0.8312,-2.5111,-2.4992,-2.4319,-2.4178,-2.449,-2.4273,-2.4189,-2.4189,-2.4189,-2.3982,-2.3707,-2.4028,-2.3826,-2.3176,-2.2981,-2.2499,-2.1941,-2.1962,-2.165,-2.1133,-2.1322,-2.1136,-2.0679,-2.0576,-2.0586,-2.0524,-2.0131,-1.9851,-1.9717,-1.936,-1.9142,-1.9142,-1.9142,-1.9131,-1.9274,-1.9142,-1.9142,-1.9166,-1.8352,-1.7657,-1.7152,-1.6757,-1.6487,-1.6374,-1.6363,-1.6374,-1.6374,-1.6374,-1.6306,-1.6114,-1.5972,-1.5788,-1.5488,-1.5313,-1.5156,-1.5029,-1.4843,-1.4715,-1.4666,-1.4556,-1.4497,-1.4506,-1.4515,-1.4515,-1.4428,-1.3929,-1.3632,-1.3837,-1.3743,-1.3631,-1.3563,-1.3631,-1.3528,-1.3042,-1.2744,-1.249,-1.2182,-1.1872,-1.1685,-1.1747,-1.1809,-1.1809,-1.1809,-1.1996,-1.1996,-1.1809,-1.1622,-1.1435,-1.1185,-1.1122,-1.0996,-1.0744,-1.0498,-1.0371,-1.0364,-1.0301,-1.018,-0.9926,-0.9868,-0.9798,-0.967,-0.9536,-0.9408,-0.9408,-0.921,-0.9081,-0.9081,-0.9017,-0.8958,-0.8835,-0.8829,-0.8765,-0.8641,-0.8517,-0.8447,-2.5253,-2.5111,-2.4969,-2.4791,-2.449,-2.4273,-2.4189,-2.4189,-2.4189,-2.4177,-2.4108,-2.4177,-2.4166,-2.399,-2.3281,-2.2913,-2.2715,-2.2258,-2.1743,-2.1388,-2.1333,-2.1376,-2.1272,-2.1125,-2.1052,-2.099,-2.0586,-2.0172,-1.99,-1.9323,-1.9152,-1.9208,-1.9142,-1.9208,-1.9285,-1.9208,-1.9131,-1.9131,-1.8643,-1.8112,-1.7678,-1.7162,-1.6788,-1.6384,-1.6384,-1.6374,-1.6374,-1.6374,-1.6306,-1.6114,-1.5972,-1.5856,-1.5672,-1.5391,-1.5215,-1.5156,-1.4902,-1.4666,-1.4565,-1.4616,-1.4606,-1.4515,-1.4515,-1.4515,-1.4515,-1.43,-1.4154,-1.401,-1.37,-1.3571,-1.3511,-1.3571,-1.3398,-1.3111,-1.2867,-1.2674,-1.2367,-1.212,-1.2058,-1.2065,-1.2058,-1.212,-1.2182,-1.2243,-1.2189,-1.1996,-1.1622,-1.1373,-1.1247,-1.1178,-1.1059,-1.0807,-1.0688,-1.0561,-1.0555,-1.0434,-1.0308,-1.0244,-1.0117,-0.9983,-0.9919,-0.9798,-0.9734,-0.967,-0.9472,-0.9338,-0.9274,-0.9145,-0.9017,-0.9022,-0.8952,-0.8952,-0.8765,-0.8641,-0.8511,-2.5241,-2.5182,-2.5123,-2.4838,-2.449,-2.4418,-2.4345,-2.4189,-2.4189,-2.4189,-2.4189,-2.4189,-2.4189,-2.4189,-2.3815,-2.3663,-2.3663,-2.3301,-2.29,-2.2506,-2.2461,-2.2412,-2.2179,-2.1966,-2.1892,-2.1775,-2.1125,-2.0741,-2.0462,-1.9831,-1.9547,-1.9573,-1.9287,-1.9142,-1.9274,-1.9142,-1.9142,-1.9208,-1.8955,-1.8568,-1.8123,-1.7678,-1.7172,-1.6829,-1.6767,-1.6632,-1.6415,-1.6249,-1.6124,-1.5961,-1.5856,-1.574,-1.5546,-1.5371,-1.5313,-1.5313,-1.502,-1.4734,-1.4515,-1.4556,-1.4556,-1.4515,-1.4515,-1.4515,-1.4515,-1.4387,-1.4267,-1.4148,-1.395,-1.3821,-1.3761,-1.37,-1.364,-1.3467,-1.3164,-1.2805,-1.2621,-1.2375,-1.2182,-1.212,-1.2182,-1.2243,-1.2243,-1.2243,-1.212,-1.1934,-1.1622,-1.1435,-1.1247,-1.1185,-1.1115,-1.087,-1.0744,-1.0688,-1.0618,-1.0561,-1.0434,-1.0308,-1.0244,-1.0174,-1.0047,-0.9989,-0.9926,-0.9926,-0.9728,-0.96,-0.9606,-0.9408,-0.928,-0.9215,-0.9017,-0.8958,-0.8894,-0.877,-0.8711,-2.5312,-2.5241,-2.5182,-2.4909,-2.4622,-2.4634,-2.449,-2.4273,-2.4345,-2.4357,-2.4273,-2.4273,-2.4273,-2.4261,-2.42,-2.4189,-2.42,-2.397,-2.3751,-2.3457,-2.3372,-2.315,-2.2852,-2.2553,-2.2392,-2.2253,-2.147,-2.1041,-2.0855,-2.0162,-1.9827,-1.9754,-1.937,-1.9142,-1.9208,-1.9142,-1.9142,-1.9208,-1.9131,-1.8909,-1.8557,-1.8133,-1.7636,-1.7038,-1.6922,-1.6694,-1.6405,-1.6239,-1.6077,-1.5914,-1.5898,-1.5841,-1.5596,-1.5703,-1.5653,-1.5487,-1.531,-1.5025,-1.4575,-1.4565,-1.4565,-1.4515,-1.4515,-1.4515,-1.4515,-1.4387,-1.4336,-1.4336,-1.4198,-1.4079,-1.401,-1.389,-1.383,-1.383,-1.3407,-1.3042,-1.2972,-1.2666,-1.2428,-1.2375,-1.249,-1.249,-1.249,-1.2305,-1.2058,-1.205,-1.1747,-1.1498,-1.131,-1.1247,-1.1178,-1.0933,-1.087,-1.0807,-1.0688,-1.0624,-1.0498,-1.0434,-1.0371,-1.0308,-1.0174,-1.018,-1.0117,-1.0117,-0.9932,-0.9804,-0.974,-0.9606,-0.9478,-0.9344,-0.9215,-0.9087,-0.9081,-0.8958,-0.8899,-2.5312,-2.53,-2.517,-2.5123,-2.5052,-2.4861,-2.4634,-2.449,-2.4646,-2.4646,-2.4502,-2.449,-2.4502,-2.449,-2.4273,-2.4189,-2.42,-2.397,-2.3897,-2.3824,-2.3519,-2.3298,-2.3224,-2.2703,-2.2402,-2.2446,-2.1607,-2.0959,-2.0534,-2.0038,-1.9827,-1.9817,-1.9401,-1.9152,-1.9131,-1.9131,-1.9131,-1.9142,-1.9131,-1.911,-1.8961,-1.8557,-1.7885,-1.708,-1.6653,-1.6446,-1.6384,-1.6384,-1.6222,-1.5924,-1.6237,-1.6317,-1.6115,-1.6387,-1.6315,-1.5811,-1.5773,-1.5419,-1.4771,-1.4656,-1.4597,-1.4515,-1.4515,-1.4515,-1.4515,-1.4455,-1.4455,-1.4455,-1.4327,-1.4207,-1.407,-1.401,-1.401,-1.395,-1.358,-1.3398,-1.345,-1.3042,-1.2858,-1.2858,-1.292,-1.2928,-1.3119,-1.256,-1.2243,-1.2174,-1.174,-1.1365,-1.1498,-1.1373,-1.1247,-1.1122,-1.1059,-1.0996,-1.08,-1.0681,-1.0624,-1.0555,-1.0498,-1.0561,-1.0498,-1.0434,-1.0371,-1.0244,-1.0053,-0.9868,-0.9804,-0.9676,-0.9548,-0.9478,-0.9344,-0.9274,-0.928,-0.9145,-0.9017,-2.5606,-2.5688,-2.5465,-2.5324,-2.5253,-2.5052,-2.4766,-2.449,-2.4574,-2.4502,-2.4345,-2.4429,-2.4418,-2.4273,-2.4357,-2.4345,-2.42,-2.4116,-2.4043,-2.3897,-2.3897,-2.3824,-2.3666,-2.3086,-2.2927,-2.2968,-2.2083,-2.1616,-2.1576,-2.099,-2.0615,-2.0422,-1.9865,-1.9443,-1.9193,-1.9131,-1.9131,-1.9131,-1.9131,-1.9131,-1.9069,-1.835,-1.7792,-1.743,-1.6987,-1.6663,-1.6394,-1.6585,-1.6622,-1.6504,-1.6417,-1.6317,-1.6236,-1.6007,-1.572,-1.5456,-1.5317,-1.5122,-1.4734,-1.4616,-1.4565,-1.4515,-1.4515,-1.4515,-1.4515,-1.4515,-1.4515,-1.4515,-1.4455,-1.4387,-1.4318,-1.4139,-1.4079,-1.4139,-1.395,-1.364,-1.3519,-1.3338,-1.3155,-1.3042,-1.3111,-1.305,-1.2805,-1.249,-1.2243,-1.1934,-1.1677,-1.1498,-1.1435,-1.1435,-1.1435,-1.131,-1.1247,-1.1185,-1.1003,-1.0744,-1.0618,-1.0618,-1.0561,-1.0561,-1.0561,-1.0561,-1.0428,-1.0434,-1.0244,-1.0053,-0.9989,-0.9804,-0.967,-0.9548,-0.9472,-0.9472,-0.9408,-0.9344,-0.9274,-2.5688,-2.5758,-2.5606,-2.5453,-2.5312,-2.517,-2.4969,-2.4706,-2.4766,-2.4622,-2.4502,-2.4562,-2.449,-2.4345,-2.4345,-2.4345,-2.42,-2.4189,-2.4116,-2.3982,-2.4127,-2.4116,-2.397,-2.3446,-2.3298,-2.3224,-2.2327,-2.1949,-2.2113,-2.148,-2.1094,-2.0997,-2.0198,-1.9682,-1.9323,-1.9158,-1.9131,-1.9131,-1.9131,-1.9131,-1.8982,-1.833,-1.7874,-1.7688,-1.7284,-1.6829,-1.6405,-1.6605,-1.6642,-1.6583,-1.6467,-1.6497,-1.6465,-1.6066,-1.5722,-1.5486,-1.5358,-1.5103,-1.4803,-1.4675,-1.4565,-1.4515,-1.4515,-1.4515,-1.4515,-1.4515,-1.4515,-1.4515,-1.4515,-1.4515,-1.4455,-1.4258,-1.4198,-1.4327,-1.4139,-1.3941,-1.37,-1.3571,-1.339,-1.3224,-1.3172,-1.2981,-1.2728,-1.2544,-1.2305,-1.1926,-1.1747,-1.156,-1.1435,-1.149,-1.149,-1.1373,-1.1303,-1.1247,-1.1122,-1.094,-1.0681,-1.0681,-1.0618,-1.0618,-1.0618,-1.0618,-1.0561,-1.0561,-1.0498,-1.0308,-1.018,-0.9989,-0.9862,-0.967,-0.967,-0.9734,-0.9606,-0.9542,-0.9472,-2.5606,-2.5606,-2.537,-2.5382,-2.5312,-2.53,-2.5253,-2.5123,-2.5182,-2.5052,-2.4706,-2.4801,-2.4634,-2.4502,-2.4345,-2.42,-2.4189,-2.4189,-2.42,-2.42,-2.42,-2.4189,-2.4116,-2.3751,-2.3298,-2.2916,-2.2176,-2.1883,-2.1852,-2.1393,-2.1145,-2.1011,-2.0294,-1.9799,-1.9806,-1.9292,-1.9131,-1.9131,-1.9131,-1.9131,-1.9079,-1.8578,-1.8123,-1.774,-1.7224,-1.6839,-1.6394,-1.6436,-1.643,-1.6257,-1.6583,-1.682,-1.6815,-1.6628,-1.6436,-1.6016,-1.5824,-1.553,-1.5027,-1.4843,-1.4675,-1.4565,-1.4515,-1.4506,-1.4506,-1.4515,-1.4515,-1.4515,-1.4515,-1.4515,-1.4515,-1.4455,-1.4446,-1.4455,-1.4258,-1.4079,-1.395,-1.37,-1.3511,-1.3459,-1.3277,-1.3155,-1.3208,-1.285,-1.2428,-1.2359,-1.205,-1.1809,-1.163,-1.1622,-1.149,-1.1365,-1.1365,-1.1303,-1.1185,-1.1066,-1.087,-1.0744,-1.0681,-1.0618,-1.0618,-1.0618,-1.0618,-1.0561,-1.0498,-1.0371,-1.0244,-1.0053,-0.9983,-0.9919,-0.9926,-0.9926,-0.9798,-0.9734,-0.9612,-2.5992,-2.598,-2.577,-2.5606,-2.5535,-2.5382,-2.5253,-2.5123,-2.5111,-2.4909,-2.4634,-2.4718,-2.4574,-2.4345,-2.4345,-2.4345,-2.4189,-2.4189,-2.42,-2.42,-2.4189,-2.4189,-2.4043,-2.3604,-2.3001,-2.2478,-2.2252,-2.2176,-2.2155,-2.1803,-2.152,-2.1345,-2.0667,-2.0069,-1.9758,-1.937,-1.9131,-1.9131,-1.9131,-1.9131,-1.9034,-1.862,-1.8175,-1.774,-1.7224,-1.6839,-1.6436,-1.6674,-1.676,-1.6563,-1.6646,-1.6417,-1.6049,-1.5959,-1.589,-1.5644,-1.5448,-1.5369,-1.5195,-1.5029,-1.4911,-1.4862,-1.4725,-1.4656,-1.4606,-1.4556,-1.4515,-1.4515,-1.4515,-1.4515,-1.4515,-1.4515,-1.4515,-1.4515,-1.4387,-1.4267,-1.4207,-1.389,-1.37,-1.3511,-1.339,-1.3338,-1.3155,-1.2858,-1.2736,-1.249,-1.2236,-1.1996,-1.1934,-1.1747,-1.1622,-1.1498,-1.1498,-1.1428,-1.131,-1.1247,-1.1122,-1.0933,-1.0807,-1.0681,-1.0618,-1.0618,-1.0618,-1.0555,-1.0498,-1.0434,-1.0308,-1.018,-1.0174,-1.0047,-1.0053,-0.9989,-0.9926,-0.9862,-0.9804,-2.6201,-2.6131,-2.5992,-2.584,-2.5688,-2.5535,-2.5394,-2.5253,-2.5182,-2.4981,-2.4778,-2.4706,-2.4562,-2.4345,-2.4345,-2.4345,-2.42,-2.4043,-2.397,-2.3982,-2.397,-2.3897,-2.3666,-2.3224,-2.2777,-2.2413,-2.2176,-2.2176,-2.2176,-2.1949,-2.1814,-2.1628,-2.0886,-2.0296,-1.9955,-1.9396,-1.9131,-1.9131,-1.9131,-1.9131,-1.9079,-1.8851,-1.835,-1.7812,-1.7605,-1.715,-1.6519,-1.6808,-1.6835,-1.6583,-1.6365,-1.5989,-1.5576,-1.5566,-1.5546,-1.542,-1.5313,-1.5264,-1.5215,-1.5147,-1.5029,-1.497,-1.4911,-1.4843,-1.4784,-1.4675,-1.4625,-1.4684,-1.4575,-1.4506,-1.4556,-1.4515,-1.4515,-1.4515,-1.4515,-1.4455,-1.4276,-1.4079,-1.383,-1.37,-1.364,-1.3459,-1.3277,-1.3111,-1.2981,-1.2736,-1.249,-1.2305,-1.2243,-1.1996,-1.1872,-1.1747,-1.1622,-1.156,-1.1435,-1.1373,-1.1373,-1.1122,-1.0933,-1.0807,-1.0681,-1.0618,-1.0618,-1.0618,-1.0561,-1.0561,-1.0434,-1.0428,-1.0364,-1.0244,-1.018,-1.018,-1.018,-0.9989,-0.9868,-2.6213,-2.6213,-2.5992,-2.591,-2.5828,-2.5676,-2.5535,-2.5535,-2.5253,-2.5123,-2.4981,-2.4778,-2.4562,-2.449,-2.4345,-2.42,-2.4116,-2.3751,-2.3604,-2.353,-2.353,-2.3298,-2.3065,-2.2692,-2.2553,-2.2478,-2.2035,-2.1807,-2.1883,-2.1807,-2.1807,-2.1673,-2.0876,-2.041,-2.0193,-1.952,-1.9131,-1.9131,-1.9131,-1.9131,-1.9131,-1.9044,-1.8661,-1.7864,-1.8019,-1.7647,-1.6736,-1.6708,-1.665,-1.6138,-1.5896,-1.5722,-1.5614,-1.5478,-1.542,-1.541,-1.542,-1.5371,-1.5264,-1.5205,-1.5156,-1.5088,-1.5029,-1.5039,-1.497,-1.4852,-1.4784,-1.4911,-1.4743,-1.4556,-1.4666,-1.4616,-1.4515,-1.4515,-1.4515,-1.4446,-1.4267,-1.4079,-1.3916,-1.383,-1.3813,-1.3752,-1.3544,-1.343,-1.3291,-1.305,-1.2858,-1.2674,-1.249,-1.2251,-1.2127,-1.1941,-1.1747,-1.1622,-1.1498,-1.1498,-1.1435,-1.1373,-1.1122,-1.0996,-1.0807,-1.0744,-1.0618,-1.0618,-1.0618,-1.0618,-1.0555,-1.0555,-1.0555,-1.0491,-1.0434,-1.0498,-1.0371,-1.018,-0.9989,-2.6327,-2.6213,-2.6131,-2.598,-2.5676,-2.5618,-2.5523,-2.5382,-2.5324,-2.5182,-2.504,-2.4981,-2.4838,-2.4706,-2.4334,-2.4189,-2.4043,-2.3593,-2.315,-2.2938,-2.2777,-2.2777,-2.2703,-2.2553,-2.2327,-2.2252,-2.1949,-2.1807,-2.1807,-2.1776,-2.1787,-2.1766,-2.0855,-2.04,-2.0276,-1.951,-1.9096,-1.9131,-1.9131,-1.9131,-1.9131,-1.9131,-1.8796,-1.8288,-1.803,-1.7585,-1.6842,-1.6516,-1.6277,-1.5982,-1.5788,-1.5614,-1.5536,-1.5536,-1.5536,-1.541,-1.541,-1.541,-1.5362,-1.5362,-1.5303,-1.5313,-1.5205,-1.5147,-1.5156,-1.5039,-1.497,-1.498,-1.4911,-1.4784,-1.4715,-1.4656,-1.4616,-1.4515,-1.4515,-1.4387,-1.4139,-1.4019,-1.3986,-1.4003,-1.4055,-1.4001,-1.3913,-1.3834,-1.3687,-1.3405,-1.3155,-1.292,-1.2744,-1.2436,-1.2189,-1.1934,-1.1747,-1.1622,-1.156,-1.156,-1.156,-1.1498,-1.1373,-1.1178,-1.0989,-1.087,-1.0807,-1.0737,-1.0681,-1.0618,-1.0618,-1.0555,-1.0555,-1.0618,-1.0555,-1.0561,-1.0498,-1.0364,-1.0174,-2.6465,-2.6327,-2.6339,-2.6119,-2.584,-2.577,-2.5606,-2.5394,-2.5241,-2.5253,-2.5182,-2.5052,-2.4921,-2.4861,-2.449,-2.4273,-2.4127,-2.3593,-2.3075,-2.2703,-2.2327,-2.2252,-2.2327,-2.2252,-2.2111,-2.2101,-2.1873,-2.1807,-2.1766,-2.1621,-2.1528,-2.1331,-2.0596,-2.0162,-2.0079,-1.9479,-1.9131,-1.9131,-1.9131,-1.9131,-1.9131,-1.9131,-1.8682,-1.8288,-1.7978,-1.7729,-1.7038,-1.6417,-1.6066,-1.5904,-1.5798,-1.5614,-1.541,-1.5488,-1.5546,-1.542,-1.542,-1.542,-1.542,-1.542,-1.542,-1.541,-1.5313,-1.5313,-1.5254,-1.5147,-1.5088,-1.5205,-1.5088,-1.497,-1.4902,-1.4843,-1.4725,-1.4616,-1.4556,-1.4437,-1.4148,-1.4291,-1.4276,-1.4247,-1.4285,-1.4311,-1.4136,-1.4101,-1.3896,-1.357,-1.3329,-1.3155,-1.2989,-1.2621,-1.2313,-1.2058,-1.1872,-1.1809,-1.1747,-1.1747,-1.1685,-1.1622,-1.1498,-1.1303,-1.1178,-1.1059,-1.0996,-1.087,-1.0744,-1.0681,-1.0681,-1.0618,-1.0618,-1.0618,-1.0618,-1.0555,-1.0555,-1.0491,-1.0301,-2.6521,-2.6521,-2.6521,-2.6408,-2.6201,-2.5992,-2.5828,-2.5535,-2.5324,-2.5253,-2.5253,-2.4992,-2.4992,-2.5052,-2.4562,-2.4334,-2.4055,-2.3457,-2.3001,-2.2553,-2.2166,-2.2004,-2.1964,-2.1928,-2.1949,-2.2014,-2.1842,-2.1694,-2.1559,-2.1248,-2.1062,-2.0866,-2.0182,-1.9889,-1.9817,-1.938,-1.9162,-1.9131,-1.9131,-1.9131,-1.9131,-1.911,-1.8702,-1.8112,-1.7936,-1.7709,-1.7049,-1.6437,-1.6077,-1.5904,-1.5788,-1.5672,-1.5478,-1.5478,-1.542,-1.542,-1.542,-1.542,-1.542,-1.542,-1.542,-1.541,-1.541,-1.542,-1.5362,-1.5254,-1.5254,-1.5362,-1.5137,-1.5088,-1.5098,-1.5088,-1.4911,-1.4784,-1.4715,-1.4606,-1.445,-1.4601,-1.4658,-1.4423,-1.4737,-1.469,-1.4354,-1.4119,-1.4007,-1.3596,-1.339,-1.3224,-1.305,-1.2744,-1.2498,-1.2367,-1.2182,-1.1996,-1.1934,-1.1872,-1.174,-1.1685,-1.1622,-1.1498,-1.131,-1.1185,-1.1122,-1.1059,-1.0933,-1.0807,-1.0744,-1.0744,-1.0618,-1.0618,-1.0618,-1.0618,-1.0555,-1.0498,-1.0371,-2.6521,-2.6521,-2.6521,-2.6396,-2.6213,-2.6131,-2.5898,-2.5606,-2.5548,-2.5394,-2.5312,-2.5241,-2.5052,-2.4849,-2.4418,-2.397,-2.3519,-2.3054,-2.2628,-2.2252,-2.2176,-2.172,-2.152,-2.1621,-2.1776,-2.1759,-2.1404,-2.128,-2.1155,-2.0834,-2.0565,-2.0472,-2.0038,-1.9817,-1.9734,-1.936,-1.9131,-1.9131,-1.9131,-1.9131,-1.9131,-1.9121,-1.8785,-1.8185,-1.7678,-1.7284,-1.7036,-1.6612,-1.6259,-1.6066,-1.5961,-1.5798,-1.5672,-1.5614,-1.5546,-1.5478,-1.542,-1.542,-1.542,-1.542,-1.542,-1.542,-1.542,-1.542,-1.542,-1.5362,-1.5362,-1.542,-1.5362,-1.5245,-1.5205,-1.5088,-1.5029,-1.4961,-1.4902,-1.4843,-1.4721,-1.4793,-1.4809,-1.4857,-1.505,-1.5158,-1.4655,-1.4543,-1.4196,-1.3682,-1.3398,-1.3294,-1.305,-1.2813,-1.2683,-1.2498,-1.2375,-1.2182,-1.2058,-1.1996,-1.1872,-1.1809,-1.1747,-1.1622,-1.1498,-1.1373,-1.131,-1.1247,-1.1122,-1.0996,-1.0926,-1.0807,-1.0744,-1.0681,-1.0618,-1.0618,-1.0618,-1.0498,-1.0498,-2.6452,-2.6327,-2.6327,-2.6188,-2.591,-2.591,-2.5758,-2.5535,-2.5453,-2.5382,-2.5241,-2.5182,-2.4981,-2.4729,-2.42,-2.3751,-2.3305,-2.2613,-2.22,-2.1985,-2.1837,-2.1416,-2.128,-2.1476,-2.1631,-2.1228,-2.0917,-2.0793,-2.0669,-2.0369,-2.011,-2.0069,-1.9665,-1.9427,-1.9437,-1.9256,-1.9152,-1.9131,-1.9131,-1.9131,-1.9131,-1.9121,-1.8702,-1.8123,-1.7419,-1.6964,-1.6715,-1.6519,-1.6384,-1.6249,-1.6202,-1.6029,-1.5846,-1.5788,-1.573,-1.5604,-1.5546,-1.5478,-1.541,-1.542,-1.542,-1.542,-1.542,-1.542,-1.542,-1.542,-1.542,-1.542,-1.541,-1.5352,-1.5313,-1.5254,-1.5196,-1.5088,-1.5098,-1.5029,-1.4918,-1.4906,-1.4961,-1.4923,-1.5059,-1.4985,-1.4824,-1.469,-1.4259,-1.3666,-1.345,-1.3338,-1.2989,-1.2805,-1.2683,-1.256,-1.2436,-1.2313,-1.2251,-1.212,-1.2058,-1.1996,-1.1934,-1.1809,-1.1685,-1.1622,-1.1553,-1.1435,-1.131,-1.1178,-1.1115,-1.0989,-1.087,-1.087,-1.0807,-1.0744,-1.0681,-1.0618,-1.0561,-2.6233,-2.5965,-2.6039,-2.5914,-2.5554,-2.5542,-2.5448,-2.5238,-2.5095,-2.5011,-2.5121,-2.4803,-2.4637,-2.449,-2.397,-2.3644,-2.311,-2.2537,-2.2041,-2.1924,-2.1626,-2.1354,-2.1238,-2.128,-2.1093,-2.04,-2.0452,-2.0452,-2.0234,-1.9903,-1.9734,-1.9661,-1.9313,-1.9168,-1.9096,-1.9075,-1.9131,-1.9131,-1.9131,-1.9131,-1.9131,-1.9121,-1.8661,-1.8019,-1.7347,-1.6922,-1.6653,-1.6467,-1.6374,-1.6374,-1.6374,-1.6259,-1.6029,-1.5914,-1.5856,-1.574,-1.574,-1.5604,-1.5536,-1.5478,-1.5478,-1.542,-1.542,-1.542,-1.542,-1.542,-1.542,-1.542,-1.541,-1.541,-1.542,-1.5362,-1.5313,-1.5264,-1.5205,-1.5147,-1.5086,-1.5121,-1.5026,-1.4979,-1.5186,-1.5156,-1.487,-1.4638,-1.4127,-1.3692,-1.3554,-1.339,-1.3042,-1.2744,-1.2683,-1.2629,-1.2567,-1.2498,-1.2375,-1.2243,-1.2182,-1.212,-1.212,-1.1996,-1.1872,-1.1747,-1.1685,-1.156,-1.1435,-1.1365,-1.124,-1.1115,-1.1059,-1.1059,-1.0996,-1.087,-1.0807,-1.0744,-1.064,-2.5485,-2.5069,-2.5494,-2.5535,-2.5358,-2.5413,-2.521,-2.4852,-2.4468,-2.4345,-2.4455,-2.4422,-2.4307,-2.4097,-2.397,-2.3402,-2.2652,-2.2146,-2.1967,-2.185,-2.167,-2.147,-2.1062,-2.0866,-2.0431,-2.012,-2.0162,-2.0203,-1.9831,-1.9437,-1.9349,-1.9199,-1.9127,-1.9131,-1.9131,-1.9131,-1.9131,-1.9131,-1.9131,-1.9131,-1.9131,-1.91,-1.8827,-1.8206,-1.7554,-1.7108,-1.687,-1.657,-1.6374,-1.6374,-1.6374,-1.6384,-1.629,-1.6165,-1.6019,-1.5914,-1.5856,-1.5788,-1.5662,-1.5662,-1.5546,-1.5478,-1.542,-1.542,-1.542,-1.542,-1.542,-1.542,-1.542,-1.542,-1.542,-1.542,-1.542,-1.5362,-1.5362,-1.5362,-1.5264,-1.5243,-1.5194,-1.5167,-1.5313,-1.5314,-1.4935,-1.4515,-1.4101,-1.3744,-1.3476,-1.3329,-1.3103,-1.2858,-1.2744,-1.2744,-1.2752,-1.2629,-1.256,-1.2375,-1.2243,-1.2243,-1.2182,-1.2058,-1.1934,-1.1872,-1.1747,-1.1685,-1.156,-1.1498,-1.1373,-1.124,-1.1185,-1.1185,-1.1122,-1.0982,-1.0906,-1.076,-1.0663,-2.4981,-2.4716,-2.4953,-2.4921,-2.4723,-2.4657,-2.4602,-2.4414,-2.428,-2.4278,-2.4348,-2.4272,-2.4163,-2.3936,-2.3457,-2.2859,-2.2327,-2.1617,-2.1608,-2.1628,-2.123,-2.0886,-2.0762,-2.0514,-2.0006,-1.9706,-1.982,-1.9851,-1.9505,-1.921,-1.9142,-1.9142,-1.9131,-1.9131,-1.9131,-1.9131,-1.9131,-1.9131,-1.9131,-1.9131,-1.9131,-1.9131,-1.8827,-1.8361,-1.7968,-1.7533,-1.7028,-1.704,-1.6884,-1.6719,-1.6657,-1.6667,-1.6605,-1.6451,-1.6212,-1.605,-1.6029,-1.5961,-1.5856,-1.5798,-1.573,-1.5672,-1.5662,-1.5604,-1.5614,-1.5546,-1.5478,-1.542,-1.542,-1.542,-1.542,-1.542,-1.542,-1.542,-1.542,-1.542,-1.542,-1.5313,-1.5281,-1.5213,-1.5126,-1.5007,-1.475,-1.4344,-1.4057,-1.3735,-1.3467,-1.3338,-1.3224,-1.3042,-1.2858,-1.2744,-1.2744,-1.2683,-1.2621,-1.2498,-1.2428,-1.2367,-1.2367,-1.2189,-1.212,-1.1996,-1.1864,-1.174,-1.1685,-1.1564,-1.149,-1.1358,-1.1365,-1.1267,-1.1015,-1.0854,-1.0819,-1.0756,-1.0629,-2.4453,-2.4226,-2.4337,-2.4372,-2.4251,-2.4144,-2.4098,-2.4165,-2.4273,-2.4398,-2.4441,-2.4132,-2.4008,-2.3852,-2.3265,-2.252,-2.1977,-2.1362,-2.1555,-2.1502,-2.0876,-2.0398,-2.0472,-2.0286,-1.9934,-1.951,-1.9437,-1.9437,-1.9266,-1.9152,-1.9142,-1.9131,-1.9131,-1.9131,-1.9131,-1.9131,-1.9131,-1.9131,-1.9131,-1.9131,-1.9131,-1.911,-1.8847,-1.8433,-1.8371,-1.7968,-1.7296,-1.7328,-1.7328,-1.7143,-1.7061,-1.7001,-1.7049,-1.6757,-1.6502,-1.6407,-1.6284,-1.6087,-1.5961,-1.5972,-1.5904,-1.5856,-1.5914,-1.5856,-1.5798,-1.573,-1.5672,-1.5546,-1.5478,-1.5478,-1.5478,-1.542,-1.542,-1.542,-1.542,-1.542,-1.542,-1.5362,-1.5254,-1.5136,-1.4902,-1.4753,-1.4639,-1.4469,-1.415,-1.396,-1.37,-1.364,-1.3459,-1.3224,-1.3042,-1.2858,-1.2744,-1.2683,-1.2621,-1.2621,-1.256,-1.2498,-1.2498,-1.2436,-1.2313,-1.2182,-1.202,-1.1828,-1.1645,-1.1539,-1.1505,-1.1472,-1.1392,-1.1214,-1.088,-1.0773,-1.0775,-1.0682,-1.0501,-2.3791,-2.3328,-2.3841,-2.4229,-2.4422,-2.4341,-2.4426,-2.4609,-2.4116,-2.4066,-2.4241,-2.3661,-2.3571,-2.3553,-2.3136,-2.2415,-2.1945,-2.1889,-2.1839,-2.1502,-2.1125,-2.0834,-2.0793,-2.0151,-1.9831,-1.9515,-1.9349,-1.9147,-1.9142,-1.9131,-1.9131,-1.9131,-1.9131,-1.9131,-1.9131,-1.9131,-1.9131,-1.9131,-1.9131,-1.9131,-1.9131,-1.9131,-1.8816,-1.8547,-1.8382,-1.8195,-1.775,-1.7688,-1.7647,-1.7637,-1.7523,-1.7461,-1.7513,-1.7162,-1.7203,-1.7142,-1.6853,-1.6316,-1.6216,-1.6097,-1.607,-1.6022,-1.5944,-1.5934,-1.5856,-1.5856,-1.5856,-1.5856,-1.573,-1.5662,-1.5604,-1.5536,-1.5478,-1.5478,-1.5478,-1.5468,-1.541,-1.5478,-1.5371,-1.5147,-1.497,-1.4843,-1.4693,-1.4515,-1.4327,-1.4139,-1.395,-1.3881,-1.37,-1.3407,-1.3103,-1.292,-1.2797,-1.2736,-1.2736,-1.2683,-1.2744,-1.2683,-1.2613,-1.2613,-1.2528,-1.2419,-1.2019,-1.1828,-1.1639,-1.1496,-1.1442,-1.1427,-1.1346,-1.1197,-1.0953,-1.0842,-1.081,-1.0585,-1.0382,-2.3303,-2.3188,-2.3766,-2.4067,-2.4254,-2.436,-2.4489,-2.4487,-2.4384,-2.4225,-2.3943,-2.3604,-2.3155,-2.2644,-2.2204,-2.1854,-2.1523,-2.1621,-2.1437,-2.1142,-2.0831,-2.0532,-2.0242,-1.9717,-1.9375,-1.9412,-1.9266,-1.9183,-1.9131,-1.9131,-1.9131,-1.9131,-1.9131,-1.9131,-1.9131,-1.9131,-1.9131,-1.9131,-1.9131,-1.9131,-1.9131,-1.9121,-1.9038,-1.884,-1.8754,-1.8506,-1.8268,-1.8328,-1.8255,-1.8195,-1.8029,-1.7894,-1.7709,-1.7472,-1.7399,-1.7193,-1.7214,-1.71,-1.6989,-1.6557,-1.6396,-1.6369,-1.6308,-1.6144,-1.6029,-1.5972,-1.5914,-1.5914,-1.5866,-1.5808,-1.5808,-1.573,-1.573,-1.5672,-1.5732,-1.5614,-1.5614,-1.5546,-1.5498,-1.5264,-1.5029,-1.4902,-1.4784,-1.4497,-1.4378,-1.4189,-1.401,-1.3941,-1.3709,-1.3407,-1.3164,-1.2989,-1.292,-1.292,-1.2858,-1.2858,-1.2981,-1.2981,-1.2895,-1.2826,-1.2846,-1.2635,-1.2162,-1.1862,-1.1694,-1.1542,-1.1449,-1.1314,-1.1236,-1.1085,-1.0997,-1.0875,-1.0793,-1.0578,-1.0386,-2.3153,-2.3389,-2.3816,-2.4142,-2.4431,-2.4663,-2.4752,-2.4767,-2.492,-2.4582,-2.3986,-2.3501,-2.2524,-2.1636,-2.1413,-2.1441,-2.1209,-2.1133,-2.092,-2.0691,-2.032,-2.0083,-1.9837,-1.9354,-1.9096,-1.9131,-1.9162,-1.9131,-1.9131,-1.9131,-1.9131,-1.9131,-1.9131,-1.9131,-1.9131,-1.9131,-1.9131,-1.9131,-1.9131,-1.9131,-1.9131,-1.9142,-1.9131,-1.9187,-1.9166,-1.9041,-1.8747,-1.8816,-1.8796,-1.8651,-1.8493,-1.8369,-1.8195,-1.8009,-1.7916,-1.775,-1.774,-1.7781,-1.7575,-1.7315,-1.6891,-1.6777,-1.6674,-1.6316,-1.6192,-1.6077,-1.6029,-1.6087,-1.5961,-1.6022,-1.6103,-1.6105,-1.6066,-1.6077,-1.6125,-1.5966,-1.5818,-1.574,-1.5604,-1.5362,-1.5137,-1.502,-1.4843,-1.4556,-1.4378,-1.4249,-1.4121,-1.4061,-1.3881,-1.3649,-1.3467,-1.3407,-1.3407,-1.3346,-1.3094,-1.3094,-1.3216,-1.3243,-1.3158,-1.3022,-1.2939,-1.2638,-1.2167,-1.1906,-1.172,-1.1543,-1.1415,-1.1233,-1.1097,-1.1036,-1.102,-1.0901,-1.0719,-1.0574,-1.034,-2.3452,-2.3954,-2.3991,-2.4569,-2.5435,-2.5348,-2.5456,-2.5566,-2.5517,-2.4981,-2.4014,-2.321,-2.1823,-2.0953,-2.1057,-2.1232,-2.0959,-2.1784,-2.1381,-2.0988,-2.0854,-2.0296,-1.9802,-1.936,-1.9131,-1.9142,-1.9131,-1.9131,-1.9131,-1.9131,-1.9131,-1.9131,-1.9131,-1.9131,-1.9131,-1.9131,-1.9131,-1.9131,-1.9131,-1.9131,-1.9131,-1.9208,-1.9274,-1.9274,-1.9407,-1.9452,-1.9222,-1.9187,-1.911,-1.8996,-1.8854,-1.8705,-1.8599,-1.8464,-1.8392,-1.8446,-1.8133,-1.8331,-1.8404,-1.774,-1.714,-1.6922,-1.6757,-1.6581,-1.6564,-1.6446,-1.6337,-1.6399,-1.6267,-1.6379,-1.6514,-1.6617,-1.6516,-1.6465,-1.6364,-1.6133,-1.6032,-1.5914,-1.5778,-1.5468,-1.5294,-1.5186,-1.5128,-1.4843,-1.4666,-1.4538,-1.4478,-1.4419,-1.441,-1.424,-1.4061,-1.395,-1.401,-1.3821,-1.345,-1.3459,-1.364,-1.3588,-1.3373,-1.3185,-1.2932,-1.2577,-1.2253,-1.2074,-1.1851,-1.1625,-1.1447,-1.1467,-1.1416,-1.1198,-1.1092,-1.1023,-1.0837,-1.0629,-1.0368,-2.3464,-2.4029,-2.4356,-2.4933,-2.5624,-2.5907,-2.5791,-2.5419,-2.5338,-2.4338,-2.287,-2.195,-2.1082,-2.0555,-2.0413,-2.062,-2.0455,-2.0805,-2.0657,-2.0345,-2.0123,-1.9912,-1.9453,-1.9277,-1.9142,-1.9208,-1.9142,-1.9131,-1.9131,-1.9131,-1.9131,-1.9131,-1.9131,-1.9131,-1.9131,-1.9131,-1.9131,-1.9131,-1.9131,-1.9131,-1.9131,-1.9142,-1.9208,-1.9274,-1.9351,-1.9417,-1.9341,-1.9407,-1.9274,-1.9142,-1.9075,-1.8951,-1.8837,-1.8744,-1.883,-1.8992,-1.8624,-1.8919,-1.8982,-1.8249,-1.7502,-1.7389,-1.7315,-1.7181,-1.7088,-1.6964,-1.6819,-1.6729,-1.6719,-1.6814,-1.6866,-1.6857,-1.6816,-1.6786,-1.6652,-1.6389,-1.6178,-1.6097,-1.5951,-1.571,-1.5594,-1.5488,-1.5371,-1.5254,-1.5069,-1.4893,-1.4834,-1.4775,-1.4775,-1.4706,-1.4538,-1.4419,-1.4428,-1.4359,-1.3992,-1.4001,-1.413,-1.3901,-1.3664,-1.3411,-1.3142,-1.2714,-1.2423,-1.2228,-1.2025,-1.1908,-1.182,-1.1846,-1.172,-1.1447,-1.1345,-1.1294,-1.1032,-1.0718,-1.0462,-2.3477,-2.4029,-2.4418,-2.4818,-2.5344,-2.5963,-2.5685,-2.4847,-2.4798,-2.3687,-2.1793,-2.1194,-2.0582,-2.0216,-2.0107,-2.0129,-2.026,-2.043,-2.0122,-1.9998,-1.986,-1.964,-1.9354,-1.9142,-1.9142,-1.9208,-1.9142,-1.9131,-1.9131,-1.9131,-1.9131,-1.9131,-1.9131,-1.9131,-1.9131,-1.9131,-1.9131,-1.9131,-1.9142,-1.9142,-1.9142,-1.9341,-1.9407,-1.9473,-1.9605,-1.955,-1.955,-1.9539,-1.9407,-1.9274,-1.9177,-1.9052,-1.8968,-1.8947,-1.9055,-1.9099,-1.9196,-1.9462,-1.9272,-1.8711,-1.7947,-1.7698,-1.7616,-1.7606,-1.7585,-1.7379,-1.7203,-1.7193,-1.7193,-1.7224,-1.7336,-1.7368,-1.7286,-1.7194,-1.6894,-1.6609,-1.6382,-1.6192,-1.6066,-1.5941,-1.5836,-1.572,-1.5546,-1.542,-1.5303,-1.5186,-1.5128,-1.5069,-1.5069,-1.501,-1.4834,-1.4775,-1.4775,-1.4715,-1.4588,-1.4606,-1.4588,-1.4363,-1.4084,-1.3745,-1.3424,-1.2982,-1.2614,-1.2346,-1.2209,-1.2162,-1.2153,-1.2159,-1.1941,-1.1654,-1.1578,-1.1477,-1.1276,-1.0972,-1.0769,-2.3464,-2.3966,-2.4017,-2.4292,-2.4651,-2.5331,-2.5046,-2.4115,-2.3964,-2.3126,-2.1724,-2.1138,-2.0711,-2.0281,-2.0216,-2.0216,-2.0227,-2.0499,-2.0366,-1.9873,-1.9832,-1.9666,-1.9421,-1.9142,-1.9142,-1.9131,-1.9131,-1.9131,-1.9131,-1.9131,-1.9131,-1.9131,-1.9142,-1.9131,-1.9131,-1.9131,-1.9131,-1.9131,-1.9274,-1.9285,-1.9341,-1.9615,-1.9681,-1.9802,-1.9868,-1.9813,-1.9802,-1.9681,-1.9539,-1.9341,-1.9274,-1.9212,-1.9212,-1.9212,-1.9365,-1.9486,-1.9562,-1.9605,-1.9562,-1.8944,-1.848,-1.8072,-1.805,-1.7988,-1.7843,-1.7729,-1.7709,-1.7709,-1.7709,-1.7905,-1.7988,-1.7947,-1.7729,-1.7481,-1.7119,-1.6726,-1.643,-1.6316,-1.6192,-1.6134,-1.6066,-1.5999,-1.5768,-1.5536,-1.5478,-1.542,-1.542,-1.5362,-1.5303,-1.5245,-1.5137,-1.5069,-1.5069,-1.5001,-1.4942,-1.5029,-1.504,-1.4811,-1.4506,-1.411,-1.3657,-1.3167,-1.2836,-1.2482,-1.2429,-1.249,-1.248,-1.249,-1.2274,-1.2076,-1.1778,-1.1628,-1.1427,-1.1226,-1.0972,-2.3504,-2.3659,-2.3952,-2.3879,-2.3692,-2.4643,-2.4511,-2.3619,-2.2935,-2.2277,-2.1731,-2.1371,-2.1083,-2.0839,-2.0518,-2.0453,-2.0433,-2.014,-1.9932,-1.9877,-1.9762,-1.9621,-1.9362,-1.9208,-1.9142,-1.9208,-1.9142,-1.9131,-1.9131,-1.9131,-1.9131,-1.9131,-1.9208,-1.9208,-1.9274,-1.9341,-1.9407,-1.9407,-1.9473,-1.9539,-1.9539,-1.9671,-1.9813,-1.9868,-1.9944,-1.9944,-1.9933,-1.9813,-1.9671,-1.955,-1.9407,-1.9407,-1.9483,-1.9483,-1.9605,-1.9736,-1.9802,-1.9802,-1.9726,-1.9424,-1.9144,-1.8804,-1.8624,-1.8539,-1.8589,-1.8299,-1.8216,-1.8133,-1.8102,-1.8237,-1.8268,-1.7936,-1.7698,-1.7522,-1.716,-1.6663,-1.6384,-1.6384,-1.6316,-1.6316,-1.6259,-1.6181,-1.5941,-1.5778,-1.5662,-1.5662,-1.5662,-1.5536,-1.542,-1.5488,-1.5488,-1.5362,-1.5294,-1.5294,-1.5303,-1.5323,-1.5381,-1.5216,-1.4839,-1.4398,-1.3951,-1.3559,-1.3249,-1.3024,-1.2919,-1.2783,-1.2774,-1.2715,-1.2666,-1.2471,-1.2175,-1.1877,-1.1669,-1.1418,-1.1124,-2.3569,-2.3501,-2.3783,-2.3624,-2.3265,-2.4155,-2.4028,-2.3081,-2.2267,-2.18,-2.16,-2.1463,-2.1336,-2.1158,-2.0967,-2.0828,-2.0764,-2.0388,-1.9998,-1.9933,-1.9615,-1.9417,-1.9341,-1.9264,-1.9142,-1.9208,-1.9208,-1.9131,-1.9131,-1.9131,-1.9131,-1.9208,-1.9351,-1.9483,-1.9483,-1.9615,-1.955,-1.9605,-1.9615,-1.9747,-1.9736,-1.9813,-1.9878,-1.9944,-2.0009,-2.0009,-1.9944,-1.9933,-1.9868,-1.9747,-1.9681,-1.9671,-1.9681,-1.9747,-1.9802,-1.9944,-2.0074,-1.9846,-1.949,-1.9544,-1.918,-1.8892,-1.8984,-1.8947,-1.8861,-1.8464,-1.8382,-1.834,-1.8371,-1.8278,-1.8164,-1.7812,-1.7512,-1.7326,-1.7005,-1.6498,-1.6441,-1.6441,-1.6441,-1.6384,-1.6384,-1.6249,-1.6181,-1.6019,-1.5846,-1.5846,-1.5846,-1.572,-1.5594,-1.5662,-1.573,-1.5604,-1.5536,-1.5536,-1.5546,-1.5556,-1.5556,-1.5594,-1.5202,-1.4763,-1.4597,-1.4265,-1.3888,-1.3611,-1.3472,-1.3293,-1.3066,-1.2949,-1.291,-1.2764,-1.2529,-1.2274,-1.1968,-1.1669,-1.1368,-2.3628,-2.3569,-2.3463,-2.3416,-2.3444,-2.3815,-2.3344,-2.2445,-2.2061,-2.1788,-2.1451,-2.1526,-2.1463,-2.1285,-2.1221,-2.1221,-2.1158,-2.0764,-2.0506,-2.0183,-1.9987,-1.966,-1.9462,-1.9274,-1.9341,-1.9208,-1.9142,-1.9131,-1.9131,-1.9198,-1.9274,-1.9341,-1.9528,-1.9671,-1.9747,-1.9813,-1.9747,-1.9747,-1.9813,-1.9878,-1.9878,-2.002,-2.002,-2.0085,-2.014,-2.014,-2.0074,-2.0064,-1.9998,-1.9868,-1.9726,-1.9802,-1.9868,-1.9933,-2.0009,-2.0151,-2.0346,-1.983,-1.9394,-1.9539,-1.9154,-1.888,-1.8617,-1.8478,-1.8456,-1.8487,-1.8581,-1.8487,-1.8435,-1.8123,-1.7895,-1.7461,-1.709,-1.6933,-1.6694,-1.6535,-1.6452,-1.6431,-1.6431,-1.6431,-1.6431,-1.6316,-1.6181,-1.6077,-1.6077,-1.6134,-1.6124,-1.6124,-1.6009,-1.5836,-1.5904,-1.5856,-1.5788,-1.5846,-1.5856,-1.5798,-1.573,-1.572,-1.5558,-1.5219,-1.5089,-1.4858,-1.4526,-1.4172,-1.4023,-1.3731,-1.334,-1.3142,-1.3142,-1.3007,-1.2813,-1.2569,-1.2264,-1.2116,-1.1918,-2.3878,-2.3819,-2.3628,-2.3509,-2.3356,-2.3265,-2.3045,-2.2739,-2.242,-2.2173,-2.2099,-2.1987,-2.1862,-2.1925,-2.1663,-2.1588,-2.14,-2.121,-2.1019,-2.0764,-2.0506,-2.0442,-2.0259,-1.9868,-1.9726,-1.9539,-1.9341,-1.9198,-1.9198,-1.9274,-1.9473,-1.9539,-1.9791,-1.9998,-2.0074,-2.014,-2.0074,-2.0009,-2.0009,-2.0074,-2.0074,-2.014,-2.014,-2.0216,-2.0399,-2.0399,-2.027,-2.0324,-2.0324,-2.0313,-2.0064,-2.0064,-2.0377,-2.0377,-2.0506,-2.0786,-2.0635,-2.0245,-2.0045,-1.9823,-1.951,-1.9003,-1.8786,-1.8574,-1.8522,-1.8606,-1.8762,-1.8531,-1.8279,-1.7957,-1.7709,-1.7367,-1.7036,-1.6788,-1.6628,-1.6608,-1.6534,-1.6534,-1.6534,-1.6477,-1.6477,-1.6374,-1.6239,-1.6296,-1.6306,-1.6353,-1.641,-1.641,-1.641,-1.6249,-1.6134,-1.6077,-1.6029,-1.6077,-1.5972,-1.5914,-1.5914,-1.5874,-1.5806,-1.569,-1.5477,-1.5253,-1.4996,-1.4702,-1.4357,-1.3951,-1.3405,-1.3334,-1.3382,-1.3218,-1.3074,-1.2803,-1.2618,-1.2461,-1.2314,-2.4067,-2.3936,-2.3688,-2.3509,-2.3271,-2.309,-2.2957,-2.2848,-2.2543,-2.2359,-2.2309,-2.2185,-2.2197,-2.2123,-2.1987,-2.1862,-2.1851,-2.1526,-2.1336,-2.121,-2.1094,-2.0839,-2.0582,-2.0377,-2.0183,-1.9922,-1.9726,-1.9584,-1.9528,-1.966,-1.9791,-1.9933,-2.0183,-2.0259,-2.0335,-2.0464,-2.0464,-2.0335,-2.0281,-2.0281,-2.027,-2.0324,-2.0388,-2.0529,-2.0775,-2.0646,-2.0518,-2.0711,-2.0646,-2.07,-2.0388,-2.0324,-2.07,-2.0828,-2.0572,-2.0773,-2.0864,-2.0362,-1.9997,-1.9743,-1.953,-1.9233,-1.896,-1.8736,-1.8539,-1.8532,-1.847,-1.8291,-1.7999,-1.775,-1.7512,-1.7264,-1.7054,-1.6794,-1.6733,-1.6726,-1.6705,-1.6705,-1.6648,-1.6581,-1.6534,-1.642,-1.6363,-1.642,-1.6467,-1.6524,-1.6581,-1.6637,-1.6637,-1.6524,-1.641,-1.6353,-1.6306,-1.6363,-1.6192,-1.6134,-1.6192,-1.6249,-1.6312,-1.6136,-1.5894,-1.5694,-1.5594,-1.5149,-1.4645,-1.4193,-1.3776,-1.3652,-1.3573,-1.3467,-1.3362,-1.318,-1.2997,-1.2842,-1.2706,-2.3955,-2.3884,-2.3669,-2.3314,-2.3138,-2.3065,-2.303,-2.286,-2.2555,-2.2334,-2.2175,-2.2173,-2.2149,-2.2053,-2.2051,-2.2123,-2.2061,-2.1862,-2.1663,-2.1451,-2.1348,-2.1158,-2.0955,-2.056,-2.0495,-2.0366,-2.0161,-1.9911,-2.0031,-2.0107,-2.0183,-2.0399,-2.0464,-2.054,-2.0604,-2.0786,-2.073,-2.0467,-2.0504,-2.0582,-2.0571,-2.0635,-2.0775,-2.1094,-2.1158,-2.1169,-2.1094,-2.0967,-2.0828,-2.0839,-2.0775,-2.0646,-2.0967,-2.1135,-2.0757,-2.07,-2.106,-2.0614,-2.0125,-1.9749,-1.9587,-1.926,-1.8912,-1.8742,-1.8635,-1.8805,-1.8765,-1.8321,-1.7987,-1.7767,-1.7525,-1.7168,-1.6864,-1.6816,-1.6835,-1.6807,-1.6797,-1.6807,-1.6751,-1.6694,-1.6591,-1.6534,-1.6545,-1.6591,-1.6637,-1.6684,-1.6807,-1.6874,-1.692,-1.692,-1.6751,-1.6637,-1.6581,-1.6591,-1.6534,-1.6524,-1.6637,-1.6694,-1.6694,-1.6673,-1.6448,-1.6353,-1.6269,-1.5657,-1.5049,-1.4626,-1.4243,-1.4063,-1.381,-1.3716,-1.361,-1.3573,-1.342,-1.3276,-1.3084,-2.2805,-2.2815,-2.2923,-2.3043,-2.3113,-2.3125,-2.2944,-2.2739,-2.2678,-2.2238,-2.1886,-2.1994,-2.1933,-2.1644,-2.1993,-2.2125,-2.2075,-2.2037,-2.2049,-2.1987,-2.18,-2.1675,-2.16,-2.1135,-2.1008,-2.0752,-2.0484,-2.0226,-2.0237,-2.0366,-2.0442,-2.0464,-2.0593,-2.0775,-2.0719,-2.0899,-2.0848,-2.0483,-2.0711,-2.0808,-2.0812,-2.0869,-2.0967,-2.1221,-2.1411,-2.1411,-2.1411,-2.1411,-2.1411,-2.1474,-2.1158,-2.1221,-2.1537,-2.1451,-2.1467,-2.1596,-2.1409,-2.1043,-2.0499,-2.0076,-1.9928,-1.9593,-1.931,-1.8918,-1.8916,-1.9199,-1.9094,-1.8497,-1.802,-1.7715,-1.745,-1.7058,-1.6807,-1.6853,-1.6965,-1.6965,-1.6955,-1.6965,-1.6909,-1.6864,-1.6751,-1.6705,-1.6715,-1.6761,-1.6807,-1.692,-1.7099,-1.7211,-1.7323,-1.7312,-1.7088,-1.6976,-1.6807,-1.6751,-1.6807,-1.6864,-1.6976,-1.692,-1.692,-1.692,-1.6976,-1.6813,-1.6575,-1.6031,-1.548,-1.5017,-1.4559,-1.4247,-1.4082,-1.3952,-1.3905,-1.3905,-1.3763,-1.361,-1.342,-2.2387,-2.2385,-2.2382,-2.2394,-2.241,-2.2661,-2.2471,-2.2085,-2.2211,-2.1761,-2.1003,-2.1451,-2.1548,-2.1187,-2.1608,-2.1897,-2.1933,-2.2113,-2.2099,-2.2197,-2.2197,-2.2135,-2.1925,-2.16,-2.1474,-2.1221,-2.0892,-2.0624,-2.0526,-2.07,-2.085,-2.0764,-2.0944,-2.0917,-2.0728,-2.0864,-2.0885,-2.0546,-2.081,-2.0903,-2.0938,-2.11,-2.1388,-2.1663,-2.1726,-2.1737,-2.1726,-2.1726,-2.1788,-2.1862,-2.1737,-2.1327,-2.1513,-2.1596,-2.1623,-2.1614,-2.1528,-2.1502,-2.1002,-2.0607,-2.038,-2.0127,-1.9638,-1.9243,-1.9462,-1.9673,-1.9048,-1.8459,-1.7888,-1.7562,-1.7504,-1.7184,-1.7006,-1.6965,-1.7134,-1.7245,-1.7245,-1.7245,-1.7245,-1.719,-1.7088,-1.6976,-1.7032,-1.7145,-1.719,-1.7256,-1.7379,-1.7434,-1.7601,-1.7711,-1.7479,-1.7312,-1.72,-1.7145,-1.72,-1.7256,-1.7256,-1.7256,-1.7145,-1.72,-1.7245,-1.7101,-1.6884,-1.6199,-1.5712,-1.529,-1.4897,-1.454,-1.4326,-1.4233,-1.4244,-1.4244,-1.4104,-1.3952,-1.381,-2.2178,-2.2228,-2.1918,-2.1708,-2.1612,-2.1995,-2.1728,-2.1203,-2.1547,-2.1043,-2.0101,-2.0803,-2.0875,-2.0923,-2.1151,-2.1356,-2.1644,-2.2041,-2.2173,-2.2197,-2.2135,-2.2135,-2.1999,-2.1812,-2.1612,-2.1353,-2.1106,-2.0934,-2.0825,-2.082,-2.0751,-2.1009,-2.1037,-2.0899,-2.0772,-2.0743,-2.0768,-2.0463,-2.05,-2.0594,-2.0961,-2.1386,-2.1625,-2.193,-2.2161,-2.2185,-2.2061,-2.1987,-2.1999,-2.1999,-2.2123,-2.182,-2.1651,-2.182,-2.1675,-2.1701,-2.1882,-2.1616,-2.1162,-2.0899,-2.0888,-2.0671,-1.9997,-1.9769,-1.992,-1.965,-1.9033,-1.8365,-1.7804,-1.7573,-1.7513,-1.7388,-1.7218,-1.7134,-1.7357,-1.7468,-1.7468,-1.7468,-1.7468,-1.7468,-1.7412,-1.7301,-1.7357,-1.7468,-1.7534,-1.7534,-1.7645,-1.77,-1.7767,-1.7877,-1.7877,-1.7755,-1.7645,-1.759,-1.7534,-1.7534,-1.7534,-1.7534,-1.7479,-1.7534,-1.7545,-1.7291,-1.6894,-1.6317,-1.5825,-1.5486,-1.5118,-1.4764,-1.4616,-1.4523,-1.4477,-1.4488,-1.4337,-1.4244,-1.4197,-2.1328,-2.147,-2.1311,-2.1393,-2.161,-2.155,-2.1287,-2.1011,-2.0945,-2.0528,-1.998,-1.9925,-2.0201,-2.0598,-2.1163,-2.1464,-2.1608,-2.1981,-2.2125,-2.2197,-2.1892,-2.1939,-2.1815,-2.1522,-2.1376,-2.11,-2.0784,-2.0572,-2.0527,-2.024,-2.0194,-2.0538,-2.0561,-2.0492,-2.0496,-2.0554,-2.0441,-2.0134,-2.0189,-2.0327,-2.0351,-2.0759,-2.1272,-2.1632,-2.1969,-2.2101,-2.2135,-2.2135,-2.2135,-2.2197,-2.2173,-2.2015,-2.1956,-2.1956,-2.1944,-2.1798,-2.2053,-2.18,-2.1415,-2.1199,-2.1167,-2.0726,-2.007,-1.9471,-1.9574,-1.9594,-1.8855,-1.8017,-1.7655,-1.7821,-1.777,-1.744,-1.7267,-1.7368,-1.7579,-1.7534,-1.7534,-1.7579,-1.7579,-1.7634,-1.7645,-1.759,-1.759,-1.7711,-1.7711,-1.7822,-1.792,-1.7975,-1.7963,-1.8084,-1.8216,-1.8096,-1.803,-1.7865,-1.77,-1.77,-1.77,-1.7755,-1.781,-1.781,-1.7675,-1.7371,-1.6954,-1.6446,-1.5988,-1.5595,-1.5279,-1.4983,-1.4903,-1.4811,-1.4765,-1.4684,-1.4581,-1.4477,-1.4419]},{"header":{"parameterUnit":"m.s-1","parameterCategory":1,"la1":31.0,"la2":29.5877,"lo1":-88.7671,"lo2":-86.6584,"dy":0.0162,"dx":0.0185,"nx":115,"ny":88,"refTime":"2023-07-19T06:00:00:Z","depth":0,"parameterNumber":3,"parameterNumberName":"V-component_of_WINDS"},"data":[0.0,0.0,0.0,0.0,0.0,0.0,0.0,0.0,0.0,0.0,0.0,0.0,0.0,0.0,0.0,0.0,0.0,0.0,0.0,0.0,0.0,0.0,0.0,0.0,0.0,0.0,0.0,0.0,0.0,0.0,0.0,0.0,0.0,0.0,0.0,0.0,0.0,0.0,0.0,0.0,0.0,0.0,0.0,0.0,0.0,0.0,0.0,0.0,0.0,0.0,0.0,0.0,0.0,0.0,0.0,0.0,0.0,0.0,0.0,0.0,0.0,0.0,0.0,0.0,0.0,0.0,0.0,0.0,0.0,0.0,0.0,0.0,0.0,0.0,0.0,0.0,0.0,0.0,0.0,0.0,0.0,0.0,0.0,0.0,0.0,0.0,0.0,0.0,0.0,0.0,0.0,0.0,0.0,0.0,0.0,0.0,0.0,0.0,0.0,0.0,0.0,0.0,0.0,0.0,0.0,0.0,0.0,0.0,0.0,0.0,0.0,0.0,0.0,0.0,0.0,0.0,0.0,0.0,0.0,0.0,0.0,0.0,0.0,0.0,0.0,0.0,0.0,0.0,0.0,0.0,0.0,0.0,0.0,0.0,0.0,0.0,0.0,0.0,0.0,0.0,0.0,0.0,0.0,0.0,0.0,0.0,0.0,0.0,0.0,0.0,0.0,0.0,0.0,0.0,0.0,0.0,0.0,0.0,0.0,0.0,0.0,0.0,0.0,0.0,0.0,0.0,0.0,0.0,0.0,0.0,0.0,0.0,0.0,0.0,0.0,0.0,0.0,0.0,0.0,0.0,0.0,0.0,0.0,0.0,0.0,0.0,0.0,0.0,0.0,0.0,0.0,0.0,0.0,0.0,0.0,0.0,0.0,0.0,0.0,0.0,0.0,0.0,0.0,0.0,0.0,0.0,0.0,0.0,0.0,0.0,0.0,0.0,0.0,0.0,0.0,0.0,0.0,0.0,0.0,0.0,0.0,0.0,0.0,0.0,0.0,0.0,0.0,0.0,0.0,0.0,0.0,0.0,0.0,0.0,0.0,0.0,0.0,0.0,0.0,0.0,0.0,0.0,0.0,0.0,0.0,0.0,0.0,0.0,0.0,0.0,0.0,0.0,0.0,0.0,0.0,0.0,0.0,0.0,0.0,0.0,0.0,0.0,0.0,0.0,0.0,0.0,0.0,0.0,0.0,0.0,0.0,0.0,0.0,0.0,0.0,0.0,0.0,0.0,0.0,0.0,0.0,0.0,0.0,0.0,0.0,0.0,0.0,0.0,0.0,0.0,0.0,0.0,0.0,0.0,0.0,0.0,0.0,0.0,0.0,0.0,0.0,0.0,0.0,0.0,0.0,0.0,0.0,0.0,0.0,0.0,0.0,0.0,0.0,0.0,0.0,0.0,0.0,0.0,0.0,0.0,0.0,0.0,0.0,0.0,0.0,0.0,0.0,0.0,0.0,0.0,0.0,0.0,0.0,0.0,0.0,0.0,0.0,0.0,0.0,0.0,0.0,0.0,0.0,0.0,0.0,0.0,0.0,0.0,0.0,0.0,0.0,0.0,0.0,0.0,0.0,0.0,0.0,0.0,0.0,0.0,0.0,0.0,0.0,0.0,0.0,0.0,0.0,0.0,0.0,0.0,0.0,0.0,0.0,0.0,0.0,0.0,0.0,0.0,0.0,0.0,0.0,0.0,0.0,0.0,0.0,0.0,0.0,0.0,0.0,0.0,0.0,0.0,0.0,0.0,0.0,0.0,0.0,0.0,0.0,0.0,0.0,0.0,0.0,0.0,0.0,0.0,0.0,0.0,0.0,0.0,0.0,0.0,0.0,0.0,0.0,0.0,0.0,0.0,0.0,0.0,0.0,0.0,0.0,0.0,0.0,0.0,0.0,0.0,0.0,0.0,0.0,0.0,0.0,0.0,0.0,0.0,0.0,0.0,0.0,0.0,0.0,0.0,0.0,0.0,0.0,0.0,0.0,0.0,0.0,0.0,0.0,0.0,0.0,0.0,0.0,0.0,0.0,0.0,0.0,0.0,0.0,0.0,0.0,0.0,0.0,0.0,0.0,0.0,0.0,0.0,0.0,0.0,0.0,0.0,0.0,0.0,0.0,0.0,0.0,0.0,0.0,0.0,0.0,0.0,0.0,0.0,0.0,0.0,0.0,0.0,0.0,0.0,0.0,0.0,0.0,0.0,0.0,0.0,0.0,0.0,0.0,0.0,0.0,0.0,0.0,0.0,0.0,0.0,0.0,0.0,0.0,0.0,0.0,0.0,0.0,0.0,0.0,0.0,0.0,0.0,0.0,0.0,0.0,0.0,0.0,0.0,0.0,0.0,0.0,0.0,0.0,0.0,0.0,0.0,0.0,0.0,0.0,0.0,0.0,0.0,0.0,0.0,0.0,0.0,0.0,0.0,0.0,0.0,0.0,0.0,0.0,0.0,0.0,0.0,0.0,0.0,0.0,0.0,0.0,0.0,0.0,0.0,0.0,0.0,0.0,0.0,0.0,0.0,0.0,0.0,0.0,0.0,0.0,0.0,0.0,0.0,0.0,0.0,0.0,0.0,0.0,0.0,0.0,0.0,0.0,0.0,0.0,0.0,0.0,0.0,0.0,0.0,0.0,0.0,0.0,0.0,0.0,0.0,0.0,0.0,0.0,0.0,0.0,0.0,0.0,0.0,0.0,0.0,0.0,0.0,0.0,0.0,0.0,0.0,0.0,0.0,0.0,0.0,0.0,0.0,0.0,0.0,0.0,0.0,0.0,0.0,0.0,0.0,0.0,0.0,0.0,0.0,0.0,0.0,0.0,0.0,0.0,0.0,0.0,0.0,0.0,0.0,0.0,0.0,0.0,0.0,0.0,0.0,0.0,0.0,0.0,0.0,0.0,0.0,0.0,0.0,0.0,0.0,0.0,0.0,0.0,0.0,0.0,0.0,0.0,0.0,0.0,0.0,0.0,0.0,0.0,0.0,0.0,0.0,0.0,0.0,0.0,0.0,0.0,0.0,0.0,0.0,0.0,0.0,0.0,0.0,0.0,0.0,0.0,0.0,0.0,0.0,0.0,0.0,0.0,0.0,0.0,0.0,0.0,0.0,0.0,0.0,0.0,0.0,0.0,0.0,0.0,0.0,0.0,0.0,0.0,0.0,0.0,0.0,0.0,0.0,0.0,0.0,0.0,0.0,0.0,0.0,0.0,0.0,0.0,0.0,0.0,0.0,0.0,0.0,0.0,0.0,0.0,0.0,0.0,0.0,0.0,0.0,0.0,0.0,0.0,0.0,0.0,0.0,0.0,0.0,0.0,0.0,0.0,0.0,0.0,0.0,0.0,0.0,0.0,0.0,0.0,0.0,0.0,0.0,0.0,0.0,0.0,0.0,0.0,0.0,0.0,0.0,0.0,0.0,0.0,0.0,0.0,0.0,0.0,0.0,0.0,0.0,0.0,0.0,0.0,0.0,0.0,0.0,0.0,0.0,0.0,0.0,0.0,0.0,0.0,0.0,0.0,0.0,0.0,0.0,0.0,0.0,0.0,0.0,0.0,0.0,0.0,0.0,0.0,0.0,0.0,0.0,0.0,0.0,0.0,0.0,0.0,0.0,0.0,0.0,0.0,0.0,0.0,0.0,0.0,0.0,0.0,0.0,0.0,0.0,0.0,0.0,0.0,0.0,0.0,0.0,0.0,0.0,0.0,0.0,0.0,0.0,0.0,0.0,0.0,0.0,0.0,0.0,0.0,0.0,0.0,0.0,0.0,0.0,0.0,0.0,0.0,0.0,0.0,0.0,0.0,0.0,0.0,0.0,0.0,0.0,0.0,0.0,0.0,0.0,0.0,0.0,0.0,0.0,0.0,0.0,0.0,0.0,0.0,0.0,0.0,0.0,0.0,0.0,0.0,0.0,0.0,0.0,0.0,0.0,0.0,0.0,0.0,0.0,0.0,0.0,0.0,0.0,0.0,0.0,0.0,0.0,0.0,0.0,0.0,0.0,0.0,0.0,0.0,0.0,0.0,0.0,0.0,0.0,0.0,0.0,0.0,0.0,0.0,0.0,0.0,0.0,0.0,0.0,0.0,0.0,0.0,0.0,0.0,0.0,0.0,0.0,0.0,0.0,0.0,0.0,0.0,0.0,0.0,0.0,0.0,0.0,0.0,0.0,0.0,0.0,0.0,0.0,0.0,0.0,0.0,0.0,0.0,0.0,0.0,0.0,0.0,0.0,0.0,0.0,0.0,0.0,0.0,0.0,0.0,0.0,0.0,0.0,0.0,0.0,-0.7023,0.0,0.0,0.0,0.0,0.0,0.0,0.0,0.0,0.0,0.0,0.0,0.0,0.0,0.0,0.0,0.0,0.0,0.0,0.0,0.0,0.0,0.0,0.0,0.0,0.0,0.0,0.0,0.0,0.0,0.0,0.0,0.0,0.0,0.0,0.0,0.0,0.0,0.0,0.0,0.0,0.0,0.0,0.0,0.0,0.0,0.0,0.0,0.0,0.0,0.0,0.0,0.0,0.0,0.0,0.0,0.0,0.0,0.0,0.0,0.0,0.0,0.0,0.0,0.0,0.0,0.0,0.0,0.0,0.0,0.0,0.0,0.0,0.0,0.0,0.0,0.0,0.0,0.0,0.0,0.0,0.0,0.0,0.0,0.0,0.0,0.0,0.0,0.0,0.0,0.0,0.0,0.0,0.0,0.0,0.0,0.0,0.0,0.0,0.0,0.0,0.0,0.0,0.0,0.0,0.0,0.0,0.0,0.0,0.0,0.0,-0.6959,-0.7171,-0.6194,-0.6215,-0.7322,0.0,0.0,0.0,0.0,0.0,0.0,0.0,0.0,0.0,0.0,0.0,0.0,0.0,0.0,0.0,0.0,0.0,0.0,0.0,0.0,0.0,0.0,0.0,0.0,0.0,0.0,0.0,0.0,0.0,0.0,0.0,0.0,0.0,0.0,0.0,0.0,0.0,0.0,0.0,0.0,0.0,0.0,0.0,0.0,0.0,0.0,0.0,0.0,0.0,0.0,0.0,0.0,0.0,0.0,0.0,0.0,0.0,0.0,0.0,0.0,0.0,0.0,0.0,0.0,0.0,0.0,0.0,0.0,0.0,0.0,0.0,0.0,0.0,0.0,0.0,0.0,0.0,0.0,0.0,0.0,0.0,0.0,0.0,0.0,0.0,0.0,0.0,0.0,0.0,0.0,0.0,0.0,0.0,0.0,0.0,0.0,0.0,0.0,0.0,0.0,0.0,0.0,0.0,0.0,0.0,0.0,0.0,0.0,0.0,0.0,0.0,0.0,-0.669,-0.662,-0.7472,0.0,0.0,0.0,0.0,0.0,0.0,0.0,0.0,0.0,0.0,0.0,0.0,0.0,0.0,0.0,0.0,0.0,0.0,0.0,0.0,0.0,0.0,0.0,0.0,0.0,0.0,0.0,0.0,0.0,0.0,0.0,0.0,0.0,0.0,0.0,0.0,0.0,0.0,0.0,0.0,0.0,0.0,0.0,0.0,0.0,0.0,0.0,0.0,0.0,0.0,0.0,0.0,0.0,0.0,0.0,0.0,0.0,0.0,0.0,0.0,0.0,0.0,0.0,0.0,0.0,0.0,0.0,0.0,0.0,0.0,0.0,0.0,0.0,0.0,0.0,0.0,0.0,0.0,0.0,0.0,0.0,0.0,0.0,0.0,0.0,0.0,0.0,0.0,0.0,0.0,0.0,0.0,0.0,0.0,0.0,0.0,0.0,0.0,0.0,0.0,0.0,0.0,0.0,0.0,0.0,0.0,0.0,0.0,0.0,0.0,-0.7796,-0.7768,-0.7679,0.0,-0.7913,0.0,0.0,0.0,0.0,0.0,0.0,0.0,0.0,0.0,0.0,0.0,0.0,0.0,0.0,0.0,0.0,0.0,0.0,0.0,0.0,0.0,0.0,0.0,0.0,0.0,0.0,0.0,0.0,0.0,0.0,0.0,0.0,0.0,0.0,0.0,0.0,0.0,0.0,0.0,0.0,0.0,0.0,0.0,0.0,0.0,0.0,0.0,0.0,0.0,0.0,0.0,0.0,0.0,0.0,0.0,0.0,0.0,0.0,0.0,0.0,0.0,0.0,0.0,0.0,0.0,0.0,0.0,0.0,0.0,0.0,0.0,0.0,0.0,0.0,0.0,0.0,0.0,0.0,0.0,0.0,0.0,0.0,0.0,0.0,0.0,0.0,0.0,0.0,0.0,0.0,0.0,0.0,0.0,0.0,0.0,0.0,0.0,0.0,0.0,0.0,0.0,0.0,0.0,0.0,0.0,0.0,0.0,0.0,0.0,0.0,-0.787,-0.7812,-0.7812,-0.787,0.0,0.0,0.0,0.0,0.0,0.0,0.0,0.0,0.0,0.0,0.0,0.0,0.0,0.0,0.0,0.0,0.0,0.0,0.0,0.0,0.0,0.0,0.0,0.0,0.0,0.0,0.0,0.0,0.0,0.0,0.0,0.0,0.0,0.0,0.0,0.0,0.0,0.0,0.0,0.0,0.0,0.0,0.0,0.0,0.0,0.0,0.0,0.0,0.0,0.0,0.0,0.0,0.0,0.0,0.0,0.0,0.0,0.0,0.0,0.0,0.0,0.0,0.0,0.0,0.0,0.0,0.0,0.0,0.0,0.0,0.0,0.0,0.0,0.0,0.0,0.0,0.0,0.0,0.0,0.0,0.0,0.0,0.0,0.0,0.0,0.0,0.0,0.0,0.0,0.0,0.0,0.0,0.0,0.0,0.0,0.0,0.0,0.0,0.0,0.0,0.0,0.0,0.0,0.0,0.0,0.0,0.0,0.0,0.0,0.0,-0.7899,-0.7899,-0.7856,-0.7856,-0.7914,-0.8055,0.0,0.0,0.0,0.0,0.0,0.0,0.0,0.0,0.0,0.0,0.0,0.0,0.0,0.0,0.0,0.0,0.0,0.0,0.0,0.0,0.0,0.0,0.0,0.0,0.0,0.0,0.0,0.0,0.0,0.0,0.0,0.0,0.0,0.0,0.0,0.0,0.0,0.0,0.0,0.0,0.0,0.0,0.0,0.0,0.0,0.0,0.0,0.0,0.0,0.0,0.0,0.0,0.0,0.0,0.0,0.0,0.0,0.0,0.0,0.0,0.0,0.0,0.0,0.0,0.0,0.0,0.0,0.0,0.0,0.0,0.0,0.0,0.0,0.0,0.0,0.0,0.0,0.0,0.0,0.0,0.0,0.0,0.0,0.0,0.0,0.0,0.0,0.0,0.0,0.0,0.0,0.0,0.0,0.0,0.0,0.0,0.0,0.0,0.0,0.0,0.0,0.0,0.0,0.0,0.0,0.0,0.0,0.0,-0.7911,-0.7911,-0.7941,-0.8,-0.8,-0.8057,0.0,0.0,0.0,0.0,0.0,0.0,0.0,0.0,0.0,0.0,0.0,0.0,0.0,0.0,0.0,0.0,0.0,0.0,0.0,0.0,0.0,0.0,0.0,0.0,0.0,0.0,0.0,0.0,0.0,0.0,0.0,0.0,0.0,0.0,0.0,0.0,0.0,0.0,0.0,0.0,0.0,0.0,0.0,0.0,0.0,0.0,0.0,0.0,0.0,0.0,0.0,0.0,0.0,0.0,0.0,0.0,0.0,0.0,0.0,0.0,0.0,0.0,0.0,0.0,0.0,0.0,0.0,0.0,0.0,0.0,0.0,0.0,0.0,0.0,0.0,0.0,0.0,0.0,0.0,0.0,0.0,0.0,0.0,0.0,0.0,0.0,0.0,0.0,0.0,0.0,0.0,0.0,0.0,0.0,0.0,0.0,0.0,0.0,0.0,0.0,0.0,0.0,0.0,0.0,0.0,0.0,0.0,0.0,0.0,-0.7986,-0.8394,-0.8394,-0.7988,-0.8349,-0.8453,0.0,0.0,0.0,0.0,0.0,0.0,0.0,0.0,0.0,0.0,0.0,0.0,0.0,0.0,0.0,0.0,0.0,0.0,0.0,0.0,0.0,0.0,0.0,0.0,0.0,0.0,0.0,0.0,0.0,0.0,0.0,0.0,0.0,0.0,0.0,0.0,0.0,0.0,0.0,0.0,0.0,0.0,0.0,0.0,0.0,0.0,0.0,0.0,0.0,0.0,0.0,0.0,0.0,0.0,0.0,0.0,0.0,0.0,0.0,0.0,0.0,0.0,0.0,0.0,0.0,0.0,0.0,0.0,0.0,0.0,0.0,0.0,0.0,0.0,0.0,0.0,0.0,0.0,0.0,0.0,0.0,0.0,0.0,0.0,0.0,0.0,0.0,0.0,0.0,0.0,0.0,0.0,0.0,0.0,0.0,0.0,0.0,0.0,0.0,0.0,0.0,0.0,0.0,0.0,0.0,0.0,0.0,0.0,0.0,-0.8436,0.0,-0.882,-0.8378,-0.8728,-0.8835,0.0,0.0,0.0,0.0,0.0,0.0,0.0,0.0,0.0,0.0,0.0,0.0,0.0,0.0,0.0,0.0,0.0,0.0,0.0,0.0,0.0,0.0,0.0,0.0,0.0,0.0,0.0,0.0,0.0,0.0,0.0,0.0,0.0,0.0,0.0,0.0,0.0,0.0,0.0,0.0,0.0,0.0,0.0,0.0,0.0,0.0,0.0,0.0,0.0,0.0,0.0,0.0,0.0,0.0,0.0,0.0,0.0,0.0,0.0,0.0,0.0,0.0,0.0,0.0,0.0,0.0,0.0,0.0,0.0,0.0,0.0,0.0,0.0,0.0,0.0,0.0,0.0,0.0,0.0,0.0,0.0,0.0,0.0,0.0,0.0,0.0,0.0,0.0,0.0,0.0,0.0,0.0,0.0,0.0,0.0,0.0,0.0,0.0,0.0,0.0,0.0,0.0,0.0,0.0,0.0,0.0,0.0,0.0,-0.9311,-0.9311,-0.9281,-0.9266,-0.9204,-0.9189,-0.9189,0.0,0.0,0.0,0.0,0.0,0.0,0.0,0.0,0.0,0.0,0.0,0.0,0.0,0.0,0.0,0.0,0.0,0.0,0.0,0.0,0.0,0.0,0.0,0.0,0.0,0.0,0.0,0.0,0.0,0.0,0.0,0.0,0.0,0.0,0.0,0.0,0.0,0.0,0.0,0.0,0.0,0.0,0.0,0.0,0.0,0.0,0.0,0.0,0.0,0.0,0.0,0.0,0.0,0.0,0.0,0.0,0.0,0.0,0.0,0.0,0.0,0.0,0.0,0.0,0.0,0.0,0.0,0.0,0.0,0.0,0.0,0.0,0.0,0.0,0.0,0.0,0.0,0.0,0.0,0.0,0.0,0.0,0.0,0.0,0.0,0.0,0.0,0.0,0.0,0.0,0.0,0.0,0.0,0.0,0.0,0.0,0.0,0.0,0.0,0.0,0.0,0.0,0.0,0.0,0.0,0.0,0.0,0.0,0.0,-1.0016,-1.0471,-1.0452,-0.995,-1.0404,-1.0503,0.0,0.0,0.0,0.0,0.0,0.0,0.0,0.0,0.0,0.0,0.0,0.0,0.0,0.0,0.0,0.0,0.0,0.0,0.0,0.0,0.0,0.0,0.0,0.0,0.0,0.0,0.0,0.0,0.0,0.0,0.0,0.0,0.0,0.0,0.0,0.0,0.0,0.0,0.0,0.0,0.0,0.0,0.0,0.0,0.0,0.0,0.0,0.0,0.0,0.0,0.0,0.0,0.0,0.0,0.0,0.0,0.0,0.0,0.0,0.0,0.0,0.0,0.0,0.0,0.0,0.0,0.0,0.0,0.0,0.0,0.0,0.0,0.0,0.0,0.0,0.0,0.0,0.0,0.0,0.0,0.0,0.0,0.0,0.0,0.0,0.0,0.0,0.0,0.0,0.0,0.0,0.0,0.0,0.0,0.0,0.0,0.0,0.0,0.0,0.0,0.0,0.0,0.0,0.0,0.0,0.0,0.0,0.0,0.0,-1.1671,-1.1814,-1.165,-1.1154,-1.1616,-1.1542,-1.091,0.0,0.0,0.0,0.0,0.0,0.0,0.0,0.0,0.0,0.0,0.0,0.0,0.0,0.0,0.0,0.0,0.0,0.0,0.0,0.0,0.0,0.0,0.0,0.0,0.0,0.0,0.0,0.0,0.0,0.0,0.0,0.0,0.0,0.0,0.0,0.0,0.0,0.0,0.0,0.0,0.0,0.0,0.0,0.0,0.0,0.0,0.0,0.0,0.0,0.0,0.0,0.0,0.0,0.0,0.0,0.0,0.0,0.0,0.0,0.0,0.0,0.0,0.0,0.0,0.0,0.0,0.0,0.0,0.0,0.0,0.0,0.0,0.0,0.0,0.0,0.0,0.0,0.0,0.0,0.0,0.0,0.0,0.0,0.0,0.0,0.0,0.0,0.0,0.0,0.0,0.0,0.0,0.0,0.0,0.0,0.0,0.0,0.0,0.0,0.0,0.0,0.0,0.0,0.0,0.0,0.0,0.0,0.0,-1.395,-1.331,-1.2948,-1.2851,-1.2729,-1.2351,0.0,0.0,0.0,0.0,0.0,0.0,0.0,0.0,0.0,0.0,0.0,0.0,0.0,0.0,0.0,0.0,0.0,0.0,0.0,0.0,0.0,0.0,0.0,0.0,0.0,0.0,0.0,0.0,0.0,0.0,0.0,0.0,0.0,0.0,0.0,0.0,0.0,0.0,0.0,0.0,0.0,0.0,0.0,0.0,0.0,0.0,0.0,0.0,0.0,0.0,0.0,0.0,0.0,0.0,0.0,0.0,0.0,0.0,0.0,0.0,0.0,0.0,0.0,0.0,0.0,0.0,0.0,0.0,0.0,0.0,0.0,0.0,0.0,0.0,0.0,0.0,0.0,0.0,0.0,0.0,0.0,0.0,0.0,0.0,0.0,0.0,0.0,0.0,0.0,0.0,0.0,0.0,0.0,0.0,0.0,0.0,0.0,0.0,0.0,0.0,0.0,0.0,0.0,0.0,0.0,0.0,0.0,0.0,0.0,-1.4791,-1.578,-1.5747,-1.4599,-1.3962,-1.3547,0.0,0.0,0.0,0.0,0.0,0.0,0.0,0.0,0.0,0.0,0.0,0.0,0.0,0.0,0.0,0.0,0.0,0.0,0.0,0.0,0.0,0.0,0.0,0.0,0.0,0.0,0.0,0.0,0.0,0.0,0.0,0.0,0.0,0.0,0.0,0.0,0.0,0.0,0.0,0.0,0.0,0.0,0.0,0.0,0.0,0.0,0.0,0.0,0.0,0.0,0.0,0.0,0.0,0.0,0.0,0.0,0.0,0.0,0.0,0.0,0.0,0.0,0.0,0.0,0.0,0.0,0.0,0.0,0.0,0.0,0.0,0.0,0.0,0.0,0.0,0.0,0.0,0.0,0.0,0.0,0.0,0.0,0.0,0.0,0.0,0.0,0.0,0.0,0.0,0.0,0.0,0.0,0.0,0.0,0.0,0.0,0.0,0.0,0.0,0.0,0.0,0.0,0.0,0.0,0.0,0.0,0.0,0.0,-1.5266,-1.6083,-1.7733,-1.8172,-1.7327,-1.6143,-1.5044,0.0,0.0,0.0,0.0,0.0,0.0,0.0,0.0,0.0,0.0,0.0,0.0,0.0,0.0,0.0,0.0,0.0,0.0,0.0,0.0,0.0,0.0,0.0,0.0,0.0,0.0,0.0,0.0,0.0,0.0,0.0,0.0,0.0,0.0,0.0,0.0,0.0,0.0,0.0,0.0,0.0,0.0,0.0,0.0,0.0,0.0,0.0,0.0,0.0,0.0,0.0,0.0,0.0,0.0,0.0,0.0,0.0,0.0,0.0,0.0,0.0,0.0,0.0,0.0,0.0,0.0,0.0,0.0,0.0,0.0,0.0,0.0,0.0,0.0,0.0,0.0,0.0,0.0,0.0,0.0,0.0,0.0,0.0,0.0,0.0,0.0,0.0,0.0,0.0,0.0,0.0,0.0,0.0,0.0,0.0,0.0,0.0,0.0,0.0,0.0,0.0,0.0,0.0,0.0,0.0,0.0,0.0,0.0,-1.6733,-1.7448,-1.9202,-2.012,-2.0119,-1.8427,-1.6509,0.0,0.0,0.0,0.0,0.0,0.0,0.0,0.0,0.0,0.0,0.0,0.0,0.0,0.0,0.0,0.0,0.0,0.0,0.0,0.0,0.0,0.0,0.0,0.0,0.0,0.0,0.0,0.0,0.0,0.0,0.0,0.0,0.0,0.0,0.0,0.0,0.0,0.0,0.0,0.0,0.0,0.0,0.0,0.0,0.0,0.0,0.0,0.0,0.0,0.0,0.0,0.0,0.0,0.0,0.0,0.0,0.0,0.0,0.0,0.0,0.0,0.0,0.0,0.0,0.0,0.0,0.0,0.0,0.0,0.0,0.0,0.0,0.0,0.0,0.0,0.0,0.0,0.0,0.0,0.0,0.0,0.0,0.0,0.0,0.0,0.0,0.0,0.0,0.0,0.0,0.0,0.0,0.0,0.0,0.0,0.0,0.0,0.0,0.0,0.0,0.0,0.0,0.0,0.0,0.0,0.0,0.0,0.0,-1.7276,-1.7662,-1.9807,-2.0653,-2.0044,-1.7876,-1.6557,0.0,0.0,0.0,0.0,0.0,0.0,0.0,0.0,0.0,0.0,0.0,0.0,0.0,0.0,0.0,0.0,0.0,0.0,0.0,0.0,0.0,0.0,0.0,0.0,0.0,0.0,0.0,0.0,0.0,0.0,0.0,0.0,0.0,0.0,0.0,0.0,0.0,0.0,0.0,0.0,0.0,0.0,0.0,0.0,0.0,0.0,0.0,0.0,-1.1415,0.0,0.0,0.0,0.0,0.0,0.0,0.0,0.0,0.0,0.0,0.0,0.0,0.0,0.0,0.0,0.0,0.0,0.0,0.0,0.0,0.0,0.0,0.0,0.0,0.0,0.0,0.0,0.0,0.0,0.0,0.0,0.0,0.0,0.0,0.0,0.0,0.0,0.0,0.0,0.0,0.0,0.0,0.0,0.0,0.0,0.0,0.0,0.0,0.0,0.0,0.0,0.0,0.0,0.0,0.0,0.0,0.0,0.0,0.0,-1.8104,-1.8741,-2.0668,-2.1542,-2.1068,-1.9192,-1.7658,0.0,0.0,0.0,0.0,0.0,0.0,0.0,0.0,0.0,0.0,0.0,0.0,0.0,0.0,0.0,0.0,0.0,0.0,0.0,0.0,0.0,0.0,0.0,0.0,0.0,0.0,0.0,0.0,0.0,0.0,0.0,0.0,0.0,0.0,0.0,0.0,0.0,0.0,0.0,0.0,0.0,0.0,0.0,0.0,0.0,0.0,0.0,0.0,0.0,0.0,0.0,0.0,0.0,0.0,0.0,0.0,0.0,0.0,0.0,0.0,0.0,0.0,0.0,0.0,0.0,0.0,0.0,0.0,0.0,0.0,0.0,0.0,0.0,0.0,0.0,0.0,0.0,0.0,0.0,0.0,0.0,0.0,0.0,0.0,0.0,0.0,0.0,0.0,0.0,0.0,0.0,0.0,0.0,0.0,0.0,0.0,0.0,0.0,0.0,0.0,0.0,0.0,0.0,0.0,0.0,0.0,0.0,-1.7749,-1.9024,-1.9941,-2.1478,-2.2338,-2.236,-2.0931,-1.911,-1.6954,0.0,0.0,0.0,0.0,0.0,0.0,0.0,0.0,0.0,0.0,0.0,0.0,0.0,0.0,0.0,0.0,0.0,0.0,0.0,0.0,0.0,0.0,0.0,0.0,0.0,0.0,0.0,0.0,0.0,0.0,0.0,0.0,0.0,0.0,0.0,0.0,0.0,0.0,-1.3286,-1.3944,0.0,0.0,0.0,0.0,0.0,0.0,0.0,0.0,-1.2401,0.0,0.0,0.0,0.0,0.0,0.0,0.0,0.0,0.0,0.0,0.0,0.0,0.0,0.0,0.0,0.0,0.0,0.0,0.0,0.0,0.0,0.0,0.0,0.0,0.0,0.0,0.0,0.0,0.0,0.0,0.0,0.0,0.0,0.0,0.0,0.0,0.0,0.0,0.0,0.0,0.0,0.0,0.0,0.0,0.0,0.0,0.0,0.0,0.0,0.0,0.0,0.0,0.0,0.0,0.0,0.0,-1.6174,-1.831,-1.9601,-2.001,-2.1488,-2.231,-2.2276,-2.1366,-2.0075,-1.8375,0.0,0.0,0.0,0.0,0.0,0.0,0.0,0.0,0.0,0.0,0.0,0.0,0.0,0.0,0.0,0.0,0.0,0.0,0.0,0.0,0.0,0.0,0.0,0.0,0.0,0.0,0.0,0.0,0.0,0.0,0.0,0.0,0.0,0.0,0.0,0.0,0.0,0.0,0.0,-1.432,-1.4411,0.0,0.0,0.0,0.0,0.0,0.0,0.0,0.0,-1.2648,0.0,0.0,0.0,0.0,0.0,0.0,0.0,0.0,0.0,0.0,0.0,0.0,0.0,0.0,0.0,0.0,0.0,0.0,0.0,0.0,0.0,0.0,0.0,0.0,0.0,0.0,0.0,0.0,0.0,0.0,0.0,0.0,0.0,0.0,0.0,0.0,0.0,0.0,0.0,0.0,0.0,0.0,0.0,0.0,0.0,0.0,0.0,0.0,0.0,0.0,0.0,0.0,0.0,0.0,0.0,-1.6828,-1.8684,-1.9796,-2.0035,-2.1488,-2.2327,-2.2282,-2.1457,-2.0468,0.0,0.0,0.0,0.0,0.0,0.0,0.0,0.0,0.0,0.0,0.0,0.0,0.0,0.0,0.0,0.0,0.0,0.0,0.0,0.0,0.0,0.0,0.0,0.0,0.0,0.0,0.0,0.0,0.0,0.0,0.0,0.0,0.0,0.0,0.0,0.0,0.0,0.0,0.0,0.0,-1.48,-1.5093,-1.5173,0.0,0.0,0.0,0.0,0.0,0.0,-1.466,-1.4129,0.0,0.0,0.0,0.0,0.0,0.0,0.0,0.0,0.0,0.0,0.0,0.0,0.0,0.0,0.0,0.0,0.0,0.0,0.0,0.0,0.0,0.0,0.0,0.0,0.0,0.0,0.0,0.0,0.0,0.0,0.0,0.0,0.0,0.0,0.0,0.0,0.0,0.0,0.0,0.0,0.0,0.0,0.0,0.0,0.0,0.0,0.0,0.0,0.0,0.0,0.0,0.0,0.0,0.0,0.0,-1.751,-1.9026,-1.9974,-2.0272,-2.16,-2.2327,-2.2282,-2.1294,-2.0404,0.0,0.0,0.0,0.0,0.0,0.0,0.0,0.0,0.0,0.0,0.0,0.0,0.0,0.0,0.0,0.0,0.0,0.0,0.0,0.0,0.0,0.0,0.0,0.0,0.0,0.0,0.0,0.0,0.0,0.0,0.0,0.0,0.0,0.0,0.0,0.0,0.0,0.0,0.0,0.0,0.0,-1.5802,-1.6072,-1.6626,0.0,0.0,0.0,0.0,-1.562,-1.5884,0.0,0.0,0.0,0.0,0.0,0.0,0.0,0.0,0.0,0.0,0.0,0.0,0.0,0.0,0.0,0.0,0.0,0.0,0.0,0.0,0.0,0.0,0.0,0.0,0.0,0.0,0.0,0.0,0.0,0.0,0.0,0.0,0.0,0.0,0.0,0.0,0.0,0.0,0.0,0.0,0.0,0.0,0.0,0.0,0.0,0.0,0.0,0.0,0.0,0.0,0.0,0.0,0.0,0.0,0.0,0.0,-1.8168,-1.9318,-2.0252,-2.1042,-2.187,-2.2327,-2.2265,-2.0726,-1.9834,0.0,0.0,0.0,0.0,0.0,0.0,0.0,0.0,0.0,0.0,0.0,0.0,0.0,0.0,0.0,0.0,0.0,0.0,0.0,0.0,0.0,0.0,0.0,0.0,0.0,0.0,0.0,0.0,0.0,0.0,0.0,0.0,0.0,0.0,0.0,0.0,0.0,0.0,0.0,0.0,0.0,-1.5998,-1.6756,-1.6946,-1.697,0.0,0.0,-1.7393,-1.79,-1.7606,0.0,0.0,0.0,0.0,0.0,0.0,0.0,0.0,0.0,0.0,0.0,0.0,0.0,0.0,0.0,0.0,0.0,0.0,0.0,0.0,0.0,0.0,0.0,0.0,0.0,0.0,0.0,0.0,0.0,0.0,0.0,0.0,0.0,0.0,0.0,0.0,0.0,0.0,0.0,0.0,0.0,0.0,0.0,0.0,0.0,0.0,0.0,0.0,0.0,0.0,0.0,0.0,0.0,0.0,0.0,-1.7782,-1.8433,-1.9889,-2.0803,-2.1194,-2.1921,-2.2327,-2.231,-2.0615,-1.9698,0.0,0.0,0.0,0.0,0.0,0.0,0.0,0.0,0.0,0.0,0.0,0.0,0.0,0.0,0.0,0.0,0.0,0.0,0.0,0.0,0.0,0.0,0.0,0.0,0.0,0.0,0.0,0.0,0.0,0.0,0.0,0.0,0.0,0.0,0.0,0.0,0.0,0.0,0.0,0.0,0.0,0.0,-1.7745,-1.8151,0.0,0.0,0.0,-1.9095,-1.8491,0.0,0.0,0.0,0.0,0.0,0.0,0.0,0.0,0.0,0.0,0.0,0.0,0.0,0.0,0.0,0.0,0.0,0.0,0.0,0.0,0.0,0.0,0.0,0.0,0.0,0.0,0.0,0.0,0.0,0.0,0.0,0.0,0.0,0.0,0.0,0.0,0.0,0.0,0.0,0.0,0.0,0.0,0.0,0.0,0.0,0.0,0.0,0.0,0.0,0.0,0.0,0.0,0.0,0.0,0.0,0.0,0.0,-1.8729,-2.0291,-2.1208,-2.1393,-2.195,-2.222,-2.2203,-2.0782,0.0,0.0,0.0,0.0,0.0,0.0,0.0,0.0,0.0,0.0,0.0,0.0,0.0,0.0,0.0,0.0,0.0,0.0,0.0,0.0,0.0,0.0,0.0,0.0,0.0,0.0,0.0,-0.8869,0.0,0.0,0.0,0.0,0.0,0.0,0.0,0.0,0.0,0.0,0.0,0.0,0.0,0.0,-1.8379,-1.8899,-1.9453,-1.9694,0.0,0.0,-2.0779,-1.957,-2.0007,-2.0205,0.0,0.0,0.0,0.0,0.0,0.0,0.0,0.0,0.0,0.0,0.0,0.0,0.0,0.0,0.0,0.0,0.0,0.0,0.0,0.0,0.0,0.0,0.0,0.0,0.0,0.0,0.0,0.0,0.0,0.0,0.0,0.0,0.0,0.0,0.0,0.0,0.0,0.0,0.0,0.0,0.0,0.0,0.0,0.0,0.0,0.0,0.0,0.0,0.0,0.0,0.0,0.0,0.0,0.0,0.0,-1.9225,-2.0345,-2.1262,-2.191,-2.1994,-2.2027,-2.2027,-2.1222,-2.0439,0.0,0.0,0.0,0.0,0.0,0.0,0.0,0.0,0.0,0.0,0.0,0.0,0.0,0.0,0.0,0.0,0.0,0.0,0.0,0.0,0.0,0.0,0.0,0.0,0.0,0.0,0.0,0.0,0.0,0.0,0.0,0.0,0.0,0.0,0.0,0.0,0.0,0.0,0.0,0.0,0.0,-1.8785,-2.0322,-2.0581,-2.0919,0.0,0.0,-2.2013,-2.2026,-2.218,-2.1978,-2.0978,0.0,0.0,0.0,0.0,0.0,0.0,0.0,0.0,0.0,0.0,0.0,0.0,0.0,0.0,0.0,0.0,0.0,0.0,0.0,0.0,0.0,0.0,0.0,0.0,0.0,0.0,0.0,0.0,0.0,0.0,0.0,0.0,0.0,0.0,0.0,0.0,0.0,0.0,0.0,0.0,0.0,0.0,0.0,0.0,0.0,0.0,0.0,0.0,0.0,0.0,0.0,0.0,0.0,-1.8741,-1.9267,-2.123,-2.2446,-2.2807,-2.3231,-2.3479,-2.3553,-2.2308,-2.1239,0.0,0.0,0.0,0.0,0.0,0.0,0.0,0.0,0.0,0.0,0.0,0.0,0.0,0.0,0.0,0.0,0.0,0.0,0.0,0.0,0.0,0.0,0.0,0.0,0.0,0.0,0.0,0.0,-1.0777,-1.1492,-1.1948,0.0,0.0,0.0,0.0,0.0,0.0,0.0,0.0,0.0,0.0,-2.0163,-2.1455,-2.1589,0.0,0.0,-2.2603,-2.2753,-2.2299,-2.2265,-2.2002,-2.1081,-2.0314,0.0,0.0,0.0,0.0,0.0,0.0,0.0,0.0,0.0,0.0,0.0,0.0,0.0,0.0,0.0,0.0,0.0,0.0,0.0,0.0,0.0,0.0,0.0,0.0,0.0,0.0,0.0,0.0,0.0,0.0,0.0,0.0,0.0,0.0,0.0,0.0,0.0,0.0,0.0,0.0,0.0,0.0,0.0,0.0,0.0,0.0,0.0,0.0,0.0,0.0,0.0,0.0,-1.9435,-1.9845,-2.195,-2.3176,-2.3488,-2.4007,-2.429,-2.4334,-2.3298,-2.2237,0.0,0.0,0.0,0.0,0.0,0.0,0.0,0.0,0.0,0.0,0.0,0.0,0.0,0.0,0.0,0.0,0.0,0.0,0.0,0.0,0.0,0.0,0.0,0.0,0.0,0.0,0.0,0.0,-1.1631,-1.2477,-1.3163,0.0,0.0,0.0,0.0,0.0,0.0,0.0,0.0,0.0,0.0,-2.1374,-2.2293,-2.243,-2.2489,-2.279,-2.3263,-2.3412,-2.2963,-2.2869,-2.2607,-2.177,0.0,0.0,0.0,0.0,0.0,0.0,0.0,0.0,0.0,0.0,0.0,0.0,0.0,0.0,0.0,0.0,0.0,0.0,0.0,0.0,0.0,0.0,0.0,0.0,0.0,0.0,0.0,0.0,0.0,0.0,-1.1173,0.0,0.0,0.0,0.0,0.0,0.0,0.0,0.0,0.0,0.0,0.0,0.0,0.0,0.0,0.0,0.0,0.0,0.0,0.0,0.0,0.0,0.0,-1.9868,-2.1339,-2.2419,-2.3272,-2.3951,-2.4,-2.4115,-2.4147,-2.4145,-2.3474,-2.2011,0.0,0.0,0.0,0.0,0.0,0.0,0.0,0.0,0.0,0.0,0.0,0.0,0.0,0.0,0.0,0.0,0.0,0.0,0.0,0.0,0.0,0.0,0.0,0.0,0.0,0.0,-1.1399,-1.2244,-1.3173,0.0,0.0,0.0,0.0,0.0,0.0,0.0,0.0,0.0,0.0,-2.1382,-2.2287,-2.29,-2.3048,-2.3341,-2.4133,-2.4155,-2.4155,-2.4385,-2.4349,-2.4124,0.0,0.0,0.0,0.0,0.0,0.0,0.0,0.0,0.0,0.0,0.0,0.0,0.0,0.0,0.0,0.0,0.0,0.0,0.0,0.0,0.0,0.0,0.0,0.0,0.0,0.0,0.0,-1.3532,-1.3634,0.0,0.0,0.0,0.0,0.0,0.0,0.0,0.0,0.0,0.0,0.0,-1.6876,-1.7556,0.0,0.0,0.0,0.0,0.0,0.0,0.0,0.0,0.0,0.0,0.0,0.0,-2.0715,-2.1278,-2.3293,-2.4497,-2.4797,-2.5295,-2.5579,-2.5698,-2.5296,-2.4355,-2.2849,0.0,0.0,0.0,0.0,0.0,0.0,0.0,0.0,0.0,0.0,0.0,0.0,0.0,0.0,0.0,0.0,0.0,0.0,0.0,0.0,0.0,0.0,0.0,0.0,0.0,-1.1907,0.0,0.0,0.0,0.0,0.0,0.0,0.0,0.0,0.0,0.0,0.0,-2.1528,-2.2113,-2.2318,-2.2758,-2.3621,-2.3787,-2.4155,0.0,0.0,0.0,0.0,0.0,0.0,0.0,0.0,0.0,0.0,0.0,0.0,0.0,0.0,-2.116,-1.9526,-1.9309,-1.9381,-1.9424,0.0,0.0,0.0,0.0,0.0,0.0,0.0,0.0,0.0,0.0,0.0,0.0,0.0,0.0,-1.5095,0.0,-1.5179,0.0,0.0,0.0,0.0,0.0,0.0,0.0,0.0,-1.7352,-1.8442,-1.9372,-2.0004,-2.0589,0.0,-2.0677,-1.9135,0.0,0.0,0.0,0.0,0.0,0.0,0.0,0.0,-2.1408,-2.1972,-2.3998,-2.526,-2.5562,-2.6044,-2.6312,-2.6417,-2.5816,-2.5041,-2.4034,-2.1974,-2.0683,0.0,0.0,0.0,0.0,0.0,0.0,0.0,0.0,0.0,0.0,0.0,0.0,0.0,0.0,0.0,0.0,0.0,0.0,0.0,0.0,0.0,0.0,0.0,-1.2973,0.0,0.0,0.0,0.0,0.0,0.0,0.0,0.0,0.0,-1.8812,-2.0778,-2.2389,-2.2957,-2.3382,-2.3707,-2.3925,0.0,0.0,0.0,0.0,0.0,0.0,0.0,-2.3603,-2.3143,-2.3396,-2.3682,-2.388,-2.4227,-2.4502,-2.4544,0.0,0.0,-2.1433,-2.1005,-2.1069,-2.1119,-2.1197,-2.1239,-2.1246,-2.122,-2.1347,0.0,0.0,0.0,0.0,0.0,0.0,0.0,0.0,-1.6988,-1.62,0.0,-1.6347,0.0,0.0,0.0,0.0,0.0,-1.6901,0.0,0.0,-2.1381,-2.2554,-2.1886,-2.2485,-2.2799,-2.275,-2.1858,-2.1327,-2.1246,-2.0586,0.0,0.0,0.0,0.0,0.0,0.0,-2.1923,-2.3395,-2.4558,-2.5491,-2.617,-2.6187,-2.6239,-2.6279,-2.5765,-2.5495,-2.5462,-2.394,-2.2775,-2.2041,-2.0201,0.0,0.0,0.0,0.0,0.0,0.0,0.0,0.0,0.0,0.0,0.0,0.0,0.0,0.0,0.0,0.0,0.0,0.0,0.0,0.0,-1.4412,0.0,0.0,0.0,0.0,0.0,0.0,0.0,0.0,0.0,0.0,-2.0278,-2.1877,-2.2976,-2.2887,0.0,0.0,0.0,0.0,-2.5006,-2.3981,-2.3862,-2.3946,-2.4062,-2.4827,-2.5463,-2.5579,0.0,0.0,-2.729,-2.6615,-2.6105,-2.6159,-2.6299,-2.5608,-2.3236,-2.2923,-2.2948,-2.294,-2.3045,-2.2987,-2.2967,-2.3102,-2.3016,-2.3526,0.0,0.0,0.0,0.0,-1.9419,-1.9909,-2.0942,-2.0623,-2.0384,-2.0255,-2.0478,0.0,0.0,0.0,0.0,0.0,0.0,-1.9872,-2.1147,-2.2181,-2.3177,-2.4198,-2.4398,-2.4763,-2.5245,-2.4464,-2.4017,-2.3967,-2.377,-2.2216,-1.9452,0.0,0.0,0.0,0.0,-2.3165,-2.4316,-2.5368,-2.5988,-2.6203,-2.6203,-2.6222,-2.6295,-2.563,-2.5581,-2.6168,-2.4727,-2.3527,-2.2765,-2.1635,0.0,0.0,0.0,0.0,0.0,0.0,0.0,0.0,0.0,0.0,0.0,0.0,0.0,0.0,0.0,0.0,0.0,0.0,0.0,-1.4448,-1.5851,-1.6095,0.0,0.0,0.0,0.0,0.0,0.0,0.0,0.0,0.0,-2.1917,-2.2483,-2.2757,0.0,0.0,-2.3977,-2.3607,-2.444,-2.523,-2.5572,-2.5734,0.0,-2.673,-2.6489,-2.6309,-2.6447,-2.6823,-2.7321,-2.7957,-2.7966,-2.7862,-2.7872,-2.7956,-2.7585,-2.6431,-2.6218,-2.6312,-2.6346,-2.6348,-2.6369,-2.635,-2.635,-2.6301,-2.7294,-2.4709,-2.2824,-2.2261,-2.2604,-2.2332,-2.2876,-2.3881,-2.3797,-2.3419,-2.2915,-2.3209,-2.2166,-2.0115,-2.0099,0.0,0.0,0.0,-2.1795,-2.3506,-2.3834,-2.4562,-2.5629,-2.6193,-2.6393,-2.6279,-2.611,-2.5859,-2.5541,-2.5122,-2.4011,-2.2178,0.0,0.0,-2.1718,-2.3095,-2.4081,-2.4713,-2.5664,-2.6203,-2.6203,-2.6203,-2.6239,-2.6241,-2.5844,-2.5862,-2.64,-2.5598,-2.4794,-2.4026,-2.2929,-2.1466,0.0,0.0,0.0,0.0,0.0,0.0,0.0,0.0,0.0,0.0,0.0,-1.5166,0.0,0.0,0.0,0.0,-1.5731,-1.5714,-1.6237,-1.6905,0.0,0.0,0.0,0.0,0.0,0.0,0.0,-1.8431,-1.9831,-2.1261,-2.2555,-2.2971,-2.3446,-2.4127,-2.4784,-2.5068,-2.4699,0.0,-2.6209,-2.6414,-2.6536,-2.6783,-2.7343,-2.7308,-2.7352,-2.7826,-2.8017,-2.8258,-2.8781,-2.8983,-2.9068,-2.912,-2.9153,-2.9014,-2.8567,-2.8621,-2.8453,-2.7854,-2.7719,-2.7731,-2.7731,-2.7742,-2.7742,-3.0228,-2.923,-2.5976,-2.511,-2.5745,-2.5216,-2.5527,-2.6333,-2.6369,-2.5483,-2.4076,-2.4941,-2.3881,-2.1422,-2.1342,0.0,-2.3761,-2.3177,-2.3769,-2.5392,-2.6071,-2.6405,-2.6528,-2.7802,-2.7736,-2.6495,-2.7105,-2.7031,-2.6385,-2.5461,-2.5321,-2.584,-2.5203,-2.4359,-2.3481,-2.4275,-2.4743,-2.4795,-2.5713,-2.6168,-2.6203,-2.6203,-2.6203,-2.6203,-2.6241,-2.6295,-2.6295,-2.6486,-2.6236,-2.5495,-2.4039,-2.2856,-2.1991,0.0,0.0,0.0,0.0,0.0,0.0,0.0,0.0,0.0,0.0,0.0,0.0,0.0,0.0,0.0,-1.8588,0.0,-1.8621,-1.7855,0.0,0.0,0.0,-1.7825,-1.8878,-1.9759,-2.0299,-2.0299,0.0,0.0,-2.2817,-2.3601,-2.4798,-2.6663,-2.7359,-2.7361,-2.6502,-2.7178,-2.7595,-2.6735,-2.6741,-2.6838,-2.7119,-2.7684,-2.8457,-2.9269,-2.9607,-2.9551,-2.9626,-2.9643,-2.9753,-2.9786,-2.9874,-2.9886,-2.9972,-2.9924,-2.9631,-2.8113,-2.7851,-2.784,-2.7929,-2.8,-2.8032,-3.1665,-3.0494,-2.9636,-2.8672,-2.7712,-2.7585,-2.7656,-2.7843,-2.7898,-2.7623,-2.7271,-2.7528,-2.6908,-2.576,-2.5182,-2.5447,-2.636,-2.6231,-2.668,-2.7595,-2.7777,-2.7898,-2.7914,-2.8262,-2.8229,-2.7914,-2.8063,-2.8025,-2.786,-2.764,-2.7191,-2.6569,-2.639,-2.5783,-2.4842,-2.5024,-2.5271,-2.5456,-2.5693,-2.5954,-2.6168,-2.6203,-2.6203,-2.6203,-2.6203,-2.6239,-2.6222,-2.6329,-2.6066,-2.538,-2.4525,-2.3435,-2.207,-2.024,0.0,0.0,0.0,0.0,0.0,0.0,0.0,0.0,0.0,-1.6464,-1.5221,0.0,-1.7272,0.0,-1.9969,-2.1096,-2.0606,-2.0376,0.0,0.0,-1.8574,-1.8789,-1.965,-2.1132,-2.204,-2.1938,-2.3283,-2.4587,-2.5476,-2.5688,-2.6505,-2.8307,-2.7468,-2.6554,-2.6368,-2.7141,-2.7691,-2.7589,-2.812,-2.8648,-2.8672,-2.8922,-2.917,-2.9455,-2.955,-2.9608,-2.9682,-2.97,-2.9698,-2.9735,-2.9789,-2.9859,-2.991,-2.9926,-2.9848,-2.9447,-2.9448,-2.9527,-2.9493,-2.9489,-2.9508,-3.2336,-3.1302,-3.0995,-3.0363,-2.951,-2.928,-2.9132,-2.9034,-2.9254,-2.9112,-2.8702,-2.8522,-2.8323,-2.8174,-2.7495,-2.7561,-2.8191,-2.7909,-2.8014,-2.839,-2.8688,-2.8671,-2.8445,-2.9019,-2.9003,-2.8428,-2.8688,-2.8671,-2.8428,-2.8428,-2.8229,-2.7958,-2.7974,-2.762,-2.692,-2.5828,-2.5346,-2.546,-2.561,-2.5864,-2.6168,-2.6203,-2.6019,-2.5565,-2.5513,-2.5313,-2.4895,-2.4933,-2.4857,-2.4513,-2.3852,-2.2973,-2.1831,-2.0521,-1.939,0.0,0.0,0.0,0.0,0.0,0.0,0.0,0.0,0.0,0.0,0.0,-1.8291,-1.8516,-2.0754,-2.1878,-2.104,-2.1028,-2.1019,-2.0956,-2.094,-2.143,-2.2705,-2.3731,-2.4317,-2.4248,-2.5114,-2.6056,-2.6885,-2.7017,-2.7519,-2.8901,-2.816,-2.752,-2.7606,-2.804,-2.8342,-2.8448,-2.8901,-2.9283,-2.9344,-2.9388,-2.9411,-2.9453,-2.9492,-2.9569,-2.9664,-2.9682,-2.97,-2.9699,-2.9735,-2.9771,-2.9842,-2.9861,-2.9859,-2.991,-2.9959,-3.0007,-3.0038,-3.0087,-3.0087,-3.2579,-3.1886,-3.1209,-3.087,-3.0787,-3.0282,-3.0,-2.9853,-3.0314,-3.0103,-2.9295,-2.881,-2.8907,-2.9476,-2.888,-2.8986,-2.9499,-2.8936,-2.8655,-2.8688,-2.9268,-2.9234,-2.8721,-2.993,-2.9864,-2.8721,-2.9268,-2.9251,-2.8655,-2.8655,-2.892,-2.932,-2.9353,-2.9181,-2.873,-2.6575,-2.5406,-2.5192,-2.5535,-2.5828,-2.6115,-2.5997,-2.551,-2.4694,-2.4544,-2.4081,-2.3253,-2.3342,-2.3446,-2.3448,-2.28,-2.2231,-2.1849,-2.0807,-1.9991,0.0,-1.9148,0.0,0.0,0.0,0.0,0.0,0.0,0.0,0.0,-1.9757,-1.9453,-1.9678,-2.1308,-2.202,-2.1268,-2.1291,-2.2043,-2.3688,-2.3925,-2.4595,-2.6176,-2.649,-2.6545,-2.6563,-2.668,-2.7031,-2.7643,-2.7844,-2.8201,-2.8777,-2.8874,-2.8851,-2.9056,-2.9034,-2.9034,-2.9197,-2.9218,-2.924,-2.9302,-2.9365,-2.9388,-2.9392,-2.9453,-2.9512,-2.9588,-2.9645,-2.9683,-2.9681,-2.9699,-2.9736,-2.9771,-2.979,-2.9808,-2.9859,-2.9876,-2.9945,-2.9975,-3.0022,-3.0057,-3.2847,-3.2149,-3.145,-3.0847,-3.0323,-2.9836,-2.9694,-2.9842,-3.0547,-3.0725,-3.0518,-2.9816,-2.9717,-3.0061,-2.9929,-3.0029,-3.0294,-3.0179,-3.0096,-3.0112,-3.0245,-3.0245,-3.0129,-3.0394,-3.0377,-3.0129,-3.0261,-3.0245,-3.0112,-3.0112,-2.9774,-2.9083,-2.9083,-2.8632,-2.7743,0.0,0.0,0.0,-2.5551,-2.5738,-2.5758,-2.4984,-2.4466,-2.4285,-2.3774,0.0,-2.3221,-2.3342,-2.3428,-2.3395,-2.2783,0.0,0.0,0.0,0.0,0.0,0.0,0.0,0.0,0.0,0.0,0.0,-2.1105,-2.0874,-2.1701,-2.1241,-2.1,-2.1324,-2.2371,-2.3253,-2.3815,-2.451,-2.5106,-2.5553,-2.5631,-2.585,-2.6376,-2.6986,-2.7369,-2.7387,-2.7887,-2.8324,-2.8476,-2.8549,-2.8585,-2.8773,-2.8881,-2.8929,-2.8934,-2.9017,-2.9062,-2.9112,-2.9178,-2.928,-2.9302,-2.9365,-2.9388,-2.9392,-2.9412,-2.9453,-2.9569,-2.9607,-2.9626,-2.9664,-2.9701,-2.9701,-2.9717,-2.9717,-2.9754,-2.9808,-2.9859,-2.9912,-2.9924,-2.9921,-2.994,-3.2998,0.0,-3.1599,-3.1207,0.0,-3.0228,-3.0114,-3.0478,-3.0371,-3.0571,-3.0881,-3.0833,-3.0774,-3.0686,-3.0669,-3.0603,-3.0543,-3.0865,-3.0874,-3.0543,-3.0891,-3.0874,-3.0468,-3.0468,-3.0468,-3.0468,-3.0468,-3.0468,-3.0468,-3.0468,-3.0261,-2.9732,-2.9732,-2.9477,-2.8934,-2.8576,-2.7599,-2.6008,-2.6146,-2.615,-2.5917,-2.5432,-2.4912,-2.4446,-2.4126,0.0,0.0,0.0,0.0,0.0,0.0,0.0,0.0,0.0,0.0,-2.2538,-2.2428,-2.2638,-2.3199,-2.2895,-2.3241,-2.4556,-2.4342,-2.3842,-2.3123,-2.2867,-2.3049,-2.3686,-2.4166,-2.463,-2.5127,-2.5586,-2.6072,-2.6554,-2.6651,-2.685,-2.7411,-2.7858,-2.8094,-2.8131,-2.8458,-2.8712,-2.8687,-2.8718,-2.8737,-2.8761,-2.881,-2.8858,-2.8858,-2.8929,-2.8998,-2.9062,-2.9175,-2.924,-2.928,-2.9283,-2.9365,-2.939,-2.9392,-2.9433,-2.9491,-2.955,-2.9607,-2.9664,-2.9683,-2.9701,-2.9701,-2.9682,-2.97,-2.9754,-2.9789,-2.9825,-2.9841,-2.9874,-2.9893,-3.3058,-3.2986,-3.1832,-3.1729,-3.2222,-3.0891,-3.0686,-3.1128,0.0,0.0,0.0,-3.1612,-3.1593,-3.1287,-3.1185,-3.0942,-3.0674,-3.1312,-3.1179,-3.0559,-3.1288,-3.1262,-3.0683,-3.0667,-3.0725,-3.0709,-3.0709,-3.0642,-3.0468,-3.0468,-3.0468,-3.0468,-3.0485,-3.0485,-3.0435,-2.9873,-2.8834,-2.7333,-2.6945,-2.6629,-2.6294,-2.5994,-2.5442,-2.4642,-2.4512,-2.4048,-2.3237,-2.3205,-2.3256,-2.3361,-2.3377,-2.3304,-2.3063,-2.372,-2.3917,-2.351,-2.4041,-2.482,-2.5763,-2.5647,-2.5979,-2.7085,-2.7168,-2.6355,-2.4462,-2.4549,-2.4945,-2.5578,-2.5782,-2.5878,-2.5948,-2.609,-2.6488,-2.7287,-2.7384,-2.7687,-2.8453,-2.8587,-2.8576,-2.8612,-2.8644,-2.8644,-2.8612,-2.8687,-2.8761,-2.8694,-2.8737,-2.8785,-2.881,-2.8905,-2.8975,-2.9017,-2.9108,-2.9178,-2.9178,-2.9259,-2.9323,-2.9365,-2.939,-2.9392,-2.9412,-2.9491,-2.955,-2.9588,-2.9626,-2.9683,-2.9701,-2.9701,-2.9701,-2.97,-2.9699,-2.9736,-2.9754,-2.9825,-2.9842,-3.3005,-3.3033,-3.2217,-3.2053,-3.2238,-3.1397,-3.1112,-3.1207,-3.1035,-3.1417,-3.2085,-3.1512,-3.1405,-3.1534,-3.111,-3.0998,-3.1106,-3.144,-3.1222,-3.0518,-3.1246,-3.1527,-3.147,-3.1427,-3.1427,-3.1427,-3.1411,-3.1139,-3.0576,-3.0526,-3.0468,-3.0485,-3.0443,-3.0417,-3.0401,-3.0369,-2.9906,-2.9039,-2.7568,-2.6781,-2.6706,-2.526,-2.4397,-2.4285,-2.3774,-2.3353,-2.3205,-2.3221,-2.3205,-2.3256,-2.3342,-2.3795,-2.4679,-2.498,-2.5275,-2.5555,-2.5733,-2.5897,-2.6031,-2.5446,-2.5441,-2.6178,-2.6264,-2.6152,-2.6005,-2.6103,-2.595,-2.547,-2.6116,-2.6513,-2.6528,-2.713,-2.7642,-2.7959,-2.8049,-2.8201,-2.8562,-2.8587,-2.8587,-2.8587,-2.8594,-2.8612,-2.8612,-2.8612,-2.8637,-2.8612,-2.8687,-2.8761,-2.8858,-2.8905,-2.8929,-2.8994,-2.9062,-2.9089,-2.9134,-2.9218,-2.9283,-2.9304,-2.9365,-2.939,-2.9392,-2.9394,-2.9453,-2.9492,-2.9588,-2.9626,-2.9626,-2.9645,-2.9683,-2.9682,-2.9682,-2.9718,-2.9719,-2.9737,-2.9735,-3.2773,-3.2772,-3.2207,-3.2316,-3.2699,-3.2435,-3.2361,-3.2345,-3.2345,-3.2313,-3.2317,-3.2313,-3.2292,-3.2109,-3.1935,-3.174,-3.1616,-3.2207,-3.213,-3.155,-3.2331,-3.2491,-3.2216,-3.2199,-3.2199,-3.2183,-3.1785,-3.1454,-3.1064,-3.0725,-3.0468,-3.0468,-3.0485,-3.0459,-3.0401,-3.0485,-3.0319,-2.9914,-2.8448,-2.7471,-2.7059,-2.5893,-2.5265,-2.5265,-2.4974,-2.4827,-2.4811,-2.4827,-2.4846,-2.49,-2.5003,-2.5343,-2.5899,-2.6134,-2.6316,-2.651,-2.6605,-2.665,-2.665,-2.6389,-2.6402,-2.6713,-2.6764,-2.6778,-2.6835,-2.6608,-2.6487,-2.6533,-2.6941,-2.7192,-2.721,-2.7543,-2.7842,-2.8053,-2.8164,-2.83,-2.8476,-2.8562,-2.8587,-2.8587,-2.8562,-2.8562,-2.8587,-2.8536,-2.851,-2.8587,-2.8637,-2.8694,-2.8834,-2.8839,-2.8881,-2.8975,-2.9062,-2.9108,-2.9108,-2.9152,-2.9218,-2.9302,-2.9323,-2.9365,-2.939,-2.9392,-2.9412,-2.9433,-2.9492,-2.955,-2.955,-2.9588,-2.9607,-2.9645,-2.9645,-2.9664,-2.9683,-2.9682,-2.9719,-3.2578,-3.2571,-3.2273,-3.2525,-3.3096,-3.3256,-3.3293,-3.3293,-3.3293,-3.3008,-3.2629,-3.3072,-3.3097,-3.2793,-3.2668,-3.2433,-3.2224,-3.2869,-3.2865,-3.2387,-3.3149,-3.3337,-3.2933,-3.2928,-3.2945,-3.2845,-3.2216,-3.1769,-3.1553,-3.0832,-3.0485,-3.0485,-3.0485,-3.0468,-3.0401,-3.0485,-3.0485,-3.0377,-2.9228,-2.8257,-2.7582,-2.6816,-2.6385,-2.6203,-2.6187,-2.6203,-2.6203,-2.6203,-2.6222,-2.6295,-2.645,-2.6537,-2.6691,-2.6792,-2.6926,-2.6975,-2.7055,-2.7103,-2.7152,-2.7233,-2.7264,-2.7282,-2.7299,-2.7299,-2.7279,-2.6901,-2.6899,-2.7452,-2.7565,-2.7642,-2.7654,-2.7642,-2.7736,-2.7968,-2.8126,-2.8219,-2.8353,-2.8484,-2.8562,-2.8536,-2.851,-2.851,-2.851,-2.8432,-2.8432,-2.851,-2.8587,-2.8662,-2.8761,-2.8785,-2.8834,-2.8929,-2.904,-2.9085,-2.9067,-2.9089,-2.9152,-2.924,-2.928,-2.9283,-2.9326,-2.9349,-2.939,-2.939,-2.9433,-2.9472,-2.9472,-2.9492,-2.9531,-2.9588,-2.9569,-2.9589,-2.9645,-2.9701,-2.9701,-3.2468,-3.2578,-3.254,-3.2749,-3.3096,-3.3256,-3.3293,-3.3293,-3.3293,-3.3277,-3.3182,-3.3277,-3.3261,-3.3171,-3.279,-3.2572,-3.2592,-3.3,-3.285,-3.2313,-3.3165,-3.3554,-3.3551,-3.3644,-3.369,-3.3591,-3.2945,-3.2282,-3.1692,-3.0924,-3.0501,-3.0443,-3.0485,-3.0443,-3.0417,-3.0443,-3.0468,-3.0468,-2.9691,-2.8986,-2.829,-2.7599,-2.6866,-2.622,-2.622,-2.6203,-2.6203,-2.6203,-2.6222,-2.6295,-2.645,-2.652,-2.6606,-2.6792,-2.6893,-2.6926,-2.7023,-2.7152,-2.725,-2.7201,-2.7184,-2.7299,-2.7299,-2.7299,-2.7299,-2.7324,-2.7334,-2.7496,-2.763,-2.7672,-2.7701,-2.7672,-2.7777,-2.7957,-2.8071,-2.8136,-2.8273,-2.838,-2.8406,-2.8424,-2.8406,-2.838,-2.8353,-2.8327,-2.8371,-2.8432,-2.8587,-2.8687,-2.8737,-2.8743,-2.881,-2.8905,-2.897,-2.9017,-2.8998,-2.9062,-2.9108,-2.913,-2.9175,-2.92,-2.9222,-2.9283,-2.9304,-2.9326,-2.937,-2.9392,-2.9412,-2.9453,-2.9492,-2.9511,-2.9512,-2.9512,-2.9589,-2.9645,-2.9683,-3.2453,-3.2523,-3.2594,-3.2812,-3.3096,-3.315,-3.3203,-3.3293,-3.3293,-3.3293,-3.3293,-3.3293,-3.3293,-3.3293,-3.3081,-3.3022,-3.3022,-3.3278,-3.3319,-3.321,-3.3616,-3.386,-3.399,-3.4151,-3.4199,-3.418,-3.3644,-3.3193,-3.2746,-3.1735,-3.113,-3.1021,-3.0716,-3.0485,-3.0401,-3.0485,-3.0485,-3.0443,-3.0187,-2.9715,-2.9003,-2.829,-2.7616,-2.6932,-2.6833,-2.6617,-2.627,-2.6258,-2.6312,-2.6434,-2.652,-2.6589,-2.6657,-2.6759,-2.6792,-2.6792,-2.6957,-2.7137,-2.7299,-2.7233,-2.7233,-2.7299,-2.7299,-2.7299,-2.7299,-2.7345,-2.7407,-2.7469,-2.7526,-2.7569,-2.76,-2.763,-2.7659,-2.7766,-2.7911,-2.8099,-2.8182,-2.8291,-2.8353,-2.838,-2.8353,-2.8327,-2.8327,-2.8327,-2.838,-2.8458,-2.8587,-2.8662,-2.8737,-2.8761,-2.8767,-2.8881,-2.8929,-2.897,-2.8975,-2.9017,-2.9062,-2.9108,-2.913,-2.9134,-2.9178,-2.9218,-2.924,-2.924,-2.9286,-2.9328,-2.9347,-2.939,-2.9431,-2.9451,-2.9492,-2.9531,-2.955,-2.9607,-2.9645,-3.2398,-3.2453,-3.2523,-3.2757,-3.2973,-3.2989,-3.3096,-3.3256,-3.3203,-3.3219,-3.3256,-3.3256,-3.3256,-3.324,-3.3309,-3.3293,-3.3309,-3.345,-3.3607,-3.3813,-3.3848,-3.4,-3.4201,-3.4399,-3.448,-3.4431,-3.4027,-3.3673,-3.3375,-3.2266,-3.1576,-3.1461,-3.0849,-3.0485,-3.0443,-3.0485,-3.0485,-3.0443,-3.0468,-3.0261,-2.9698,-2.9019,-2.8224,-2.74,-2.7081,-2.6717,-2.6253,-2.6241,-2.6364,-2.6485,-2.6722,-2.6892,-2.7012,-2.7199,-2.725,-2.7097,-2.7198,-2.7245,-2.7267,-2.725,-2.725,-2.7299,-2.7299,-2.7299,-2.7299,-2.7345,-2.7393,-2.7393,-2.7421,-2.7483,-2.7496,-2.7557,-2.7587,-2.7587,-2.7795,-2.7968,-2.7979,-2.8119,-2.8246,-2.8291,-2.8219,-2.8219,-2.8219,-2.83,-2.8406,-2.8388,-2.8536,-2.8637,-2.8712,-2.8737,-2.8743,-2.8858,-2.8881,-2.8905,-2.897,-2.8994,-2.904,-2.9062,-2.9085,-2.9108,-2.9134,-2.9152,-2.9175,-2.9175,-2.9259,-2.9302,-2.9323,-2.9347,-2.9388,-2.9411,-2.9451,-2.9491,-2.9472,-2.9531,-2.9569,-3.2398,-3.2382,-3.2508,-3.2594,-3.2648,-3.2843,-3.2989,-3.3096,-3.3005,-3.3005,-3.3112,-3.3096,-3.3112,-3.3096,-3.3256,-3.3293,-3.3309,-3.345,-3.3503,-3.3555,-3.3745,-3.3899,-3.3949,-3.43,-3.4497,-3.4399,-3.4079,-3.3541,-3.2862,-3.2067,-3.1576,-3.156,-3.0898,-3.0501,-3.0468,-3.0468,-3.0468,-3.0485,-3.0468,-3.0435,-3.0344,-2.9698,-2.8622,-2.7466,-2.6651,-2.6319,-2.622,-2.622,-2.6343,-2.6502,-2.7157,-2.7563,-2.7772,-2.8383,-2.8401,-2.7947,-2.7879,-2.7674,-2.7206,-2.7135,-2.7166,-2.7299,-2.7299,-2.7299,-2.7299,-2.733,-2.733,-2.733,-2.7376,-2.7438,-2.7465,-2.7496,-2.7496,-2.7526,-2.7689,-2.7777,-2.773,-2.7968,-2.8053,-2.8053,-2.8025,-2.8042,-2.7975,-2.8209,-2.8327,-2.8335,-2.8518,-2.8669,-2.8637,-2.8687,-2.8737,-2.8785,-2.881,-2.8834,-2.8887,-2.8952,-2.8994,-2.8998,-2.904,-2.9017,-2.904,-2.9062,-2.9085,-2.913,-2.9197,-2.928,-2.9302,-2.9344,-2.9386,-2.9388,-2.9411,-2.9412,-2.9431,-2.9453,-2.9492,-3.2191,-3.215,-3.2302,-3.2413,-3.2468,-3.2648,-3.2866,-3.3096,-3.3058,-3.3112,-3.3203,-3.3165,-3.315,-3.3256,-3.3219,-3.3203,-3.3309,-3.3346,-3.3398,-3.3503,-3.3503,-3.3555,-3.3642,-3.4066,-3.4151,-3.4052,-3.4331,-3.4259,-3.3867,-3.3267,-3.2673,-3.2055,-3.1483,-3.0964,-3.0567,-3.0468,-3.0468,-3.0468,-3.0468,-3.0468,-3.0369,-2.9367,-2.8472,-2.803,-2.7317,-2.6667,-2.6236,-2.667,-2.6992,-2.7064,-2.7458,-2.77,-2.7702,-2.7587,-2.7504,-2.7318,-2.7351,-2.7281,-2.7137,-2.7201,-2.725,-2.7299,-2.7299,-2.7299,-2.7299,-2.7299,-2.7299,-2.7299,-2.733,-2.7345,-2.7359,-2.7452,-2.7483,-2.7452,-2.7526,-2.7659,-2.7719,-2.7806,-2.7893,-2.7968,-2.7957,-2.7986,-2.8099,-2.8219,-2.8327,-2.8458,-2.8543,-2.8637,-2.8662,-2.8662,-2.8662,-2.8712,-2.8737,-2.8761,-2.8852,-2.8929,-2.8975,-2.8975,-2.9017,-2.9017,-2.9017,-2.9017,-2.9044,-2.9062,-2.913,-2.9197,-2.9218,-2.9302,-2.9326,-2.9386,-2.937,-2.937,-2.939,-2.9411,-2.9412,-3.215,-3.2094,-3.2191,-3.2287,-3.2398,-3.2508,-3.2687,-3.2935,-3.2866,-3.2973,-3.3112,-3.3043,-3.3096,-3.3203,-3.3203,-3.3203,-3.3309,-3.3293,-3.3346,-3.3466,-3.3361,-3.3346,-3.345,-3.3797,-3.3899,-3.3949,-3.4546,-3.4787,-3.4544,-3.4044,-3.3433,-3.28,-3.2012,-3.1345,-3.0924,-3.0659,-3.0468,-3.0468,-3.0468,-3.0468,-3.0377,-2.9334,-2.8605,-2.8307,-2.7661,-2.6932,-2.6253,-2.6703,-2.7025,-2.7061,-2.7406,-2.7729,-2.7952,-2.7688,-2.7368,-2.7233,-2.7283,-2.7246,-2.7122,-2.7169,-2.725,-2.7299,-2.7299,-2.7299,-2.7299,-2.7299,-2.7299,-2.7299,-2.7299,-2.7299,-2.733,-2.739,-2.7421,-2.7376,-2.7452,-2.7509,-2.763,-2.7672,-2.776,-2.7882,-2.7929,-2.7996,-2.8091,-2.8174,-2.83,-2.844,-2.8536,-2.8612,-2.8662,-2.8619,-2.8619,-2.8687,-2.8694,-2.8737,-2.8785,-2.8876,-2.8952,-2.8952,-2.8975,-2.8975,-2.8975,-2.8975,-2.9017,-2.9017,-2.904,-2.9108,-2.9152,-2.9218,-2.9262,-2.9326,-2.9326,-2.9304,-2.9347,-2.9368,-2.937,-3.2191,-3.2191,-3.2327,-3.2342,-3.2398,-3.2382,-3.2468,-3.2594,-3.2523,-3.2648,-3.2935,-3.2912,-3.2989,-3.3112,-3.3203,-3.3309,-3.3293,-3.3293,-3.3309,-3.3309,-3.3309,-3.3293,-3.3346,-3.3607,-3.3899,-3.4134,-3.4643,-3.4851,-3.4802,-3.4237,-3.3839,-3.3462,-3.2321,-3.1686,-3.1543,-3.0874,-3.0468,-3.0468,-3.0468,-3.0468,-3.0385,-2.9731,-2.9003,-2.839,-2.7699,-2.6949,-2.6236,-2.6303,-2.6421,-2.6528,-2.7061,-2.7855,-2.8404,-2.8513,-2.8467,-2.774,-2.7827,-2.7589,-2.711,-2.7055,-2.7169,-2.725,-2.7299,-2.7282,-2.7282,-2.7299,-2.7299,-2.7299,-2.7299,-2.7299,-2.7299,-2.733,-2.7313,-2.733,-2.739,-2.7483,-2.7526,-2.763,-2.7701,-2.7748,-2.7836,-2.7893,-2.7847,-2.8035,-2.8246,-2.8255,-2.8388,-2.851,-2.8605,-2.8587,-2.8619,-2.8669,-2.8669,-2.8694,-2.8761,-2.8828,-2.8881,-2.8929,-2.8952,-2.8975,-2.8975,-2.8975,-2.8975,-2.9017,-2.904,-2.9085,-2.913,-2.9197,-2.92,-2.9222,-2.924,-2.924,-2.9283,-2.9304,-2.9365,-3.1955,-3.194,-3.2109,-3.2191,-3.2247,-3.2342,-3.2468,-3.2594,-3.2578,-3.2757,-3.2989,-3.2951,-3.3058,-3.3203,-3.3203,-3.3203,-3.3293,-3.3293,-3.3309,-3.3309,-3.3293,-3.3293,-3.3398,-3.371,-3.4101,-3.4448,-3.4594,-3.4643,-3.461,-3.4556,-3.4272,-3.3505,-3.2755,-3.2116,-3.162,-3.0849,-3.0468,-3.0468,-3.0468,-3.0468,-3.046,-2.9798,-2.9085,-2.839,-2.7699,-2.6949,-2.6303,-2.6684,-2.6952,-2.7028,-2.7297,-2.7458,-2.7382,-2.7366,-2.7248,-2.7097,-2.7165,-2.7165,-2.6994,-2.6975,-2.704,-2.7089,-2.712,-2.7135,-2.7184,-2.7233,-2.7299,-2.7299,-2.7299,-2.7299,-2.7299,-2.7299,-2.7299,-2.7299,-2.7345,-2.7407,-2.7438,-2.7557,-2.763,-2.7701,-2.776,-2.7806,-2.7893,-2.8053,-2.8109,-2.8219,-2.8309,-2.8432,-2.8458,-2.8536,-2.8587,-2.8637,-2.8637,-2.8644,-2.8712,-2.8737,-2.8785,-2.8858,-2.8905,-2.8952,-2.8975,-2.8975,-2.8975,-2.8998,-2.904,-2.9062,-2.9108,-2.9152,-2.9134,-2.9178,-2.9197,-2.9218,-2.924,-2.9262,-2.9302,-3.1784,-3.1841,-3.1955,-3.2053,-3.215,-3.2247,-3.2358,-3.2468,-3.2523,-3.2703,-3.2881,-3.2935,-3.3043,-3.3203,-3.3203,-3.3203,-3.3309,-3.3398,-3.345,-3.3466,-3.345,-3.3503,-3.3642,-3.3949,-3.425,-3.4513,-3.4643,-3.4643,-3.4643,-3.4787,-3.4572,-3.395,-3.3102,-3.2481,-3.1934,-3.104,-3.0468,-3.0468,-3.0468,-3.0468,-3.0385,-3.0022,-2.9367,-2.8506,-2.8174,-2.7446,-2.6435,-2.6899,-2.7205,-2.7061,-2.7102,-2.7009,-2.6708,-2.6691,-2.6657,-2.6708,-2.6792,-2.6842,-2.6893,-2.6909,-2.6975,-2.7007,-2.704,-2.7055,-2.7087,-2.7169,-2.7218,-2.7186,-2.7267,-2.7282,-2.7233,-2.7299,-2.7299,-2.7299,-2.7299,-2.733,-2.7425,-2.7483,-2.7587,-2.763,-2.7659,-2.7748,-2.7836,-2.7957,-2.7996,-2.8109,-2.8219,-2.83,-2.8327,-2.8432,-2.8484,-2.8536,-2.8587,-2.8612,-2.8662,-2.8687,-2.8687,-2.8785,-2.8858,-2.8905,-2.8952,-2.8975,-2.8975,-2.8975,-2.9017,-2.9017,-2.9062,-2.9044,-2.9067,-2.913,-2.9152,-2.9152,-2.9152,-2.9218,-2.928,-3.1799,-3.1799,-3.1955,-3.1996,-3.2038,-3.2135,-3.2247,-3.2247,-3.2468,-3.2594,-3.2703,-3.2881,-3.3043,-3.3096,-3.3203,-3.3309,-3.3346,-3.3607,-3.371,-3.3761,-3.3761,-3.3899,-3.4034,-3.4284,-3.4399,-3.4448,-3.4756,-3.4899,-3.4851,-3.4899,-3.4899,-3.4684,-3.3408,-3.2663,-3.2315,-3.1239,-3.0468,-3.0468,-3.0468,-3.0468,-3.0468,-3.0477,-2.9864,-2.8588,-2.8837,-2.8241,-2.6783,-2.6869,-2.6906,-2.6464,-2.6587,-2.669,-2.664,-2.6674,-2.6708,-2.6691,-2.6708,-2.6759,-2.6842,-2.6876,-2.6926,-2.6942,-2.6975,-2.6992,-2.7007,-2.7072,-2.7087,-2.704,-2.7154,-2.7233,-2.7152,-2.7201,-2.7299,-2.7299,-2.7299,-2.7313,-2.7407,-2.7483,-2.7609,-2.7739,-2.7704,-2.7735,-2.7924,-2.8,-2.8023,-2.7986,-2.8053,-2.8136,-2.8219,-2.8345,-2.8398,-2.8476,-2.8536,-2.8587,-2.8637,-2.8637,-2.8662,-2.8687,-2.8785,-2.8834,-2.8905,-2.8929,-2.8975,-2.8975,-2.8975,-2.8975,-2.8998,-2.8998,-2.8998,-2.9021,-2.9062,-2.904,-2.9085,-2.9152,-2.9218,-3.1655,-3.1799,-3.1841,-3.194,-3.2135,-3.2206,-3.2231,-3.2342,-3.2413,-3.2523,-3.2633,-3.2703,-3.2812,-3.2935,-3.3187,-3.3293,-3.3398,-3.3694,-3.4,-3.4167,-3.425,-3.425,-3.43,-3.4399,-3.4546,-3.4594,-3.4787,-3.4899,-3.4899,-3.4849,-3.4866,-3.4833,-3.3375,-3.2646,-3.2448,-3.1222,-3.0559,-3.0468,-3.0468,-3.0468,-3.0468,-3.0468,-3.0079,-2.9268,-2.8853,-2.8141,-2.7085,-2.669,-2.6562,-2.6467,-2.6537,-2.664,-2.664,-2.664,-2.664,-2.6691,-2.6691,-2.6691,-2.6742,-2.6742,-2.6775,-2.6792,-2.6876,-2.6909,-2.6926,-2.6992,-2.7007,-2.7024,-2.704,-2.7087,-2.7103,-2.7135,-2.7201,-2.7299,-2.7299,-2.7345,-2.7452,-2.7513,-2.7749,-2.8395,-2.85,-2.8548,-2.8526,-2.8521,-2.8375,-2.7947,-2.7893,-2.8025,-2.8126,-2.8264,-2.8371,-2.8458,-2.8536,-2.8587,-2.8612,-2.8612,-2.8612,-2.8637,-2.8687,-2.8743,-2.8815,-2.8881,-2.8905,-2.891,-2.8952,-2.8975,-2.8975,-2.8998,-2.8998,-2.8975,-2.8998,-2.9017,-2.904,-2.9067,-2.9134,-3.1539,-3.1655,-3.167,-3.1826,-3.2053,-3.2109,-3.2191,-3.2358,-3.2453,-3.2468,-3.2523,-3.2648,-3.2773,-3.2843,-3.3096,-3.3256,-3.3361,-3.3694,-3.405,-3.43,-3.4546,-3.4594,-3.4546,-3.4594,-3.4707,-3.4691,-3.4835,-3.4899,-3.4833,-3.4601,-3.4452,-3.4137,-3.2961,-3.2266,-3.2133,-3.1172,-3.0468,-3.0468,-3.0468,-3.0468,-3.0468,-3.0468,-2.9897,-2.9268,-2.8771,-2.8373,-2.74,-2.6659,-2.6347,-2.6468,-2.6554,-2.664,-2.6691,-2.6691,-2.6657,-2.6708,-2.6708,-2.6708,-2.6708,-2.6708,-2.6708,-2.6691,-2.6792,-2.6792,-2.6825,-2.6909,-2.6942,-2.6876,-2.6942,-2.7007,-2.7023,-2.7055,-2.712,-2.7201,-2.7233,-2.7296,-2.7469,-2.7747,-2.8171,-2.8732,-2.9127,-2.918,-2.8983,-2.8912,-2.8491,-2.7976,-2.7789,-2.7893,-2.8014,-2.8182,-2.8318,-2.8406,-2.8484,-2.851,-2.8536,-2.8536,-2.8562,-2.8587,-2.8637,-2.8694,-2.8743,-2.881,-2.8834,-2.8881,-2.8929,-2.8952,-2.8952,-2.8975,-2.8975,-2.8975,-2.8975,-2.8998,-2.8998,-2.9021,-2.9089,-3.1467,-3.1467,-3.1467,-3.1612,-3.1784,-3.1955,-3.2038,-3.2247,-3.2413,-3.2468,-3.2468,-3.2718,-3.2718,-3.2648,-3.3043,-3.3187,-3.3414,-3.3813,-3.4101,-3.4399,-3.4626,-3.4706,-3.4477,-3.4754,-3.4787,-3.4723,-3.4785,-3.4717,-3.4502,-3.4005,-3.3707,-3.3392,-3.2299,-3.1676,-3.156,-3.0865,-3.0518,-3.0468,-3.0468,-3.0468,-3.0468,-3.0435,-2.993,-2.8986,-2.8704,-2.834,-2.7417,-2.6692,-2.6364,-2.6468,-2.6537,-2.6606,-2.6674,-2.6674,-2.6708,-2.6708,-2.6708,-2.6708,-2.6708,-2.6708,-2.6708,-2.6691,-2.6691,-2.6708,-2.6742,-2.6825,-2.6825,-2.6742,-2.6892,-2.6942,-2.6959,-2.6942,-2.704,-2.7087,-2.7103,-2.7184,-2.7466,-2.8048,-2.8612,-2.8928,-2.9557,-2.9624,-2.9267,-2.8947,-2.8719,-2.7877,-2.776,-2.7882,-2.7986,-2.8126,-2.8237,-2.8273,-2.8353,-2.8432,-2.8458,-2.8484,-2.8518,-2.8562,-2.8587,-2.8637,-2.8712,-2.8761,-2.8785,-2.881,-2.8858,-2.8905,-2.8929,-2.8929,-2.8975,-2.8975,-2.8975,-2.8975,-2.8998,-2.904,-2.9085,-3.1467,-3.1467,-3.1467,-3.1597,-3.1799,-3.1841,-3.1981,-3.2191,-3.2262,-3.2358,-3.2398,-3.2453,-3.2648,-3.2827,-3.315,-3.345,-3.3745,-3.4018,-3.4349,-3.4594,-3.4643,-3.4424,-3.4272,-3.4601,-3.4849,-3.4653,-3.4253,-3.4054,-3.3856,-3.3342,-3.2911,-3.2762,-3.2067,-3.156,-3.1427,-3.0832,-3.0468,-3.0468,-3.0468,-3.0468,-3.0468,-3.0452,-3.0063,-2.9102,-2.829,-2.7661,-2.7263,-2.6584,-2.6274,-2.6347,-2.6434,-2.6554,-2.6606,-2.664,-2.6657,-2.6674,-2.6708,-2.6708,-2.6708,-2.6708,-2.6708,-2.6708,-2.6708,-2.6708,-2.6708,-2.6742,-2.6742,-2.6708,-2.6742,-2.6808,-2.6876,-2.6942,-2.6975,-2.699,-2.7023,-2.7055,-2.7255,-2.7969,-2.8754,-2.9475,-3.0186,-3.0569,-2.9881,-2.9653,-2.9105,-2.8052,-2.7777,-2.7871,-2.7986,-2.8116,-2.8154,-2.8237,-2.8291,-2.8353,-2.8406,-2.8432,-2.8484,-2.851,-2.8536,-2.8587,-2.8637,-2.8687,-2.8712,-2.8737,-2.8785,-2.8834,-2.8839,-2.8905,-2.8929,-2.8952,-2.8975,-2.8975,-2.8975,-2.904,-2.904,-3.1524,-3.1655,-3.1655,-3.1769,-3.1996,-3.1996,-3.2094,-3.2247,-3.2287,-3.2342,-3.2453,-3.2523,-3.2703,-3.2966,-3.3309,-3.3607,-3.3751,-3.3843,-3.4186,-3.451,-3.4442,-3.4107,-3.4054,-3.4369,-3.4618,-3.3972,-3.3475,-3.3276,-3.3077,-3.2597,-3.2183,-3.2116,-3.147,-3.109,-3.1106,-3.0667,-3.0501,-3.0468,-3.0468,-3.0468,-3.0468,-3.0452,-2.993,-2.9003,-2.7876,-2.7147,-2.675,-2.6435,-2.622,-2.6258,-2.631,-2.6415,-2.6503,-2.6537,-2.6572,-2.6623,-2.6657,-2.6674,-2.6691,-2.6708,-2.6708,-2.6708,-2.6708,-2.6708,-2.6708,-2.6708,-2.6708,-2.6708,-2.6691,-2.6725,-2.6792,-2.6825,-2.6859,-2.6942,-2.6959,-2.6975,-2.7192,-2.7887,-2.8587,-2.9288,-2.9876,-2.9892,-2.9732,-2.9624,-2.9074,-2.7864,-2.773,-2.7806,-2.8014,-2.8099,-2.8154,-2.8209,-2.8264,-2.8318,-2.8345,-2.838,-2.8406,-2.8432,-2.8458,-2.851,-2.8562,-2.8587,-2.8594,-2.8662,-2.8712,-2.8743,-2.8767,-2.8815,-2.8881,-2.8881,-2.8905,-2.8929,-2.8952,-2.8975,-2.9017,-3.1402,-3.1498,-3.1588,-3.1717,-3.1982,-3.1967,-3.1992,-3.2158,-3.2121,-3.2013,-3.2299,-3.2617,-3.2694,-3.3096,-3.345,-3.361,-3.3625,-3.373,-3.4103,-3.4248,-3.4275,-3.4008,-3.3988,-3.4054,-3.3756,-3.2646,-3.2729,-3.2729,-3.2381,-3.1851,-3.1427,-3.1312,-3.0907,-3.0675,-3.0559,-3.0526,-3.0468,-3.0468,-3.0468,-3.0468,-3.0468,-3.0452,-2.9864,-2.8837,-2.776,-2.7081,-2.6651,-2.6352,-2.6203,-2.6203,-2.6203,-2.6274,-2.6415,-2.6485,-2.652,-2.6589,-2.6589,-2.6623,-2.664,-2.6674,-2.6674,-2.6708,-2.6708,-2.6708,-2.6708,-2.6708,-2.6708,-2.6708,-2.6691,-2.6691,-2.6708,-2.6742,-2.6792,-2.6842,-2.6876,-2.6909,-2.7077,-2.7705,-2.8111,-2.8622,-2.9329,-2.9586,-2.9184,-2.8885,-2.8334,-2.7917,-2.7789,-2.776,-2.7968,-2.8126,-2.8154,-2.82,-2.8227,-2.8237,-2.8291,-2.8327,-2.8353,-2.838,-2.838,-2.8432,-2.8484,-2.8536,-2.8562,-2.8612,-2.8662,-2.8669,-2.8718,-2.8767,-2.881,-2.881,-2.8834,-2.8881,-2.8905,-2.8929,-2.8842,-3.0372,-3.0008,-3.0518,-3.0839,-3.1036,-3.0966,-3.1131,-3.1243,-3.0899,-3.1021,-3.1727,-3.1827,-3.2551,-3.3166,-3.345,-3.3422,-3.3582,-3.3778,-3.3988,-3.397,-3.4016,-3.4027,-3.3707,-3.3392,-3.2696,-3.2199,-3.2266,-3.2332,-3.1735,-3.1106,-3.0815,-3.0725,-3.0609,-3.0468,-3.0468,-3.0468,-3.0468,-3.0468,-3.0468,-3.0468,-3.0468,-3.0418,-3.0129,-2.9135,-2.8092,-2.7379,-2.6998,-2.6518,-2.6203,-2.6203,-2.6203,-2.622,-2.6324,-2.6378,-2.6399,-2.6485,-2.652,-2.6537,-2.6589,-2.6589,-2.6657,-2.6674,-2.6708,-2.6708,-2.6708,-2.6708,-2.6708,-2.6708,-2.6708,-2.6708,-2.6708,-2.6708,-2.6708,-2.6742,-2.6742,-2.6742,-2.6842,-2.7079,-2.7553,-2.808,-2.8799,-2.9262,-2.8689,-2.8334,-2.8128,-2.787,-2.7783,-2.7789,-2.794,-2.8053,-2.8126,-2.8126,-2.8144,-2.82,-2.8209,-2.8291,-2.8327,-2.8327,-2.8353,-2.8406,-2.8458,-2.8484,-2.8536,-2.8562,-2.8612,-2.8637,-2.8687,-2.8718,-2.8761,-2.8761,-2.8785,-2.8797,-2.8596,-2.8401,-2.8145,-2.9903,-2.9717,-3.0003,-3.0232,-3.0394,-3.0448,-3.0517,-3.0693,-3.0799,-3.1074,-3.1588,-3.2211,-3.2804,-3.3403,-3.3813,-3.389,-3.3893,-3.3447,-3.3754,-3.395,-3.3485,-3.3264,-3.3226,-3.2829,-3.2017,-3.1537,-3.1719,-3.1769,-3.1064,-3.0742,-3.0485,-3.0485,-3.0468,-3.0468,-3.0468,-3.0468,-3.0468,-3.0468,-3.0468,-3.0468,-3.0468,-3.0468,-3.0129,-2.9383,-2.8754,-2.8058,-2.7383,-2.7537,-2.7151,-2.6886,-2.6786,-2.6803,-2.6703,-2.6455,-2.6327,-2.6449,-2.6415,-2.6434,-2.652,-2.6554,-2.6572,-2.6606,-2.6589,-2.6623,-2.664,-2.6657,-2.6674,-2.6708,-2.6708,-2.6708,-2.6708,-2.6708,-2.6708,-2.6708,-2.6708,-2.6708,-2.6708,-2.6792,-2.7147,-2.7587,-2.7858,-2.8077,-2.8036,-2.7851,-2.7888,-2.7852,-2.7766,-2.7806,-2.7882,-2.7968,-2.8053,-2.8126,-2.8126,-2.8154,-2.8182,-2.8237,-2.8246,-2.8273,-2.8273,-2.8371,-2.838,-2.8432,-2.8466,-2.8518,-2.8562,-2.8442,-2.8619,-2.8651,-2.8669,-2.8603,-2.8324,-2.8093,-2.8002,-2.7838,-2.751,-2.9402,-2.9388,-2.9524,-2.9697,-2.9947,-3.0083,-3.0295,-3.0516,-3.0929,-3.1228,-3.1566,-3.2316,-3.2893,-3.3439,-3.385,-3.4186,-3.4167,-3.3053,-3.3672,-3.3914,-3.3086,-3.2486,-3.2762,-3.2464,-3.1901,-3.1222,-3.1106,-3.1106,-3.0683,-3.0501,-3.0485,-3.0468,-3.0468,-3.0468,-3.0468,-3.0468,-3.0468,-3.0468,-3.0468,-3.0468,-3.0468,-3.0435,-3.0162,-2.9499,-2.94,-2.8754,-2.7815,-2.8002,-2.8002,-2.7703,-2.757,-2.7607,-2.7417,-2.6816,-2.6538,-2.6643,-2.6443,-2.638,-2.6434,-2.645,-2.6468,-2.652,-2.6485,-2.652,-2.6554,-2.6572,-2.6606,-2.6657,-2.6674,-2.6674,-2.6674,-2.6708,-2.6708,-2.6708,-2.6708,-2.6708,-2.6708,-2.6742,-2.6825,-2.7027,-2.7023,-2.7171,-2.7388,-2.75,-2.7622,-2.7696,-2.763,-2.7659,-2.7748,-2.7882,-2.7968,-2.8053,-2.8126,-2.8154,-2.8182,-2.8182,-2.8209,-2.8237,-2.8237,-2.8264,-2.8318,-2.8353,-2.8316,-2.8206,-2.8113,-2.803,-2.8297,-2.8395,-2.8196,-2.7931,-2.7622,-2.7349,-2.718,-2.6944,-2.6659,-2.8353,-2.7925,-2.8539,-2.9132,-2.9758,-2.9925,-3.0434,-3.0937,-3.0729,-3.0942,-3.1449,-3.1399,-3.2147,-3.3173,-3.382,-3.3389,-3.2998,-3.3386,-3.3629,-3.359,-3.3159,-3.302,-3.3276,-3.2249,-3.1735,-3.108,-3.0815,-3.0642,-3.0485,-3.0468,-3.0468,-3.0468,-3.0468,-3.0468,-3.0468,-3.0468,-3.0468,-3.0468,-3.0468,-3.0468,-3.0468,-3.0468,-3.0112,-2.9682,-2.9417,-2.9118,-2.8406,-2.8583,-2.8517,-2.8362,-2.8317,-2.8355,-2.8163,-2.7599,-2.7665,-2.7566,-2.7101,-2.6239,-2.6462,-2.6397,-2.6482,-2.6534,-2.6535,-2.6519,-2.652,-2.652,-2.652,-2.652,-2.6572,-2.6589,-2.6623,-2.664,-2.6674,-2.6674,-2.6674,-2.6657,-2.6691,-2.6674,-2.6759,-2.6909,-2.7007,-2.7055,-2.7203,-2.7299,-2.7376,-2.7452,-2.7526,-2.7539,-2.763,-2.7795,-2.794,-2.8025,-2.8081,-2.8109,-2.8109,-2.8154,-2.8126,-2.8154,-2.8164,-2.8164,-2.8138,-2.8058,-2.7807,-2.7697,-2.7587,-2.7583,-2.7795,-2.7759,-2.7561,-2.7199,-2.6772,-2.6501,-2.626,-2.6036,-2.5697,-2.7895,-2.7634,-2.8323,-2.8809,-2.9162,-2.9682,-3.0107,-3.051,-3.0792,-3.0867,-3.1062,-3.1467,-3.2016,-3.2641,-3.2919,-3.2707,-3.2364,-3.2978,-3.3168,-3.2869,-3.2698,-3.2541,-3.2238,-3.1553,-3.1007,-3.0915,-3.0683,-3.0551,-3.0468,-3.0468,-3.0468,-3.0468,-3.0468,-3.0468,-3.0468,-3.0468,-3.0468,-3.0468,-3.0468,-3.0468,-3.0468,-3.0452,-3.0319,-3.0005,-3.0013,-2.9615,-2.9234,-2.9473,-2.9357,-2.9118,-2.8992,-2.8777,-2.8478,-2.8097,-2.798,-2.7649,-2.7682,-2.7499,-2.7454,-2.6756,-2.6626,-2.6712,-2.6612,-2.6345,-2.6415,-2.645,-2.6485,-2.6485,-2.6536,-2.6571,-2.6571,-2.6572,-2.6572,-2.6606,-2.6707,-2.664,-2.664,-2.6657,-2.6708,-2.6842,-2.6975,-2.7023,-2.7087,-2.7264,-2.7327,-2.7404,-2.7496,-2.7509,-2.7647,-2.7795,-2.7911,-2.8014,-2.8025,-2.8025,-2.8053,-2.8053,-2.7996,-2.7996,-2.7971,-2.7982,-2.7865,-2.7725,-2.7317,-2.6959,-2.6734,-2.6864,-2.7137,-2.6982,-2.6633,-2.6273,-2.5907,-2.5619,-2.5272,-2.4769,-2.4469,-2.7715,-2.7874,-2.8382,-2.8771,-2.9116,-2.9786,-3.0295,-3.0585,-3.1189,-3.1183,-3.0979,-3.1471,-3.1723,-3.1628,-3.1897,-3.2089,-3.1892,-3.2387,-3.2524,-3.2323,-3.205,-3.183,-3.1593,-3.0974,-3.0559,-3.0468,-3.0518,-3.0468,-3.0468,-3.0468,-3.0468,-3.0468,-3.0468,-3.0468,-3.0468,-3.0468,-3.0468,-3.0468,-3.0468,-3.0468,-3.0468,-3.0485,-3.0468,-3.041,-3.0377,-3.0179,-2.9856,-3.0112,-3.0079,-2.9847,-2.9739,-2.954,-2.9118,-2.882,-2.8671,-2.8406,-2.839,-2.8456,-2.8262,-2.7711,-2.7031,-2.6849,-2.6684,-2.6239,-2.6293,-2.6364,-2.6415,-2.638,-2.6434,-2.6534,-2.6668,-2.6803,-2.6872,-2.6889,-2.6837,-2.6704,-2.6588,-2.6589,-2.6623,-2.6742,-2.6892,-2.6957,-2.7055,-2.7233,-2.7327,-2.7373,-2.7417,-2.7448,-2.7539,-2.7677,-2.7766,-2.7795,-2.7795,-2.7824,-2.7922,-2.7922,-2.7864,-2.7765,-2.7741,-2.7611,-2.7434,-2.6949,-2.6393,-2.6126,-2.5867,-2.5476,-2.5341,-2.5529,-2.5673,-2.538,-2.5046,-2.4629,-2.4218,-2.3749,-2.3638,-2.7949,-2.8547,-2.8592,-2.928,-3.0313,-3.0614,-3.1157,-3.1571,-3.1936,-3.1689,-3.1155,-3.1224,-3.0736,-3.0486,-3.1218,-3.1477,-3.1073,-3.2448,-3.2457,-3.2318,-3.2266,-3.1858,-3.1384,-3.0832,-3.0468,-3.0485,-3.0468,-3.0468,-3.0468,-3.0468,-3.0468,-3.0468,-3.0468,-3.0468,-3.0468,-3.0468,-3.0468,-3.0468,-3.0468,-3.0468,-3.0468,-3.0443,-3.0401,-3.0401,-3.0316,-3.0241,-3.0318,-3.041,-3.0435,-3.0253,-3.0319,-3.0227,-2.9764,-2.9549,-2.9433,-2.9376,-2.9019,-2.9194,-2.931,-2.839,-2.7429,-2.7081,-2.6816,-2.6535,-2.6637,-2.6319,-2.6272,-2.6372,-2.6545,-2.6728,-2.7081,-2.7384,-2.7217,-2.7133,-2.6966,-2.6718,-2.6551,-2.6485,-2.6521,-2.6657,-2.6758,-2.6842,-2.6875,-2.7055,-2.7152,-2.7198,-2.723,-2.7261,-2.7244,-2.7355,-2.7448,-2.7526,-2.7496,-2.7569,-2.773,-2.7748,-2.7659,-2.7402,-2.7268,-2.7034,-2.681,-2.6222,-2.5402,-2.5033,-2.4707,-2.4101,-2.3731,-2.4176,-2.4481,-2.4431,-2.42,-2.391,-2.378,-2.3595,-2.3562,-2.7964,-2.8637,-2.9026,-2.9714,-3.0537,-3.1012,-3.1287,-3.1389,-3.143,-3.1151,-3.0626,-3.0212,-2.9968,-3.0048,-3.0263,-3.0571,-3.047,-3.1434,-3.1508,-3.1478,-3.1435,-3.1407,-3.0981,-3.07,-3.0485,-3.0443,-3.0485,-3.0468,-3.0468,-3.0468,-3.0468,-3.0468,-3.0468,-3.0468,-3.0468,-3.0468,-3.0468,-3.0468,-3.0468,-3.0468,-3.0468,-3.0485,-3.0443,-3.0401,-3.0375,-3.0333,-3.0359,-3.0316,-3.0401,-3.0485,-3.0526,-3.0328,-3.0145,-2.9996,-2.9988,-2.9955,-2.9518,-2.984,-2.9939,-2.8923,-2.8009,-2.7964,-2.7711,-2.7495,-2.7346,-2.7147,-2.6916,-2.6902,-2.6886,-2.7171,-2.7254,-2.7374,-2.7308,-2.7258,-2.7042,-2.6745,-2.653,-2.6397,-2.6417,-2.6538,-2.6607,-2.6691,-2.6759,-2.6825,-2.6908,-2.7006,-2.7038,-2.707,-2.707,-2.7085,-2.7198,-2.7261,-2.7279,-2.7293,-2.7461,-2.7478,-2.7434,-2.7135,-2.6817,-2.6464,-2.6074,-2.5087,-2.4381,-2.3998,-2.3728,-2.3371,-2.3197,-2.325,-2.3379,-2.3601,-2.352,-2.3284,-2.3259,-2.3383,-2.3499,-2.7979,-2.8637,-2.9101,-2.9708,-3.0338,-3.0941,-3.102,-3.0821,-3.076,-3.0593,-3.0133,-2.9577,-2.9531,-2.983,-2.9951,-2.9983,-3.0178,-3.0721,-3.0691,-3.0795,-3.1024,-3.0978,-3.0674,-3.0485,-3.0485,-3.0443,-3.0485,-3.0468,-3.0468,-3.0468,-3.0468,-3.0468,-3.0468,-3.0468,-3.0468,-3.0468,-3.0468,-3.0468,-3.0485,-3.0485,-3.0485,-3.0359,-3.0316,-3.0274,-3.0189,-3.0248,-3.0248,-3.0231,-3.0316,-3.0401,-3.0393,-3.0195,-3.0063,-3.003,-3.0054,-2.998,-2.9987,-3.0258,-2.9962,-2.937,-2.8582,-2.8323,-2.8329,-2.8312,-2.8279,-2.7947,-2.7665,-2.7649,-2.7649,-2.7699,-2.7744,-2.7931,-2.7798,-2.7786,-2.7168,-2.6839,-2.6474,-2.6293,-2.6347,-2.64,-2.6486,-2.6555,-2.6657,-2.6708,-2.6775,-2.6842,-2.6875,-2.6908,-2.6908,-2.694,-2.7038,-2.707,-2.707,-2.7103,-2.7149,-2.7184,-2.7149,-2.6871,-2.6488,-2.585,-2.5247,-2.4287,-2.3598,-2.3342,-2.3083,-2.2754,-2.2737,-2.2867,-2.2937,-2.2997,-2.297,-2.302,-2.3119,-2.3265,-2.336,-2.7964,-2.8562,-2.8622,-2.9079,-2.9771,-3.0323,-3.0383,-3.0182,-3.0127,-3.0138,-3.0038,-2.9497,-2.9441,-2.9786,-2.983,-2.983,-2.9988,-3.0535,-3.0624,-3.0457,-3.0833,-3.0869,-3.0632,-3.0485,-3.0485,-3.0468,-3.0468,-3.0468,-3.0468,-3.0468,-3.0468,-3.0468,-3.0485,-3.0468,-3.0468,-3.0468,-3.0468,-3.0468,-3.0401,-3.0417,-3.0359,-3.0205,-3.0162,-3.006,-3.0017,-3.0076,-3.006,-3.0162,-3.0231,-3.0359,-3.0401,-3.0302,-3.0302,-3.0302,-3.0251,-3.0149,-3.0123,-3.0189,-3.0123,-2.9593,-2.9147,-2.8781,-2.8887,-2.8787,-2.8555,-2.8373,-2.834,-2.834,-2.834,-2.8655,-2.8787,-2.8721,-2.8373,-2.7976,-2.7396,-2.6766,-2.6421,-2.6239,-2.6293,-2.6329,-2.6347,-2.6365,-2.6504,-2.664,-2.6674,-2.6708,-2.6708,-2.6742,-2.6775,-2.6808,-2.6892,-2.6908,-2.6908,-2.6923,-2.6956,-2.6975,-2.6856,-2.6582,-2.617,-2.5586,-2.4765,-2.3876,-2.3277,-2.287,-2.2654,-2.2532,-2.2515,-2.2532,-2.2605,-2.2712,-2.2868,-2.2944,-2.3045,-2.3144,-2.3265,-2.752,-2.7824,-2.8293,-2.8457,-2.8613,-2.9499,-2.9735,-2.9428,-2.9223,-2.9164,-2.9234,-2.9014,-2.9152,-2.935,-2.9576,-2.9621,-2.973,-2.9999,-3.0114,-3.0174,-3.0576,-3.0504,-3.0392,-3.0443,-3.0485,-3.0443,-3.0485,-3.0468,-3.0468,-3.0468,-3.0468,-3.0468,-3.0443,-3.0443,-3.0401,-3.0359,-3.0316,-3.0316,-3.0274,-3.0231,-3.0231,-3.0146,-3.0076,-3.0017,-2.9989,-2.9989,-2.9973,-3.0076,-3.0146,-3.0248,-3.0316,-3.0316,-3.029,-3.029,-3.0189,-3.0103,-3.006,-3.006,-3.0087,-2.991,-2.9905,-2.9659,-2.9518,-2.9525,-2.9748,-2.9284,-2.9152,-2.9019,-2.8969,-2.9185,-2.9234,-2.8704,-2.8323,-2.8042,-2.7462,-2.6667,-2.622,-2.622,-2.6239,-2.6239,-2.6274,-2.6277,-2.64,-2.6521,-2.6589,-2.6589,-2.6589,-2.664,-2.6708,-2.6691,-2.6691,-2.6742,-2.6758,-2.6758,-2.6775,-2.6809,-2.6775,-2.6622,-2.6095,-2.5448,-2.4533,-2.3723,-2.318,-2.2903,-2.2604,-2.2366,-2.2349,-2.236,-2.2388,-2.2497,-2.2659,-2.2816,-2.2902,-2.3028,-2.3193,-2.7233,-2.7395,-2.7847,-2.7906,-2.785,-2.8786,-2.9019,-2.8758,-2.8629,-2.8668,-2.8795,-2.8873,-2.8967,-2.9121,-2.9259,-2.9335,-2.938,-2.9665,-2.993,-2.9973,-3.0205,-3.0333,-3.0359,-3.0384,-3.0485,-3.0443,-3.0443,-3.0468,-3.0468,-3.0468,-3.0468,-3.0443,-3.0375,-3.029,-3.029,-3.0205,-3.0248,-3.0189,-3.0205,-3.0119,-3.0103,-3.0076,-3.0033,-2.9989,-2.9946,-2.9946,-2.9989,-2.9973,-3.0017,-3.0119,-3.0162,-3.0146,-3.0162,-3.0119,-3.006,-2.9989,-2.9902,-2.9702,-2.9306,-2.9528,-2.9394,-2.9231,-2.9799,-3.003,-3.0038,-2.9549,-2.9417,-2.935,-2.94,-2.9251,-2.9069,-2.8506,-2.8025,-2.7727,-2.7214,-2.6402,-2.6184,-2.6184,-2.6184,-2.622,-2.622,-2.6258,-2.6277,-2.6399,-2.6503,-2.6503,-2.6503,-2.6555,-2.6607,-2.6589,-2.6572,-2.6623,-2.664,-2.664,-2.6657,-2.6674,-2.6674,-2.6607,-2.6067,-2.5441,-2.4905,-2.4216,-2.3577,-2.2992,-2.287,-2.268,-2.2293,-2.2203,-2.2248,-2.2332,-2.2487,-2.2605,-2.2747,-2.2902,-2.3052,-2.7181,-2.7233,-2.735,-2.7416,-2.7571,-2.8256,-2.8444,-2.8217,-2.8493,-2.8653,-2.8858,-2.8826,-2.8873,-2.9029,-2.9075,-2.9075,-2.9121,-2.938,-2.956,-2.9782,-2.9913,-3.013,-3.0258,-3.0401,-3.0359,-3.0443,-3.0485,-3.0468,-3.0468,-3.0426,-3.0401,-3.0359,-3.0215,-3.0146,-3.0119,-3.0076,-3.0119,-3.0119,-3.0076,-3.0033,-3.0033,-2.9962,-2.9962,-2.9918,-2.9858,-2.9858,-2.9902,-2.9886,-2.993,-3.0017,-3.0087,-3.006,-3.0017,-2.9973,-2.9946,-2.9874,-2.9742,-2.9124,-2.8618,-2.8968,-2.8802,-2.8796,-2.9083,-2.9287,-2.9393,-2.9443,-2.9591,-2.9443,-2.936,-2.9003,-2.8638,-2.808,-2.7483,-2.7098,-2.6717,-2.6333,-2.6201,-2.6168,-2.6168,-2.6168,-2.6168,-2.6239,-2.6277,-2.6364,-2.6364,-2.6329,-2.6312,-2.6312,-2.6382,-2.6486,-2.6468,-2.652,-2.6537,-2.6503,-2.652,-2.6554,-2.6572,-2.6555,-2.6151,-2.5581,-2.5112,-2.4727,-2.4175,-2.3703,-2.3338,-2.2966,-2.2312,-2.2089,-2.2089,-2.2192,-2.2304,-2.2443,-2.2588,-2.2668,-2.2773,-2.6989,-2.7041,-2.7181,-2.7284,-2.7467,-2.785,-2.7956,-2.7955,-2.8186,-2.8381,-2.8414,-2.8525,-2.8621,-2.8573,-2.8748,-2.8779,-2.892,-2.9059,-2.9198,-2.938,-2.956,-2.9605,-2.9754,-3.0017,-3.0087,-3.0231,-3.0359,-3.0426,-3.0426,-3.0401,-3.0274,-3.0231,-3.0044,-2.993,-2.9902,-2.9858,-2.9902,-2.9946,-2.9946,-2.9902,-2.9902,-2.9858,-2.9858,-2.983,-2.9681,-2.9681,-2.977,-2.971,-2.971,-2.9694,-2.9886,-2.9886,-2.9649,-2.9649,-2.956,-2.9412,-2.947,-2.9456,-2.9166,-2.9389,-2.9199,-2.8575,-2.8928,-2.8739,-2.8935,-2.9206,-2.9593,-2.9369,-2.9112,-2.8738,-2.834,-2.7793,-2.7263,-2.6866,-2.6482,-2.6195,-2.6079,-2.6079,-2.6079,-2.6115,-2.6115,-2.6203,-2.6241,-2.6206,-2.6222,-2.617,-2.6134,-2.6134,-2.6134,-2.6258,-2.6329,-2.6364,-2.6415,-2.6364,-2.645,-2.6485,-2.6485,-2.6418,-2.6048,-2.573,-2.538,-2.5013,-2.4712,-2.4228,-2.366,-2.2879,-2.2091,-2.1974,-2.1945,-2.1998,-2.2084,-2.2287,-2.2415,-2.248,-2.2561,-2.6846,-2.6937,-2.713,-2.7284,-2.7488,-2.764,-2.7725,-2.784,-2.8088,-2.8235,-2.8299,-2.8396,-2.8411,-2.8444,-2.8525,-2.8621,-2.8605,-2.8826,-2.8967,-2.9059,-2.9167,-2.935,-2.9531,-2.9649,-2.9782,-2.9957,-3.0087,-3.0156,-3.0215,-3.013,-3.0044,-2.9973,-2.9782,-2.9754,-2.9726,-2.9637,-2.9637,-2.9726,-2.9786,-2.9786,-2.977,-2.971,-2.9665,-2.9592,-2.9396,-2.9486,-2.9576,-2.9441,-2.9486,-2.9425,-2.9665,-2.971,-2.9425,-2.9335,-2.9109,-2.8989,-2.9116,-2.8946,-2.8558,-2.8592,-2.8549,-2.8514,-2.8509,-2.8306,-2.8412,-2.8673,-2.8852,-2.885,-2.8665,-2.8406,-2.8025,-2.7628,-2.716,-2.6746,-2.6392,-2.6003,-2.597,-2.597,-2.6007,-2.6026,-2.6079,-2.6151,-2.6187,-2.6151,-2.6099,-2.6063,-2.6026,-2.599,-2.599,-2.6063,-2.6134,-2.617,-2.6222,-2.6187,-2.6293,-2.6329,-2.6293,-2.6258,-2.6104,-2.5822,-2.5559,-2.5361,-2.5078,-2.4481,-2.3782,-2.2936,-2.2046,-2.1847,-2.1827,-2.1869,-2.1911,-2.2044,-2.2175,-2.2243,-2.2343,-2.6605,-2.6643,-2.699,-2.7297,-2.7575,-2.761,-2.769,-2.7855,-2.8103,-2.8204,-2.8255,-2.8381,-2.835,-2.8227,-2.8352,-2.8444,-2.8493,-2.8621,-2.8748,-2.8858,-2.8982,-2.9121,-2.9243,-2.9499,-2.9544,-2.9633,-2.975,-2.9941,-2.9837,-2.981,-2.9782,-2.9681,-2.9637,-2.9608,-2.9563,-2.9412,-2.9332,-2.923,-2.9419,-2.9531,-2.9515,-2.947,-2.9396,-2.9167,-2.9121,-2.9137,-2.9167,-2.9259,-2.9335,-2.935,-2.9396,-2.9486,-2.9259,-2.909,-2.8833,-2.8754,-2.8854,-2.8503,-2.8084,-2.7944,-2.7844,-2.7763,-2.7646,-2.7786,-2.8022,-2.8682,-2.9034,-2.8484,-2.8234,-2.7888,-2.7509,-2.6949,-2.6471,-2.627,-2.6049,-2.5881,-2.5864,-2.5881,-2.5917,-2.5954,-2.6043,-2.6079,-2.6096,-2.6043,-2.599,-2.5937,-2.5881,-2.586,-2.5807,-2.5807,-2.5917,-2.599,-2.6026,-2.6043,-2.6079,-2.6063,-2.599,-2.5954,-2.5954,-2.5921,-2.5694,-2.5546,-2.5415,-2.4577,-2.3621,-2.2848,-2.2143,-2.1864,-2.1678,-2.1738,-2.1781,-2.1827,-2.1899,-2.1986,-2.2101,-2.5328,-2.545,-2.6138,-2.6861,-2.7545,-2.756,-2.771,-2.7955,-2.8005,-2.7832,-2.7638,-2.8025,-2.8073,-2.7703,-2.815,-2.8319,-2.8383,-2.8462,-2.8477,-2.8525,-2.8668,-2.8763,-2.8795,-2.909,-2.9182,-2.9364,-2.9528,-2.9705,-2.9722,-2.9633,-2.9605,-2.9637,-2.9547,-2.9396,-2.9316,-2.9164,-2.896,-2.8717,-2.877,-2.9037,-2.9178,-2.9257,-2.9259,-2.9075,-2.8936,-2.8936,-2.8936,-2.8936,-2.8936,-2.8889,-2.9121,-2.9075,-2.8842,-2.8858,-2.8748,-2.8529,-2.867,-2.8309,-2.7958,-2.7759,-2.7937,-2.7982,-2.7965,-2.7784,-2.8045,-2.9007,-2.9123,-2.8347,-2.7748,-2.741,-2.7,-2.6393,-2.5881,-2.5828,-2.5754,-2.5754,-2.5738,-2.5754,-2.5791,-2.5844,-2.5917,-2.597,-2.5987,-2.5934,-2.5881,-2.5807,-2.5712,-2.5637,-2.5562,-2.5546,-2.5696,-2.577,-2.5881,-2.5917,-2.5881,-2.5844,-2.577,-2.5807,-2.5807,-2.5807,-2.577,-2.5644,-2.5402,-2.4335,-2.3388,-2.2688,-2.21,-2.1627,-2.1479,-2.1587,-2.1617,-2.1617,-2.1708,-2.1781,-2.1899,-2.4863,-2.497,-2.5521,-2.6105,-2.6707,-2.7006,-2.7139,-2.7152,-2.7428,-2.7113,-2.6642,-2.7333,-2.758,-2.7119,-2.7657,-2.8027,-2.8073,-2.8304,-2.8414,-2.8411,-2.8411,-2.846,-2.8573,-2.8795,-2.8889,-2.9075,-2.9289,-2.9454,-2.9451,-2.9425,-2.9366,-2.938,-2.9227,-2.9055,-2.8926,-2.8586,-2.8353,-2.8021,-2.7995,-2.8121,-2.8556,-2.8777,-2.8904,-2.8748,-2.87,-2.8716,-2.87,-2.87,-2.8653,-2.8621,-2.8716,-2.856,-2.842,-2.8529,-2.8435,-2.8295,-2.8311,-2.8404,-2.7998,-2.7976,-2.831,-2.8347,-2.8308,-2.813,-2.8854,-2.9583,-2.8779,-2.8021,-2.7414,-2.7044,-2.6825,-2.6335,-2.5938,-2.5754,-2.5642,-2.5567,-2.5567,-2.5567,-2.5567,-2.5605,-2.5696,-2.577,-2.5733,-2.5659,-2.5605,-2.5584,-2.5524,-2.5486,-2.5371,-2.5294,-2.5432,-2.5546,-2.5621,-2.5659,-2.5621,-2.5584,-2.5584,-2.5584,-2.5659,-2.5621,-2.5567,-2.5594,-2.5269,-2.4129,-2.3185,-2.2669,-2.2086,-2.1455,-2.134,-2.1402,-2.1419,-2.1419,-2.1511,-2.1587,-2.1678,-2.4631,-2.4796,-2.4993,-2.5304,-2.5642,-2.6213,-2.6359,-2.6183,-2.6608,-2.6337,-2.5613,-2.6626,-2.6718,-2.678,-2.7072,-2.7334,-2.7703,-2.8211,-2.8381,-2.8411,-2.846,-2.846,-2.8541,-2.8684,-2.8811,-2.8857,-2.8917,-2.8946,-2.8928,-2.8788,-2.8693,-2.8916,-2.8823,-2.8633,-2.8072,-2.7778,-2.7686,-2.7279,-2.7081,-2.696,-2.7441,-2.8124,-2.831,-2.8323,-2.8365,-2.8396,-2.8493,-2.8525,-2.8541,-2.8541,-2.8444,-2.8309,-2.8217,-2.8309,-2.8248,-2.8154,-2.8261,-2.817,-2.7829,-2.7734,-2.8229,-2.8582,-2.8558,-2.8764,-2.9394,-2.927,-2.8484,-2.7615,-2.7026,-2.6804,-2.6586,-2.6271,-2.5891,-2.5642,-2.5492,-2.5416,-2.5416,-2.5416,-2.5416,-2.5416,-2.5454,-2.553,-2.5492,-2.5416,-2.5394,-2.5394,-2.5317,-2.5278,-2.5256,-2.5178,-2.5178,-2.524,-2.5317,-2.5355,-2.5394,-2.5394,-2.5394,-2.5394,-2.5432,-2.5394,-2.5291,-2.5158,-2.4696,-2.3742,-2.2919,-2.2322,-2.1793,-2.1183,-2.1167,-2.123,-2.1262,-2.1278,-2.1356,-2.1419,-2.145,-2.3583,-2.4268,-2.4408,-2.4828,-2.5414,-2.5796,-2.5938,-2.6062,-2.6214,-2.5923,-2.5459,-2.5503,-2.5857,-2.6364,-2.7088,-2.7473,-2.7781,-2.8134,-2.8319,-2.8411,-2.8401,-2.8463,-2.8559,-2.8561,-2.8889,-2.8777,-2.8476,-2.8316,-2.8252,-2.7857,-2.7794,-2.8268,-2.83,-2.8205,-2.8081,-2.7651,-2.7125,-2.6598,-2.6311,-2.6253,-2.6284,-2.6932,-2.7597,-2.7812,-2.8119,-2.8288,-2.846,-2.846,-2.846,-2.8411,-2.8381,-2.8306,-2.8229,-2.8229,-2.8213,-2.8153,-2.8227,-2.8028,-2.7783,-2.7752,-2.8217,-2.8397,-2.8268,-2.8068,-2.8613,-2.9049,-2.8086,-2.6837,-2.6422,-2.6545,-2.6345,-2.5978,-2.56,-2.5508,-2.5339,-2.5394,-2.5394,-2.5339,-2.5339,-2.5301,-2.5317,-2.5355,-2.5355,-2.5294,-2.5294,-2.5217,-2.5123,-2.5084,-2.5068,-2.5005,-2.4958,-2.5021,-2.5045,-2.5162,-2.5278,-2.5278,-2.5278,-2.524,-2.5201,-2.5201,-2.501,-2.4579,-2.3989,-2.3271,-2.2518,-2.1863,-2.1321,-2.0909,-2.099,-2.1054,-2.1087,-2.1167,-2.1215,-2.1262,-2.1277]}]]